Time,TemperatureF,DewpointF,PressureIn,WindDirection,WindDirectionDegrees,WindSpeedMPH,WindSpeedGustMPH,Humidity,HourlyPrecipIn,Conditions,Clouds,dailyrainin,SoftwareType,DateUTC
2013-03-16 00:00:00,45.7,38.9,30.16,West,262,0.0,10.0,77,0.00,,---,0.00,VWS V12.08,2013-03-16 04:00:00,
2013-03-16 00:01:00,45.6,38.8,30.17,West,262,0.0,10.0,77,0.00,,---,0.00,VWS V12.08,2013-03-16 04:01:00,
2013-03-16 00:02:00,45.5,38.7,30.16,West,262,0.0,10.0,77,0.00,,---,0.00,VWS V12.08,2013-03-16 04:02:00,
2013-03-16 00:03:00,45.5,38.7,30.16,West,262,0.0,10.0,77,0.00,,---,0.00,VWS V12.08,2013-03-16 04:03:00,
2013-03-16 00:04:00,45.4,38.6,30.17,West,262,0.0,10.0,77,0.00,,---,0.00,VWS V12.08,2013-03-16 04:04:00,
2013-03-16 00:05:00,45.3,38.5,30.16,West,262,0.0,10.0,77,0.00,,---,0.00,VWS V12.08,2013-03-16 04:05:00,
2013-03-16 00:06:00,45.2,38.1,30.17,West,262,0.0,10.0,76,0.00,,---,0.00,VWS V12.08,2013-03-16 04:06:00,
2013-03-16 00:08:00,45.0,37.9,30.16,West,262,0.0,10.0,76,0.00,,---,0.00,VWS V12.08,2013-03-16 04:08:00,
2013-03-16 00:10:00,44.9,37.8,30.16,West,262,0.0,10.0,76,0.00,,---,0.00,VWS V12.08,2013-03-16 04:10:00,
2013-03-16 00:11:00,45.7,38.9,30.17,West,262,0.0,10.0,77,0.00,,---,0.00,VWS V12.08,2013-03-16 04:11:00,
2013-03-16 00:12:00,44.6,37.8,30.17,West,262,0.0,10.0,77,0.00,,---,0.00,VWS V12.08,2013-03-16 04:12:00,
2013-03-16 00:13:00,44.6,37.8,30.17,West,262,0.0,10.0,77,0.00,,---,0.00,VWS V12.08,2013-03-16 04:13:00,
2013-03-16 00:14:00,44.5,38.1,30.17,West,262,0.0,10.0,78,0.00,,---,0.00,VWS V12.08,2013-03-16 04:14:00,
2013-03-16 00:15:00,44.4,38.0,30.16,West,262,0.0,10.0,78,0.00,,---,0.00,VWS V12.08,2013-03-16 04:15:00,
2013-03-16 00:16:00,45.2,38.4,30.17,West,262,0.0,10.0,77,0.00,,---,0.00,VWS V12.08,2013-03-16 04:16:00,
2013-03-16 00:17:00,44.2,37.5,30.16,West,262,0.0,10.0,77,0.00,,---,0.00,VWS V12.08,2013-03-16 04:17:00,
2013-03-16 00:18:00,44.2,37.5,30.17,West,262,0.0,10.0,77,0.00,,---,0.00,VWS V12.08,2013-03-16 04:18:00,
2013-03-16 00:19:00,44.1,37.7,30.16,West,262,0.0,10.0,78,0.00,,---,0.00,VWS V12.08,2013-03-16 04:19:00,
2013-03-16 00:20:00,44.0,37.6,30.16,West,262,0.0,10.0,78,0.00,,---,0.00,VWS V12.08,2013-03-16 04:20:00,
2013-03-16 00:21:00,44.0,37.6,30.16,West,262,0.0,10.0,78,0.00,,---,0.00,VWS V12.08,2013-03-16 04:21:00,
2013-03-16 00:22:00,44.7,37.9,30.16,West,262,0.0,10.0,77,0.00,,---,0.00,VWS V12.08,2013-03-16 04:22:00,
2013-03-16 00:23:00,43.8,37.4,30.17,West,262,0.0,10.0,78,0.00,,---,0.00,VWS V12.08,2013-03-16 04:23:00,
2013-03-16 00:24:00,43.7,37.3,30.16,West,262,0.0,10.0,78,0.00,,---,0.00,VWS V12.08,2013-03-16 04:24:00,
2013-03-16 00:25:00,43.6,37.2,30.16,West,262,0.0,10.0,78,0.00,,---,0.00,VWS V12.08,2013-03-16 04:25:00,
2013-03-16 00:26:00,43.6,37.5,30.16,West,262,0.0,10.0,79,0.00,,---,0.00,VWS V12.08,2013-03-16 04:26:00,
2013-03-16 00:27:00,44.3,37.9,30.17,West,262,0.0,10.0,78,0.00,,---,0.00,VWS V12.08,2013-03-16 04:27:00,
2013-03-16 00:28:00,43.4,37.3,30.16,West,262,0.0,10.0,79,0.00,,---,0.00,VWS V12.08,2013-03-16 04:28:00,
2013-03-16 00:31:00,43.3,37.6,30.16,West,262,1.0,10.0,80,0.00,,---,0.00,VWS V12.08,2013-03-16 04:31:00,
2013-03-16 00:32:00,43.9,37.5,30.16,West,262,0.0,10.0,78,0.00,,---,0.00,VWS V12.08,2013-03-16 04:32:00,
2013-03-16 00:33:00,43.2,37.8,30.17,West,262,0.0,10.0,81,0.00,,---,0.00,VWS V12.08,2013-03-16 04:33:00,
2013-03-16 00:34:00,43.2,37.8,30.17,West,262,0.0,10.0,81,0.00,,---,0.00,VWS V12.08,2013-03-16 04:34:00,
2013-03-16 00:35:00,43.2,37.8,30.17,West,262,0.0,10.0,81,0.00,,---,0.00,VWS V12.08,2013-03-16 04:35:00,
2013-03-16 00:37:00,43.5,37.4,30.16,West,262,0.0,10.0,79,0.00,,---,0.00,VWS V12.08,2013-03-16 04:37:00,
2013-03-16 00:40:00,43.1,37.7,30.17,West,262,0.0,10.0,81,0.00,,---,0.00,VWS V12.08,2013-03-16 04:40:00,
2013-03-16 00:41:00,43.0,37.6,30.16,West,262,0.0,10.0,81,0.00,,---,0.00,VWS V12.08,2013-03-16 04:41:00,
2013-03-16 00:42:00,43.3,37.9,30.16,West,262,1.0,10.0,81,0.00,,---,0.00,VWS V12.08,2013-03-16 04:42:00,
2013-03-16 00:43:00,43.0,37.9,30.16,West,262,0.0,10.0,82,0.00,,---,0.00,VWS V12.08,2013-03-16 04:43:00,
2013-03-16 00:44:00,43.0,37.6,30.16,West,262,0.0,10.0,81,0.00,,---,0.00,VWS V12.08,2013-03-16 04:44:00,
2013-03-16 00:45:00,43.0,37.6,30.16,West,262,0.0,10.0,81,0.00,,---,0.00,VWS V12.08,2013-03-16 04:45:00,
2013-03-16 00:47:00,43.2,37.8,30.16,West,262,0.0,10.0,81,0.00,,---,0.00,VWS V12.08,2013-03-16 04:47:00,
2013-03-16 00:50:00,42.8,37.4,30.16,West,262,0.0,10.0,81,0.00,,---,0.00,VWS V12.08,2013-03-16 04:50:00,
2013-03-16 00:51:00,42.8,37.4,30.16,West,262,0.0,10.0,81,0.00,,---,0.00,VWS V12.08,2013-03-16 04:51:00,
2013-03-16 00:52:00,43.1,37.7,30.16,West,262,0.0,10.0,81,0.00,,---,0.00,VWS V12.08,2013-03-16 04:52:00,
2013-03-16 00:53:00,42.7,37.3,30.16,West,262,0.0,10.0,81,0.00,,---,0.00,VWS V12.08,2013-03-16 04:53:00,
2013-03-16 00:54:00,42.6,37.2,30.16,West,262,0.0,10.0,81,0.00,,---,0.00,VWS V12.08,2013-03-16 04:54:00,
2013-03-16 00:55:00,42.6,37.2,30.16,West,262,0.0,10.0,81,0.00,,---,0.00,VWS V12.08,2013-03-16 04:55:00,
2013-03-16 00:56:00,42.6,37.2,30.16,West,262,0.0,10.0,81,0.00,,---,0.00,VWS V12.08,2013-03-16 04:56:00,
2013-03-16 00:57:00,42.9,37.5,30.16,West,262,0.0,10.0,81,0.00,,---,0.00,VWS V12.08,2013-03-16 04:57:00,
2013-03-16 00:58:00,42.5,37.4,30.16,West,262,0.0,10.0,82,0.00,,---,0.00,VWS V12.08,2013-03-16 04:58:00,
2013-03-16 01:00:00,42.4,37.3,30.16,West,262,0.0,10.0,82,0.00,,---,0.00,VWS V12.08,2013-03-16 05:00:00,
2013-03-16 01:02:00,42.7,37.3,30.16,West,262,0.0,10.0,81,0.00,,---,0.00,VWS V12.08,2013-03-16 05:02:00,
2013-03-16 01:03:00,42.4,37.6,30.16,West,262,0.0,10.0,83,0.00,,---,0.00,VWS V12.08,2013-03-16 05:03:00,
2013-03-16 01:04:00,42.4,37.6,30.16,West,262,0.0,10.0,83,0.00,,---,0.00,VWS V12.08,2013-03-16 05:04:00,
2013-03-16 01:05:00,42.4,37.6,30.16,West,262,0.0,10.0,83,0.00,,---,0.00,VWS V12.08,2013-03-16 05:05:00,
2013-03-16 01:06:00,42.4,37.6,30.16,West,262,0.0,10.0,83,0.00,,---,0.00,VWS V12.08,2013-03-16 05:06:00,
2013-03-16 01:07:00,42.5,37.1,30.16,West,262,0.0,10.0,81,0.00,,---,0.00,VWS V12.08,2013-03-16 05:07:00,
2013-03-16 01:08:00,42.4,37.6,30.16,West,262,0.0,10.0,83,0.00,,---,0.00,VWS V12.08,2013-03-16 05:08:00,
2013-03-16 01:09:00,42.4,37.6,30.16,West,262,0.0,10.0,83,0.00,,---,0.00,VWS V12.08,2013-03-16 05:09:00,
2013-03-16 01:10:00,42.3,37.5,30.16,West,262,0.0,10.0,83,0.00,,---,0.00,VWS V12.08,2013-03-16 05:10:00,
2013-03-16 01:11:00,42.3,37.5,30.16,West,262,0.0,10.0,83,0.00,,---,0.00,VWS V12.08,2013-03-16 05:11:00,
2013-03-16 01:12:00,42.4,37.6,30.16,West,262,0.0,10.0,83,0.00,,---,0.00,VWS V12.08,2013-03-16 05:12:00,
2013-03-16 01:13:00,42.1,37.3,30.16,West,262,0.0,10.0,83,0.00,,---,0.00,VWS V12.08,2013-03-16 05:13:00,
2013-03-16 01:14:00,42.1,37.3,30.16,West,262,0.0,10.0,83,0.00,,---,0.00,VWS V12.08,2013-03-16 05:14:00,
2013-03-16 01:15:00,42.0,36.9,30.16,West,262,0.0,10.0,82,0.00,,---,0.00,VWS V12.08,2013-03-16 05:15:00,
2013-03-16 01:16:00,41.9,36.8,30.16,West,262,0.0,10.0,82,0.00,,---,0.00,VWS V12.08,2013-03-16 05:16:00,
2013-03-16 01:17:00,41.8,36.7,30.16,West,262,0.0,10.0,82,0.00,,---,0.00,VWS V12.08,2013-03-16 05:17:00,
2013-03-16 01:18:00,42.4,37.6,30.16,West,262,0.0,10.0,83,0.00,,---,0.00,VWS V12.08,2013-03-16 05:18:00,
2013-03-16 01:19:00,41.6,36.5,30.16,West,262,0.0,10.0,82,0.00,,---,0.00,VWS V12.08,2013-03-16 05:19:00,
2013-03-16 01:20:00,41.6,36.5,30.16,West,262,0.0,10.0,82,0.00,,---,0.00,VWS V12.08,2013-03-16 05:20:00,
2013-03-16 01:21:00,41.6,36.5,30.16,West,262,0.0,10.0,82,0.00,,---,0.00,VWS V12.08,2013-03-16 05:21:00,
2013-03-16 01:22:00,41.4,36.3,30.16,West,262,0.0,10.0,82,0.00,,---,0.00,VWS V12.08,2013-03-16 05:22:00,
2013-03-16 01:23:00,42.2,37.4,30.16,West,262,0.0,10.0,83,0.00,,---,0.00,VWS V12.08,2013-03-16 05:23:00,
2013-03-16 01:24:00,41.3,36.5,30.16,West,262,0.0,10.0,83,0.00,,---,0.00,VWS V12.08,2013-03-16 05:24:00,
2013-03-16 01:25:00,41.3,36.5,30.16,West,262,0.0,10.0,83,0.00,,---,0.00,VWS V12.08,2013-03-16 05:25:00,
2013-03-16 01:26:00,41.2,36.4,30.16,West,262,0.0,10.0,83,0.00,,---,0.00,VWS V12.08,2013-03-16 05:26:00,
2013-03-16 01:27:00,41.1,36.3,30.16,West,262,0.0,10.0,83,0.00,,---,0.00,VWS V12.08,2013-03-16 05:27:00,
2013-03-16 01:28:00,41.8,36.7,30.16,West,262,0.0,10.0,82,0.00,,---,0.00,VWS V12.08,2013-03-16 05:28:00,
2013-03-16 01:29:00,41.0,36.2,30.16,West,262,0.0,10.0,83,0.00,,---,0.00,VWS V12.08,2013-03-16 05:29:00,
2013-03-16 01:30:00,41.0,37.7,30.15,West,262,0.0,10.0,88,0.00,,---,0.00,VWS V12.08,2013-03-16 05:30:00,
2013-03-16 01:31:00,40.9,36.1,30.15,West,262,0.0,10.0,83,0.00,,---,0.00,VWS V12.08,2013-03-16 05:31:00,
2013-03-16 01:32:00,40.8,36.0,30.16,West,262,0.0,10.0,83,0.00,,---,0.00,VWS V12.08,2013-03-16 05:32:00,
2013-03-16 01:33:00,40.8,36.0,30.15,West,262,0.0,10.0,83,0.00,,---,0.00,VWS V12.08,2013-03-16 05:33:00,
2013-03-16 01:34:00,41.4,36.6,30.16,West,262,0.0,10.0,83,0.00,,---,0.00,VWS V12.08,2013-03-16 05:34:00,
2013-03-16 01:38:00,40.6,36.2,30.15,West,262,0.0,10.0,84,0.00,,---,0.00,VWS V12.08,2013-03-16 05:38:00,
2013-03-16 01:39:00,41.1,36.3,30.16,West,262,0.0,10.0,83,0.00,,---,0.00,VWS V12.08,2013-03-16 05:39:00,
2013-03-16 01:41:00,40.4,36.0,30.15,West,262,0.0,10.0,84,0.00,,---,0.00,VWS V12.08,2013-03-16 05:41:00,
2013-03-16 01:42:00,40.4,36.0,30.15,West,262,0.0,10.0,84,0.00,,---,0.00,VWS V12.08,2013-03-16 05:42:00,
2013-03-16 01:43:00,40.4,36.0,30.15,West,262,0.0,10.0,84,0.00,,---,0.00,VWS V12.08,2013-03-16 05:43:00,
2013-03-16 01:44:00,40.8,36.0,30.15,West,262,0.0,10.0,83,0.00,,---,0.00,VWS V12.08,2013-03-16 05:44:00,
2013-03-16 01:45:00,40.3,35.9,30.15,West,262,0.0,10.0,84,0.00,,---,0.00,VWS V12.08,2013-03-16 05:45:00,
2013-03-16 01:46:00,40.2,35.8,30.15,West,262,0.0,10.0,84,0.00,,---,0.00,VWS V12.08,2013-03-16 05:46:00,
2013-03-16 01:47:00,40.2,35.8,30.16,West,262,0.0,10.0,84,0.00,,---,0.00,VWS V12.08,2013-03-16 05:47:00,
2013-03-16 01:48:00,40.1,35.7,30.16,West,262,0.0,10.0,84,0.00,,---,0.00,VWS V12.08,2013-03-16 05:48:00,
2013-03-16 01:49:00,40.6,36.2,30.15,West,262,0.0,10.0,84,0.00,,---,0.00,VWS V12.08,2013-03-16 05:49:00,
2013-03-16 01:50:00,40.0,35.6,30.16,West,262,0.0,10.0,84,0.00,,---,0.00,VWS V12.08,2013-03-16 05:50:00,
2013-03-16 01:51:00,40.0,35.6,30.16,West,262,0.0,10.0,84,0.00,,---,0.00,VWS V12.08,2013-03-16 05:51:00,
2013-03-16 01:52:00,39.9,35.5,30.16,West,262,0.0,10.0,84,0.00,,---,0.00,VWS V12.08,2013-03-16 05:52:00,
2013-03-16 01:53:00,39.9,35.8,30.16,West,262,0.0,10.0,85,0.00,,---,0.00,VWS V12.08,2013-03-16 05:53:00,
2013-03-16 01:54:00,40.4,36.0,30.15,West,262,0.0,10.0,84,0.00,,---,0.00,VWS V12.08,2013-03-16 05:54:00,
2013-03-16 01:55:00,39.8,35.7,30.16,West,262,0.0,10.0,85,0.00,,---,0.00,VWS V12.08,2013-03-16 05:55:00,
2013-03-16 01:56:00,39.8,36.0,30.16,West,262,0.0,10.0,86,0.00,,---,0.00,VWS V12.08,2013-03-16 05:56:00,
2013-03-16 01:57:00,39.8,36.0,30.16,West,262,0.0,10.0,86,0.00,,---,0.00,VWS V12.08,2013-03-16 05:57:00,
2013-03-16 01:58:00,39.9,36.3,30.16,West,262,0.0,10.0,87,0.00,,---,0.00,VWS V12.08,2013-03-16 05:58:00,
2013-03-16 01:59:00,40.1,35.7,30.16,West,262,0.0,10.0,84,0.00,,---,0.00,VWS V12.08,2013-03-16 05:59:00,
2013-03-16 02:00:00,40.0,36.5,30.16,West,262,0.0,10.0,87,0.00,,---,0.00,VWS V12.08,2013-03-16 06:00:00,
2013-03-16 02:01:00,40.0,36.5,30.16,West,262,0.0,10.0,87,0.00,,---,0.00,VWS V12.08,2013-03-16 06:01:00,
2013-03-16 02:02:00,40.1,36.5,30.16,West,262,0.0,10.0,87,0.00,,---,0.00,VWS V12.08,2013-03-16 06:02:00,
2013-03-16 02:03:00,40.1,36.5,30.16,West,262,0.0,10.0,87,0.00,,---,0.00,VWS V12.08,2013-03-16 06:03:00,
2013-03-16 02:04:00,40.1,36.5,30.16,West,262,0.0,10.0,87,0.00,,---,0.00,VWS V12.08,2013-03-16 06:04:00,
2013-03-16 02:05:00,39.9,35.8,30.16,West,262,2.0,10.0,85,0.00,,---,0.00,VWS V12.08,2013-03-16 06:05:00,
2013-03-16 02:06:00,40.1,36.5,30.16,West,262,0.0,10.0,87,0.00,,---,0.00,VWS V12.08,2013-03-16 06:06:00,
2013-03-16 02:07:00,40.1,36.5,30.16,West,262,0.0,10.0,87,0.00,,---,0.00,VWS V12.08,2013-03-16 06:07:00,
2013-03-16 02:08:00,40.0,36.2,30.16,West,262,0.0,10.0,86,0.00,,---,0.00,VWS V12.08,2013-03-16 06:08:00,
2013-03-16 02:09:00,40.0,36.2,30.16,West,262,0.0,10.0,86,0.00,,---,0.00,VWS V12.08,2013-03-16 06:09:00,
2013-03-16 02:10:00,39.9,36.3,30.16,West,262,0.0,10.0,87,0.00,,---,0.00,VWS V12.08,2013-03-16 06:10:00,
2013-03-16 02:11:00,39.9,36.1,30.16,West,262,0.0,10.0,86,0.00,,---,0.00,VWS V12.08,2013-03-16 06:11:00,
2013-03-16 02:12:00,39.8,36.0,30.16,West,262,0.0,10.0,86,0.00,,---,0.00,VWS V12.08,2013-03-16 06:12:00,
2013-03-16 02:13:00,39.8,36.0,30.16,West,262,0.0,10.0,86,0.00,,---,0.00,VWS V12.08,2013-03-16 06:13:00,
2013-03-16 02:14:00,39.8,36.0,30.16,West,262,0.0,10.0,86,0.00,,---,0.00,VWS V12.08,2013-03-16 06:14:00,
2013-03-16 02:15:00,40.1,36.5,30.16,West,262,0.0,10.0,87,0.00,,---,0.00,VWS V12.08,2013-03-16 06:15:00,
2013-03-16 02:16:00,39.7,35.9,30.16,West,262,0.0,10.0,86,0.00,,---,0.00,VWS V12.08,2013-03-16 06:16:00,
2013-03-16 02:17:00,39.7,35.9,30.16,West,262,0.0,10.0,86,0.00,,---,0.00,VWS V12.08,2013-03-16 06:17:00,
2013-03-16 02:18:00,39.6,35.8,30.16,West,262,0.0,10.0,86,0.00,,---,0.00,VWS V12.08,2013-03-16 06:18:00,
2013-03-16 02:19:00,39.6,35.8,30.16,West,262,0.0,10.0,86,0.00,,---,0.00,VWS V12.08,2013-03-16 06:19:00,
2013-03-16 02:20:00,40.0,36.2,30.16,West,262,0.0,10.0,86,0.00,,---,0.00,VWS V12.08,2013-03-16 06:20:00,
2013-03-16 02:22:00,39.5,35.7,30.16,West,262,0.0,10.0,86,0.00,,---,0.00,VWS V12.08,2013-03-16 06:22:00,
2013-03-16 02:23:00,39.4,35.6,30.16,West,262,0.0,10.0,86,0.00,,---,0.00,VWS V12.08,2013-03-16 06:23:00,
2013-03-16 02:24:00,39.4,35.9,30.16,West,262,0.0,10.0,87,0.00,,---,0.00,VWS V12.08,2013-03-16 06:24:00,
2013-03-16 02:25:00,39.8,36.0,30.16,West,262,0.0,10.0,86,0.00,,---,0.00,VWS V12.08,2013-03-16 06:25:00,
2013-03-16 02:26:00,39.4,35.9,30.16,West,262,0.0,10.0,87,0.00,,---,0.00,VWS V12.08,2013-03-16 06:26:00,
2013-03-16 02:27:00,39.3,35.8,30.16,West,262,0.0,10.0,87,0.00,,---,0.00,VWS V12.08,2013-03-16 06:27:00,
2013-03-16 02:28:00,39.4,35.9,30.16,West,262,0.0,10.0,87,0.00,,---,0.00,VWS V12.08,2013-03-16 06:28:00,
2013-03-16 02:29:00,39.3,35.8,30.15,West,262,0.0,10.0,87,0.00,,---,0.00,VWS V12.08,2013-03-16 06:29:00,
2013-03-16 02:30:00,39.6,35.8,30.16,West,262,0.0,10.0,86,0.00,,---,0.00,VWS V12.08,2013-03-16 06:30:00,
2013-03-16 02:31:00,39.3,35.8,30.15,West,262,0.0,10.0,87,0.00,,---,0.00,VWS V12.08,2013-03-16 06:31:00,
2013-03-16 02:32:00,39.3,35.8,30.15,West,262,0.0,10.0,87,0.00,,---,0.00,VWS V12.08,2013-03-16 06:32:00,
2013-03-16 02:33:00,39.3,35.8,30.15,West,262,0.0,10.0,87,0.00,,---,0.00,VWS V12.08,2013-03-16 06:33:00,
2013-03-16 02:34:00,39.2,35.7,30.15,West,262,0.0,10.0,87,0.00,,---,0.00,VWS V12.08,2013-03-16 06:34:00,
2013-03-16 02:35:00,39.4,35.9,30.16,West,262,0.0,10.0,87,0.00,,---,0.00,VWS V12.08,2013-03-16 06:35:00,
2013-03-16 02:37:00,39.1,35.6,30.15,West,262,0.0,10.0,87,0.00,,---,0.00,VWS V12.08,2013-03-16 06:37:00,
2013-03-16 02:40:00,38.9,35.4,30.15,West,262,0.0,10.0,87,0.00,,---,0.00,VWS V12.08,2013-03-16 06:40:00,
2013-03-16 02:41:00,39.3,35.8,30.15,West,262,0.0,10.0,87,0.00,,---,0.00,VWS V12.08,2013-03-16 06:41:00,
2013-03-16 02:42:00,38.8,35.3,30.15,West,262,0.0,10.0,87,0.00,,---,0.00,VWS V12.08,2013-03-16 06:42:00,
2013-03-16 02:43:00,38.8,35.3,30.15,West,262,0.0,10.0,87,0.00,,---,0.00,VWS V12.08,2013-03-16 06:43:00,
2013-03-16 02:44:00,38.7,35.2,30.15,West,262,0.0,10.0,87,0.00,,---,0.00,VWS V12.08,2013-03-16 06:44:00,
2013-03-16 02:45:00,38.6,34.8,30.15,West,262,0.0,10.0,86,0.00,,---,0.00,VWS V12.08,2013-03-16 06:45:00,
2013-03-16 02:46:00,39.2,35.7,30.15,West,262,0.0,10.0,87,0.00,,---,0.00,VWS V12.08,2013-03-16 06:46:00,
2013-03-16 02:47:00,38.4,34.6,30.15,West,262,0.0,10.0,86,0.00,,---,0.00,VWS V12.08,2013-03-16 06:47:00,
2013-03-16 02:48:00,38.4,34.6,30.15,West,262,0.0,10.0,86,0.00,,---,0.00,VWS V12.08,2013-03-16 06:48:00,
2013-03-16 02:49:00,38.3,34.8,30.15,West,262,0.0,10.0,87,0.00,,---,0.00,VWS V12.08,2013-03-16 06:49:00,
2013-03-16 02:50:00,38.3,34.8,30.15,West,262,0.0,10.0,87,0.00,,---,0.00,VWS V12.08,2013-03-16 06:50:00,
2013-03-16 02:51:00,38.3,34.8,30.15,West,262,0.0,10.0,87,0.00,,---,0.00,VWS V12.08,2013-03-16 06:51:00,
2013-03-16 02:52:00,38.9,35.4,30.15,West,262,0.0,10.0,87,0.00,,---,0.00,VWS V12.08,2013-03-16 06:52:00,
2013-03-16 02:53:00,38.3,35.1,30.15,West,262,0.0,10.0,88,0.00,,---,0.00,VWS V12.08,2013-03-16 06:53:00,
2013-03-16 02:54:00,38.3,35.1,30.15,West,262,0.0,10.0,88,0.00,,---,0.00,VWS V12.08,2013-03-16 06:54:00,
2013-03-16 02:55:00,38.3,35.1,30.15,West,262,0.0,10.0,88,0.00,,---,0.00,VWS V12.08,2013-03-16 06:55:00,
2013-03-16 02:57:00,38.3,35.1,30.15,West,262,0.0,10.0,88,0.00,,---,0.00,VWS V12.08,2013-03-16 06:57:00,
2013-03-16 02:58:00,38.3,35.1,30.14,West,262,0.0,10.0,88,0.00,,---,0.00,VWS V12.08,2013-03-16 06:58:00,
2013-03-16 02:59:00,38.4,34.6,30.15,West,262,0.0,10.0,86,0.00,,---,0.00,VWS V12.08,2013-03-16 06:59:00,
2013-03-16 03:00:00,38.2,35.0,30.15,West,262,0.0,10.0,88,0.00,,---,0.00,VWS V12.08,2013-03-16 07:00:00,
2013-03-16 03:01:00,38.2,35.0,30.14,West,262,0.0,10.0,88,0.00,,---,0.00,VWS V12.08,2013-03-16 07:01:00,
2013-03-16 03:02:00,38.2,35.0,30.15,West,262,0.0,10.0,88,0.00,,---,0.00,VWS V12.08,2013-03-16 07:02:00,
2013-03-16 03:03:00,38.2,35.0,30.15,West,262,0.0,10.0,88,0.00,,---,0.00,VWS V12.08,2013-03-16 07:03:00,
2013-03-16 03:04:00,38.3,35.1,30.15,West,262,0.0,10.0,88,0.00,,---,0.00,VWS V12.08,2013-03-16 07:04:00,
2013-03-16 03:05:00,38.2,35.0,30.15,West,262,0.0,10.0,88,0.00,,---,0.00,VWS V12.08,2013-03-16 07:05:00,
2013-03-16 03:06:00,38.2,35.0,30.15,West,262,0.0,10.0,88,0.00,,---,0.00,VWS V12.08,2013-03-16 07:06:00,
2013-03-16 03:07:00,38.2,35.0,30.15,West,262,0.0,10.0,88,0.00,,---,0.00,VWS V12.08,2013-03-16 07:07:00,
2013-03-16 03:08:00,38.3,35.3,30.15,West,262,0.0,10.0,89,0.00,,---,0.00,VWS V12.08,2013-03-16 07:08:00,
2013-03-16 03:09:00,38.3,35.1,30.14,West,262,0.0,10.0,88,0.00,,---,0.00,VWS V12.08,2013-03-16 07:09:00,
2013-03-16 03:10:00,38.3,35.3,30.15,West,262,0.0,10.0,89,0.00,,---,0.00,VWS V12.08,2013-03-16 07:10:00,
2013-03-16 03:11:00,38.3,35.3,30.15,West,262,0.0,10.0,89,0.00,,---,0.00,VWS V12.08,2013-03-16 07:11:00,
2013-03-16 03:12:00,38.4,35.5,30.15,West,262,0.0,10.0,89,0.00,,---,0.00,VWS V12.08,2013-03-16 07:12:00,
2013-03-16 03:13:00,38.5,35.8,30.15,West,262,0.0,10.0,90,0.00,,---,0.00,VWS V12.08,2013-03-16 07:13:00,
2013-03-16 03:14:00,38.5,35.8,30.15,West,262,0.0,10.0,90,0.00,,---,0.00,VWS V12.08,2013-03-16 07:14:00,
2013-03-16 03:15:00,38.2,35.0,30.15,West,262,0.0,10.0,88,0.00,,---,0.00,VWS V12.08,2013-03-16 07:15:00,
2013-03-16 03:16:00,38.6,35.6,30.15,West,262,0.0,10.0,89,0.00,,---,0.00,VWS V12.08,2013-03-16 07:16:00,
2013-03-16 03:17:00,38.6,35.6,30.15,West,262,0.0,10.0,89,0.00,,---,0.00,VWS V12.08,2013-03-16 07:17:00,
2013-03-16 03:18:00,38.6,35.6,30.15,West,262,0.0,10.0,89,0.00,,---,0.00,VWS V12.08,2013-03-16 07:18:00,
2013-03-16 03:19:00,38.6,35.6,30.15,West,262,0.0,10.0,89,0.00,,---,0.00,VWS V12.08,2013-03-16 07:19:00,
2013-03-16 03:20:00,38.3,35.3,30.15,West,262,0.0,10.0,89,0.00,,---,0.00,VWS V12.08,2013-03-16 07:20:00,
2013-03-16 03:21:00,38.6,35.6,30.15,West,262,0.0,10.0,89,0.00,,---,0.00,VWS V12.08,2013-03-16 07:21:00,
2013-03-16 03:22:00,38.6,35.6,30.15,West,262,0.0,10.0,89,0.00,,---,0.00,VWS V12.08,2013-03-16 07:22:00,
2013-03-16 03:23:00,38.6,35.6,30.14,West,262,0.0,10.0,89,0.00,,---,0.00,VWS V12.08,2013-03-16 07:23:00,
2013-03-16 03:24:00,38.6,35.6,30.14,West,262,0.0,10.0,89,0.00,,---,0.00,VWS V12.08,2013-03-16 07:24:00,
2013-03-16 03:25:00,38.5,35.8,30.15,West,262,0.0,10.0,90,0.00,,---,0.00,VWS V12.08,2013-03-16 07:25:00,
2013-03-16 03:26:00,38.7,36.0,30.14,West,262,0.0,10.0,90,0.00,,---,0.00,VWS V12.08,2013-03-16 07:26:00,
2013-03-16 03:27:00,38.8,36.1,30.14,West,262,0.0,10.0,90,0.00,,---,0.00,VWS V12.08,2013-03-16 07:27:00,
2013-03-16 03:28:00,38.8,36.1,30.14,West,262,0.0,10.0,90,0.00,,---,0.00,VWS V12.08,2013-03-16 07:28:00,
2013-03-16 03:29:00,38.8,36.1,30.14,West,262,0.0,10.0,90,0.00,,---,0.00,VWS V12.08,2013-03-16 07:29:00,
2013-03-16 03:30:00,38.6,35.6,30.15,West,262,0.0,10.0,89,0.00,,---,0.00,VWS V12.08,2013-03-16 07:30:00,
2013-03-16 03:31:00,38.8,36.1,30.14,West,262,0.0,10.0,90,0.00,,---,0.00,VWS V12.08,2013-03-16 07:31:00,
2013-03-16 03:32:00,38.7,36.0,30.14,West,262,0.0,10.0,90,0.00,,---,0.00,VWS V12.08,2013-03-16 07:32:00,
2013-03-16 03:33:00,38.8,36.1,30.14,West,262,0.0,10.0,90,0.00,,---,0.00,VWS V12.08,2013-03-16 07:33:00,
2013-03-16 03:34:00,38.7,36.0,30.14,West,262,0.0,10.0,90,0.00,,---,0.00,VWS V12.08,2013-03-16 07:34:00,
2013-03-16 03:35:00,38.7,35.7,30.14,West,262,0.0,10.0,89,0.00,,---,0.00,VWS V12.08,2013-03-16 07:35:00,
2013-03-16 03:36:00,38.7,35.7,30.14,West,262,0.0,10.0,89,0.00,,---,0.00,VWS V12.08,2013-03-16 07:36:00,
2013-03-16 03:37:00,38.6,35.6,30.14,West,262,0.0,10.0,89,0.00,,---,0.00,VWS V12.08,2013-03-16 07:37:00,
2013-03-16 03:38:00,38.6,35.6,30.14,West,262,0.0,10.0,89,0.00,,---,0.00,VWS V12.08,2013-03-16 07:38:00,
2013-03-16 03:39:00,38.5,35.5,30.14,West,262,0.0,10.0,89,0.00,,---,0.00,VWS V12.08,2013-03-16 07:39:00,
2013-03-16 03:40:00,38.5,35.5,30.14,West,262,0.0,10.0,89,0.00,,---,0.00,VWS V12.08,2013-03-16 07:40:00,
2013-03-16 03:41:00,38.8,36.1,30.14,West,262,0.0,10.0,90,0.00,,---,0.00,VWS V12.08,2013-03-16 07:41:00,
2013-03-16 03:42:00,38.3,35.3,30.14,West,262,0.0,10.0,89,0.00,,---,0.00,VWS V12.08,2013-03-16 07:42:00,
2013-03-16 03:44:00,38.2,35.0,30.14,West,262,0.0,10.0,88,0.00,,---,0.00,VWS V12.08,2013-03-16 07:44:00,
2013-03-16 03:45:00,38.1,34.9,30.14,West,262,0.0,10.0,88,0.00,,---,0.00,VWS V12.08,2013-03-16 07:45:00,
2013-03-16 03:46:00,38.0,34.8,30.14,West,262,0.0,10.0,88,0.00,,---,0.00,VWS V12.08,2013-03-16 07:46:00,
2013-03-16 03:47:00,38.7,35.7,30.14,West,262,0.0,10.0,89,0.00,,---,0.00,VWS V12.08,2013-03-16 07:47:00,
2013-03-16 03:48:00,37.9,34.7,30.13,West,262,0.0,10.0,88,0.00,,---,0.00,VWS V12.08,2013-03-16 07:48:00,
2013-03-16 03:49:00,37.8,34.6,30.13,West,262,0.0,10.0,88,0.00,,---,0.00,VWS V12.08,2013-03-16 07:49:00,
2013-03-16 03:50:00,37.8,34.6,30.13,West,262,0.0,10.0,88,0.00,,---,0.00,VWS V12.08,2013-03-16 07:50:00,
2013-03-16 03:51:00,37.7,34.5,30.13,West,262,0.0,10.0,88,0.00,,---,0.00,VWS V12.08,2013-03-16 07:51:00,
2013-03-16 03:52:00,38.4,35.5,30.14,West,262,0.0,10.0,89,0.00,,---,0.00,VWS V12.08,2013-03-16 07:52:00,
2013-03-16 03:53:00,37.6,34.7,30.13,West,262,0.0,10.0,89,0.00,,---,0.00,VWS V12.08,2013-03-16 07:53:00,
2013-03-16 03:54:00,37.5,34.6,30.13,West,262,0.0,10.0,89,0.00,,---,0.00,VWS V12.08,2013-03-16 07:54:00,
2013-03-16 03:55:00,37.5,34.6,30.13,West,262,0.0,10.0,89,0.00,,---,0.00,VWS V12.08,2013-03-16 07:55:00,
2013-03-16 03:56:00,37.4,34.5,30.13,West,262,0.0,10.0,89,0.00,,---,0.00,VWS V12.08,2013-03-16 07:56:00,
2013-03-16 03:57:00,38.0,34.8,30.14,West,262,0.0,10.0,88,0.00,,---,0.00,VWS V12.08,2013-03-16 07:57:00,
2013-03-16 03:58:00,37.4,34.5,30.13,West,262,0.0,10.0,89,0.00,,---,0.00,VWS V12.08,2013-03-16 07:58:00,
2013-03-16 03:59:00,37.4,34.5,30.13,West,262,0.0,10.0,89,0.00,,---,0.00,VWS V12.08,2013-03-16 07:59:00,
2013-03-16 04:00:00,37.4,34.5,30.13,West,262,0.0,10.0,89,0.00,,---,0.00,VWS V12.08,2013-03-16 08:00:00,
2013-03-16 04:01:00,37.4,34.5,30.13,West,262,0.0,10.0,89,0.00,,---,0.00,VWS V12.08,2013-03-16 08:01:00,
2013-03-16 04:02:00,37.7,34.5,30.13,West,262,0.0,10.0,88,0.00,,---,0.00,VWS V12.08,2013-03-16 08:02:00,
2013-03-16 04:03:00,37.4,34.5,30.13,West,262,0.0,10.0,89,0.00,,---,0.00,VWS V12.08,2013-03-16 08:03:00,
2013-03-16 04:04:00,37.4,34.5,30.13,West,262,0.0,10.0,89,0.00,,---,0.00,VWS V12.08,2013-03-16 08:04:00,
2013-03-16 04:05:00,37.4,34.7,30.13,West,262,0.0,10.0,90,0.00,,---,0.00,VWS V12.08,2013-03-16 08:05:00,
2013-03-16 04:06:00,37.4,34.7,30.13,West,262,0.0,10.0,90,0.00,,---,0.00,VWS V12.08,2013-03-16 08:06:00,
2013-03-16 04:07:00,37.4,34.5,30.13,West,262,0.0,10.0,89,0.00,,---,0.00,VWS V12.08,2013-03-16 08:07:00,
2013-03-16 04:08:00,37.4,34.7,30.12,West,262,0.0,10.0,90,0.00,,---,0.00,VWS V12.08,2013-03-16 08:08:00,
2013-03-16 04:09:00,37.4,34.7,30.13,West,262,0.0,10.0,90,0.00,,---,0.00,VWS V12.08,2013-03-16 08:09:00,
2013-03-16 04:10:00,37.4,34.7,30.13,West,262,0.0,10.0,90,0.00,,---,0.00,VWS V12.08,2013-03-16 08:10:00,
2013-03-16 04:12:00,37.4,34.5,30.13,West,262,0.0,10.0,89,0.00,,---,0.00,VWS V12.08,2013-03-16 08:12:00,
2013-03-16 04:14:00,37.4,34.7,30.12,West,262,0.0,10.0,90,0.00,,---,0.00,VWS V12.08,2013-03-16 08:14:00,
2013-03-16 04:16:00,37.4,34.7,30.13,West,262,0.0,10.0,90,0.00,,---,0.00,VWS V12.08,2013-03-16 08:16:00,
2013-03-16 04:17:00,37.4,34.7,30.12,West,262,0.0,10.0,90,0.00,,---,0.00,VWS V12.08,2013-03-16 08:17:00,
2013-03-16 04:18:00,37.4,34.7,30.13,West,262,0.0,10.0,90,0.00,,---,0.00,VWS V12.08,2013-03-16 08:18:00,
2013-03-16 04:19:00,37.4,34.7,30.12,West,262,0.0,10.0,90,0.00,,---,0.00,VWS V12.08,2013-03-16 08:19:00,
2013-03-16 04:20:00,37.3,34.6,30.13,West,262,0.0,10.0,90,0.00,,---,0.00,VWS V12.08,2013-03-16 08:20:00,
2013-03-16 04:21:00,37.4,34.7,30.13,West,262,0.0,10.0,90,0.00,,---,0.00,VWS V12.08,2013-03-16 08:21:00,
2013-03-16 04:22:00,37.4,34.7,30.12,West,262,0.0,10.0,90,0.00,,---,0.00,VWS V12.08,2013-03-16 08:22:00,
2013-03-16 04:23:00,37.4,34.7,30.13,West,262,0.0,10.0,90,0.00,,---,0.00,VWS V12.08,2013-03-16 08:23:00,
2013-03-16 04:24:00,37.4,34.7,30.12,West,262,0.0,10.0,90,0.00,,---,0.00,VWS V12.08,2013-03-16 08:24:00,
2013-03-16 04:25:00,37.4,34.7,30.12,West,262,0.0,10.0,90,0.00,,---,0.00,VWS V12.08,2013-03-16 08:25:00,
2013-03-16 04:26:00,37.4,34.7,30.12,West,262,0.0,10.0,90,0.00,,---,0.00,VWS V12.08,2013-03-16 08:26:00,
2013-03-16 04:27:00,37.4,34.7,30.12,West,262,0.0,10.0,90,0.00,,---,0.00,VWS V12.08,2013-03-16 08:27:00,
2013-03-16 04:28:00,37.4,34.7,30.12,West,262,0.0,10.0,90,0.00,,---,0.00,VWS V12.08,2013-03-16 08:28:00,
2013-03-16 04:29:00,37.3,34.6,30.12,West,262,0.0,10.0,90,0.00,,---,0.00,VWS V12.08,2013-03-16 08:29:00,
2013-03-16 04:30:00,37.3,34.6,30.12,West,262,0.0,10.0,90,0.00,,---,0.00,VWS V12.08,2013-03-16 08:30:00,
2013-03-16 04:31:00,37.2,34.5,30.12,West,262,0.0,10.0,90,0.00,,---,0.00,VWS V12.08,2013-03-16 08:31:00,
2013-03-16 04:32:00,37.2,34.5,30.12,West,262,0.0,10.0,90,0.00,,---,0.00,VWS V12.08,2013-03-16 08:32:00,
2013-03-16 04:33:00,37.3,34.6,30.12,West,262,0.0,10.0,90,0.00,,---,0.00,VWS V12.08,2013-03-16 08:33:00,
2013-03-16 04:34:00,37.0,34.1,30.12,West,262,0.0,10.0,89,0.00,,---,0.00,VWS V12.08,2013-03-16 08:34:00,
2013-03-16 04:35:00,36.9,34.0,30.12,West,262,0.0,10.0,89,0.00,,---,0.00,VWS V12.08,2013-03-16 08:35:00,
2013-03-16 04:36:00,36.9,34.0,30.12,West,262,0.0,10.0,89,0.00,,---,0.00,VWS V12.08,2013-03-16 08:36:00,
2013-03-16 04:37:00,36.8,33.9,30.12,West,262,0.0,10.0,89,0.00,,---,0.00,VWS V12.08,2013-03-16 08:37:00,
2013-03-16 04:38:00,37.4,34.7,30.12,West,262,0.0,10.0,90,0.00,,---,0.00,VWS V12.08,2013-03-16 08:38:00,
2013-03-16 04:39:00,36.8,34.2,30.12,West,262,0.0,10.0,90,0.00,,---,0.00,VWS V12.08,2013-03-16 08:39:00,
2013-03-16 04:40:00,36.7,34.0,30.12,West,262,0.0,10.0,90,0.00,,---,0.00,VWS V12.08,2013-03-16 08:40:00,
2013-03-16 04:41:00,36.7,34.0,30.12,West,262,0.0,10.0,90,0.00,,---,0.00,VWS V12.08,2013-03-16 08:41:00,
2013-03-16 04:42:00,36.7,34.0,30.12,West,262,0.0,10.0,90,0.00,,---,0.00,VWS V12.08,2013-03-16 08:42:00,
2013-03-16 04:43:00,37.1,34.4,30.12,West,262,0.0,10.0,90,0.00,,---,0.00,VWS V12.08,2013-03-16 08:43:00,
2013-03-16 04:44:00,36.7,34.0,30.12,West,262,0.0,10.0,90,0.00,,---,0.00,VWS V12.08,2013-03-16 08:44:00,
2013-03-16 04:45:00,36.7,34.0,30.12,West,262,0.0,10.0,90,0.00,,---,0.00,VWS V12.08,2013-03-16 08:45:00,
2013-03-16 04:46:00,36.7,34.0,30.12,West,262,0.0,10.0,90,0.00,,---,0.00,VWS V12.08,2013-03-16 08:46:00,
2013-03-16 04:48:00,36.8,33.9,30.12,West,262,0.0,10.0,89,0.00,,---,0.00,VWS V12.08,2013-03-16 08:48:00,
2013-03-16 04:49:00,36.7,34.0,30.12,West,262,0.0,10.0,90,0.00,,---,0.00,VWS V12.08,2013-03-16 08:49:00,
2013-03-16 04:50:00,36.8,34.2,30.12,West,262,0.0,10.0,90,0.00,,---,0.00,VWS V12.08,2013-03-16 08:50:00,
2013-03-16 04:51:00,36.8,34.4,30.12,West,262,0.0,10.0,91,0.00,,---,0.00,VWS V12.08,2013-03-16 08:51:00,
2013-03-16 04:52:00,36.8,34.4,30.12,West,262,0.0,10.0,91,0.00,,---,0.00,VWS V12.08,2013-03-16 08:52:00,
2013-03-16 04:54:00,36.7,34.0,30.12,West,262,0.0,10.0,90,0.00,,---,0.00,VWS V12.08,2013-03-16 08:54:00,
2013-03-16 04:55:00,36.9,34.5,30.12,West,262,0.0,10.0,91,0.00,,---,0.00,VWS V12.08,2013-03-16 08:55:00,
2013-03-16 04:56:00,36.9,34.5,30.12,West,262,0.0,10.0,91,0.00,,---,0.00,VWS V12.08,2013-03-16 08:56:00,
2013-03-16 04:57:00,37.0,34.6,30.13,West,262,0.0,10.0,91,0.00,,---,0.00,VWS V12.08,2013-03-16 08:57:00,
2013-03-16 04:58:00,37.0,34.6,30.12,West,262,0.0,10.0,91,0.00,,---,0.00,VWS V12.08,2013-03-16 08:58:00,
2013-03-16 04:59:00,36.7,34.0,30.12,West,262,0.0,10.0,90,0.00,,---,0.00,VWS V12.08,2013-03-16 08:59:00,
2013-03-16 05:00:00,37.1,34.7,30.13,West,262,0.0,10.0,91,0.00,,---,0.00,VWS V12.08,2013-03-16 09:00:00,
2013-03-16 05:01:00,37.2,34.8,30.13,West,262,0.0,10.0,91,0.00,,---,0.00,VWS V12.08,2013-03-16 09:01:00,
2013-03-16 05:02:00,37.2,34.8,30.13,West,262,0.0,10.0,91,0.00,,---,0.00,VWS V12.08,2013-03-16 09:02:00,
2013-03-16 05:03:00,37.2,34.8,30.13,West,262,0.0,10.0,91,0.00,,---,0.00,VWS V12.08,2013-03-16 09:03:00,
2013-03-16 05:04:00,36.8,34.4,30.12,West,262,0.0,10.0,91,0.00,,---,0.00,VWS V12.08,2013-03-16 09:04:00,
2013-03-16 05:05:00,37.2,34.8,30.13,West,262,0.0,10.0,91,0.00,,---,0.00,VWS V12.08,2013-03-16 09:05:00,
2013-03-16 05:06:00,37.2,34.8,30.13,West,262,0.0,10.0,91,0.00,,---,0.00,VWS V12.08,2013-03-16 09:06:00,
2013-03-16 05:07:00,37.1,34.7,30.12,West,262,0.0,10.0,91,0.00,,---,0.00,VWS V12.08,2013-03-16 09:07:00,
2013-03-16 05:08:00,37.1,34.7,30.13,West,262,0.0,10.0,91,0.00,,---,0.00,VWS V12.08,2013-03-16 09:08:00,
2013-03-16 05:09:00,37.0,34.6,30.12,West,262,0.0,10.0,91,0.00,,---,0.00,VWS V12.08,2013-03-16 09:09:00,
2013-03-16 05:10:00,37.1,34.7,30.13,West,262,0.0,10.0,91,0.00,,---,0.00,VWS V12.08,2013-03-16 09:10:00,
2013-03-16 05:11:00,37.0,34.6,30.12,West,262,0.0,10.0,91,0.00,,---,0.00,VWS V12.08,2013-03-16 09:11:00,
2013-03-16 05:12:00,37.0,34.6,30.12,West,262,0.0,10.0,91,0.00,,---,0.00,VWS V12.08,2013-03-16 09:12:00,
2013-03-16 05:13:00,36.9,34.5,30.12,West,262,0.0,10.0,91,0.00,,---,0.00,VWS V12.08,2013-03-16 09:13:00,
2013-03-16 05:14:00,37.2,34.8,30.13,West,262,0.0,10.0,91,0.00,,---,0.00,VWS V12.08,2013-03-16 09:14:00,
2013-03-16 05:15:00,36.8,34.2,30.12,West,262,0.0,10.0,90,0.00,,---,0.00,VWS V12.08,2013-03-16 09:15:00,
2013-03-16 05:16:00,36.8,34.2,30.13,West,262,0.0,10.0,90,0.00,,---,0.00,VWS V12.08,2013-03-16 09:16:00,
2013-03-16 05:17:00,36.8,34.2,30.13,West,262,0.0,10.0,90,0.00,,---,0.00,VWS V12.08,2013-03-16 09:17:00,
2013-03-16 05:18:00,36.7,34.0,30.12,West,262,0.0,10.0,90,0.00,,---,0.00,VWS V12.08,2013-03-16 09:18:00,
2013-03-16 05:19:00,37.1,34.7,30.13,West,262,0.0,10.0,91,0.00,,---,0.00,VWS V12.08,2013-03-16 09:19:00,
2013-03-16 05:20:00,36.6,34.0,30.13,West,262,0.0,10.0,90,0.00,,---,0.00,VWS V12.08,2013-03-16 09:20:00,
2013-03-16 05:21:00,36.6,34.0,30.12,West,262,0.0,10.0,90,0.00,,---,0.00,VWS V12.08,2013-03-16 09:21:00,
2013-03-16 05:22:00,36.5,33.8,30.12,West,262,0.0,10.0,90,0.00,,---,0.00,VWS V12.08,2013-03-16 09:22:00,
2013-03-16 05:23:00,36.5,33.8,30.12,West,262,0.0,10.0,90,0.00,,---,0.00,VWS V12.08,2013-03-16 09:23:00,
2013-03-16 05:24:00,36.9,34.5,30.12,West,262,0.0,10.0,91,0.00,,---,0.00,VWS V12.08,2013-03-16 09:24:00,
2013-03-16 05:25:00,36.5,34.1,30.12,West,262,0.0,10.0,91,0.00,,---,0.00,VWS V12.08,2013-03-16 09:25:00,
2013-03-16 05:26:00,36.5,34.1,30.13,West,262,0.0,10.0,91,0.00,,---,0.00,VWS V12.08,2013-03-16 09:26:00,
2013-03-16 05:27:00,36.5,34.1,30.12,West,262,0.0,10.0,91,0.00,,---,0.00,VWS V12.08,2013-03-16 09:27:00,
2013-03-16 05:28:00,36.5,34.1,30.13,West,262,0.0,10.0,91,0.00,,---,0.00,VWS V12.08,2013-03-16 09:28:00,
2013-03-16 05:29:00,36.7,34.0,30.12,West,262,0.0,10.0,90,0.00,,---,0.00,VWS V12.08,2013-03-16 09:29:00,
2013-03-16 05:30:00,36.4,33.8,30.12,West,262,0.0,10.0,90,0.00,,---,0.00,VWS V12.08,2013-03-16 09:30:00,
2013-03-16 05:31:00,36.4,34.0,30.12,West,262,0.0,10.0,91,0.00,,---,0.00,VWS V12.08,2013-03-16 09:31:00,
2013-03-16 05:32:00,36.3,33.9,30.13,West,262,0.0,10.0,91,0.00,,---,0.00,VWS V12.08,2013-03-16 09:32:00,
2013-03-16 05:33:00,36.4,34.0,30.13,West,262,0.0,10.0,91,0.00,,---,0.00,VWS V12.08,2013-03-16 09:33:00,
2013-03-16 05:34:00,36.5,33.8,30.13,West,262,0.0,10.0,90,0.00,,---,0.00,VWS V12.08,2013-03-16 09:34:00,
2013-03-16 05:35:00,36.3,33.9,30.12,West,262,0.0,10.0,91,0.00,,---,0.00,VWS V12.08,2013-03-16 09:35:00,
2013-03-16 05:36:00,36.3,33.9,30.12,West,262,0.0,10.0,91,0.00,,---,0.00,VWS V12.08,2013-03-16 09:36:00,
2013-03-16 05:37:00,36.3,33.9,30.12,West,262,0.0,10.0,91,0.00,,---,0.00,VWS V12.08,2013-03-16 09:37:00,
2013-03-16 05:38:00,36.2,33.8,30.12,West,262,0.0,10.0,91,0.00,,---,0.00,VWS V12.08,2013-03-16 09:38:00,
2013-03-16 05:39:00,36.5,34.1,30.13,West,262,0.0,10.0,91,0.00,,---,0.00,VWS V12.08,2013-03-16 09:39:00,
2013-03-16 05:40:00,36.2,33.8,30.12,West,262,0.0,10.0,91,0.00,,---,0.00,VWS V12.08,2013-03-16 09:40:00,
2013-03-16 05:41:00,36.2,33.8,30.12,West,262,0.0,10.0,91,0.00,,---,0.00,VWS V12.08,2013-03-16 09:41:00,
2013-03-16 05:42:00,36.1,33.7,30.12,West,262,0.0,10.0,91,0.00,,---,0.00,VWS V12.08,2013-03-16 09:42:00,
2013-03-16 05:43:00,36.1,33.7,30.12,West,262,0.0,10.0,91,0.00,,---,0.00,VWS V12.08,2013-03-16 09:43:00,
2013-03-16 05:44:00,36.4,34.0,30.13,West,262,0.0,10.0,91,0.00,,---,0.00,VWS V12.08,2013-03-16 09:44:00,
2013-03-16 05:45:00,36.1,33.7,30.12,West,262,0.0,10.0,91,0.00,,---,0.00,VWS V12.08,2013-03-16 09:45:00,
2013-03-16 05:46:00,36.0,33.6,30.12,West,262,0.0,10.0,91,0.00,,---,0.00,VWS V12.08,2013-03-16 09:46:00,
2013-03-16 05:47:00,36.0,33.6,30.12,West,262,0.0,10.0,91,0.00,,---,0.00,VWS V12.08,2013-03-16 09:47:00,
2013-03-16 05:48:00,36.0,33.6,30.12,West,262,0.0,10.0,91,0.00,,---,0.00,VWS V12.08,2013-03-16 09:48:00,
2013-03-16 05:49:00,36.2,33.8,30.12,West,262,0.0,10.0,91,0.00,,---,0.00,VWS V12.08,2013-03-16 09:49:00,
2013-03-16 05:50:00,35.9,33.5,30.12,West,262,0.0,10.0,91,0.00,,---,0.00,VWS V12.08,2013-03-16 09:50:00,
2013-03-16 05:51:00,35.9,33.5,30.12,West,262,0.0,10.0,91,0.00,,---,0.00,VWS V12.08,2013-03-16 09:51:00,
2013-03-16 05:52:00,35.9,33.5,30.12,West,262,0.0,10.0,91,0.00,,---,0.00,VWS V12.08,2013-03-16 09:52:00,
2013-03-16 05:53:00,35.9,33.5,30.12,West,262,0.0,10.0,91,0.00,,---,0.00,VWS V12.08,2013-03-16 09:53:00,
2013-03-16 05:54:00,35.8,33.4,30.12,West,262,0.0,10.0,91,0.00,,---,0.00,VWS V12.08,2013-03-16 09:54:00,
2013-03-16 05:55:00,35.8,33.4,30.12,West,262,0.0,10.0,91,0.00,,---,0.00,VWS V12.08,2013-03-16 09:55:00,
2013-03-16 05:56:00,35.8,33.4,30.12,West,262,0.0,10.0,91,0.00,,---,0.00,VWS V12.08,2013-03-16 09:56:00,
2013-03-16 05:57:00,36.0,33.6,30.12,West,262,0.0,10.0,91,0.00,,---,0.00,VWS V12.08,2013-03-16 09:57:00,
2013-03-16 05:58:00,35.7,33.3,30.12,West,262,0.0,10.0,91,0.00,,---,0.00,VWS V12.08,2013-03-16 09:58:00,
2013-03-16 05:59:00,35.7,33.3,30.12,West,262,0.0,10.0,91,0.00,,---,0.00,VWS V12.08,2013-03-16 09:59:00,
2013-03-16 06:00:00,35.7,33.3,30.12,West,262,0.0,10.0,91,0.00,,---,0.00,VWS V12.08,2013-03-16 10:00:00,
2013-03-16 06:01:00,35.7,33.3,30.12,West,262,0.0,10.0,91,0.00,,---,0.00,VWS V12.08,2013-03-16 10:01:00,
2013-03-16 06:02:00,35.9,33.5,30.12,West,262,0.0,10.0,91,0.00,,---,0.00,VWS V12.08,2013-03-16 10:02:00,
2013-03-16 06:03:00,35.7,33.3,30.13,West,262,0.0,10.0,91,0.00,,---,0.00,VWS V12.08,2013-03-16 10:03:00,
2013-03-16 06:04:00,35.7,33.3,30.12,West,262,0.0,10.0,91,0.00,,---,0.00,VWS V12.08,2013-03-16 10:04:00,
2013-03-16 06:05:00,35.7,33.3,30.12,West,262,0.0,10.0,91,0.00,,---,0.00,VWS V12.08,2013-03-16 10:05:00,
2013-03-16 06:06:00,35.7,33.3,30.12,West,262,0.0,10.0,91,0.00,,---,0.00,VWS V12.08,2013-03-16 10:06:00,
2013-03-16 06:07:00,35.7,33.3,30.13,West,262,0.0,10.0,91,0.00,,---,0.00,VWS V12.08,2013-03-16 10:07:00,
2013-03-16 06:08:00,35.8,33.4,30.12,West,262,0.0,10.0,91,0.00,,---,0.00,VWS V12.08,2013-03-16 10:08:00,
2013-03-16 06:09:00,35.7,33.3,30.13,West,262,0.0,10.0,91,0.00,,---,0.00,VWS V12.08,2013-03-16 10:09:00,
2013-03-16 06:10:00,35.8,33.4,30.13,West,262,0.0,10.0,91,0.00,,---,0.00,VWS V12.08,2013-03-16 10:10:00,
2013-03-16 06:11:00,35.8,33.4,30.13,West,262,0.0,10.0,91,0.00,,---,0.00,VWS V12.08,2013-03-16 10:11:00,
2013-03-16 06:12:00,35.8,33.4,30.13,West,262,0.0,10.0,91,0.00,,---,0.00,VWS V12.08,2013-03-16 10:12:00,
2013-03-16 06:13:00,35.7,33.3,30.12,West,262,0.0,10.0,91,0.00,,---,0.00,VWS V12.08,2013-03-16 10:13:00,
2013-03-16 06:14:00,35.7,33.3,30.13,West,262,0.0,10.0,91,0.00,,---,0.00,VWS V12.08,2013-03-16 10:14:00,
2013-03-16 06:15:00,35.7,33.3,30.13,West,262,0.0,10.0,91,0.00,,---,0.00,VWS V12.08,2013-03-16 10:15:00,
2013-03-16 06:16:00,35.7,33.3,30.13,West,262,0.0,10.0,91,0.00,,---,0.00,VWS V12.08,2013-03-16 10:16:00,
2013-03-16 06:17:00,35.7,33.3,30.13,West,262,0.0,10.0,91,0.00,,---,0.00,VWS V12.08,2013-03-16 10:17:00,
2013-03-16 06:18:00,35.7,33.3,30.13,West,262,0.0,10.0,91,0.00,,---,0.00,VWS V12.08,2013-03-16 10:18:00,
2013-03-16 06:19:00,35.6,33.2,30.13,West,262,0.0,10.0,91,0.00,,---,0.00,VWS V12.08,2013-03-16 10:19:00,
2013-03-16 06:20:00,35.6,33.2,30.13,West,262,0.0,10.0,91,0.00,,---,0.00,VWS V12.08,2013-03-16 10:20:00,
2013-03-16 06:21:00,35.6,33.2,30.13,West,262,0.0,10.0,91,0.00,,---,0.00,VWS V12.08,2013-03-16 10:21:00,
2013-03-16 06:22:00,35.6,33.2,30.13,West,262,0.0,10.0,91,0.00,,---,0.00,VWS V12.08,2013-03-16 10:22:00,
2013-03-16 06:23:00,35.7,33.3,30.13,West,262,0.0,10.0,91,0.00,,---,0.00,VWS V12.08,2013-03-16 10:23:00,
2013-03-16 06:24:00,35.5,33.1,30.13,West,262,0.0,10.0,91,0.00,,---,0.00,VWS V12.08,2013-03-16 10:24:00,
2013-03-16 06:25:00,35.5,33.1,30.13,West,262,0.0,10.0,91,0.00,,---,0.00,VWS V12.08,2013-03-16 10:25:00,
2013-03-16 06:26:00,35.5,33.1,30.13,West,262,0.0,10.0,91,0.00,,---,0.00,VWS V12.08,2013-03-16 10:26:00,
2013-03-16 06:27:00,35.4,33.0,30.13,West,262,0.0,10.0,91,0.00,,---,0.00,VWS V12.08,2013-03-16 10:27:00,
2013-03-16 06:28:00,35.3,32.9,30.13,West,262,0.0,10.0,91,0.00,,---,0.00,VWS V12.08,2013-03-16 10:28:00,
2013-03-16 06:29:00,35.3,32.9,30.13,West,262,0.0,10.0,91,0.00,,---,0.00,VWS V12.08,2013-03-16 10:29:00,
2013-03-16 06:30:00,35.3,32.9,30.13,West,262,0.0,10.0,91,0.00,,---,0.00,VWS V12.08,2013-03-16 10:30:00,
2013-03-16 06:31:00,35.2,32.8,30.13,West,262,0.0,10.0,91,0.00,,---,0.00,VWS V12.08,2013-03-16 10:31:00,
2013-03-16 06:32:00,35.2,32.8,30.13,West,262,0.0,10.0,91,0.00,,---,0.00,VWS V12.08,2013-03-16 10:32:00,
2013-03-16 06:33:00,35.5,33.1,30.13,West,262,0.0,10.0,91,0.00,,---,0.00,VWS V12.08,2013-03-16 10:33:00,
2013-03-16 06:34:00,35.1,32.7,30.13,West,262,0.0,10.0,91,0.00,,---,0.00,VWS V12.08,2013-03-16 10:34:00,
2013-03-16 06:35:00,35.0,32.6,30.13,West,262,0.0,10.0,91,0.00,,---,0.00,VWS V12.08,2013-03-16 10:35:00,
2013-03-16 06:36:00,35.0,32.6,30.13,West,262,0.0,10.0,91,0.00,,---,0.00,VWS V12.08,2013-03-16 10:36:00,
2013-03-16 06:37:00,35.0,32.6,30.13,West,262,0.0,10.0,91,0.00,,---,0.00,VWS V12.08,2013-03-16 10:37:00,
2013-03-16 06:38:00,35.4,33.0,30.13,West,262,0.0,10.0,91,0.00,,---,0.00,VWS V12.08,2013-03-16 10:38:00,
2013-03-16 06:39:00,35.0,32.6,30.13,West,262,0.0,10.0,91,0.00,,---,0.00,VWS V12.08,2013-03-16 10:39:00,
2013-03-16 06:40:00,35.0,32.6,30.13,West,262,0.0,10.0,91,0.00,,---,0.00,VWS V12.08,2013-03-16 10:40:00,
2013-03-16 06:42:00,35.0,32.6,30.13,West,262,0.0,10.0,91,0.00,,---,0.00,VWS V12.08,2013-03-16 10:42:00,
2013-03-16 06:43:00,35.2,32.8,30.13,West,262,0.0,10.0,91,0.00,,---,0.00,VWS V12.08,2013-03-16 10:43:00,
2013-03-16 06:44:00,35.0,32.6,30.13,West,262,0.0,10.0,91,0.00,,---,0.00,VWS V12.08,2013-03-16 10:44:00,
2013-03-16 06:45:00,35.0,32.6,30.13,West,262,0.0,10.0,91,0.00,,---,0.00,VWS V12.08,2013-03-16 10:45:00,
2013-03-16 06:46:00,35.0,32.6,30.13,West,262,0.0,10.0,91,0.00,,---,0.00,VWS V12.08,2013-03-16 10:46:00,
2013-03-16 06:47:00,34.9,32.5,30.13,West,262,0.0,10.0,91,0.00,,---,0.00,VWS V12.08,2013-03-16 10:47:00,
2013-03-16 06:48:00,34.9,32.5,30.14,West,262,0.0,10.0,91,0.00,,---,0.00,VWS V12.08,2013-03-16 10:48:00,
2013-03-16 06:49:00,35.0,32.6,30.13,West,262,0.0,10.0,91,0.00,,---,0.00,VWS V12.08,2013-03-16 10:49:00,
2013-03-16 06:50:00,34.9,32.5,30.13,West,262,0.0,10.0,91,0.00,,---,0.00,VWS V12.08,2013-03-16 10:50:00,
2013-03-16 06:51:00,34.9,32.5,30.13,West,262,0.0,10.0,91,0.00,,---,0.00,VWS V12.08,2013-03-16 10:51:00,
2013-03-16 06:52:00,34.9,32.5,30.13,West,262,0.0,10.0,91,0.00,,---,0.00,VWS V12.08,2013-03-16 10:52:00,
2013-03-16 06:53:00,34.8,32.5,30.13,West,262,0.0,10.0,91,0.00,,---,0.00,VWS V12.08,2013-03-16 10:53:00,
2013-03-16 06:54:00,35.0,32.6,30.13,West,262,0.0,10.0,91,0.00,,---,0.00,VWS V12.08,2013-03-16 10:54:00,
2013-03-16 06:55:00,34.8,32.5,30.14,West,262,0.0,10.0,91,0.00,,---,0.00,VWS V12.08,2013-03-16 10:55:00,
2013-03-16 06:56:00,34.8,32.5,30.13,West,262,0.0,10.0,91,0.00,,---,0.00,VWS V12.08,2013-03-16 10:56:00,
2013-03-16 06:57:00,34.8,32.5,30.13,West,262,0.0,10.0,91,0.00,,---,0.00,VWS V12.08,2013-03-16 10:57:00,
2013-03-16 06:58:00,34.8,32.5,30.13,West,262,0.0,10.0,91,0.00,,---,0.00,VWS V12.08,2013-03-16 10:58:00,
2013-03-16 06:59:00,34.9,32.5,30.14,West,262,0.0,10.0,91,0.00,,---,0.00,VWS V12.08,2013-03-16 10:59:00,
2013-03-16 07:00:00,34.8,32.5,30.14,West,262,0.0,10.0,91,0.00,,---,0.00,VWS V12.08,2013-03-16 11:00:00,
2013-03-16 07:01:00,34.8,32.5,30.14,West,262,0.0,10.0,91,0.00,,---,0.00,VWS V12.08,2013-03-16 11:01:00,
2013-03-16 07:02:00,34.8,32.5,30.14,West,262,0.0,10.0,91,0.00,,---,0.00,VWS V12.08,2013-03-16 11:02:00,
2013-03-16 07:03:00,34.7,32.3,30.14,West,262,0.0,10.0,91,0.00,,---,0.00,VWS V12.08,2013-03-16 11:03:00,
2013-03-16 07:04:00,34.8,32.5,30.13,West,262,0.0,10.0,91,0.00,,---,0.00,VWS V12.08,2013-03-16 11:04:00,
2013-03-16 07:05:00,34.7,32.3,30.14,West,262,0.0,10.0,91,0.00,,---,0.00,VWS V12.08,2013-03-16 11:05:00,
2013-03-16 07:06:00,34.7,32.3,30.14,West,262,0.0,10.0,91,0.00,,---,0.00,VWS V12.08,2013-03-16 11:06:00,
2013-03-16 07:07:00,34.6,32.2,30.14,West,262,0.0,10.0,91,0.00,,---,0.00,VWS V12.08,2013-03-16 11:07:00,
2013-03-16 07:08:00,34.6,32.2,30.14,West,262,0.0,10.0,91,0.00,,---,0.00,VWS V12.08,2013-03-16 11:08:00,
2013-03-16 07:09:00,34.6,32.2,30.14,West,262,0.0,10.0,91,0.00,,---,0.00,VWS V12.08,2013-03-16 11:09:00,
2013-03-16 07:10:00,34.8,32.5,30.14,West,262,0.0,10.0,91,0.00,,---,0.00,VWS V12.08,2013-03-16 11:10:00,
2013-03-16 07:11:00,34.5,32.2,30.14,West,262,0.0,10.0,91,0.00,,---,0.00,VWS V12.08,2013-03-16 11:11:00,
2013-03-16 07:12:00,34.5,32.2,30.14,West,262,0.0,10.0,91,0.00,,---,0.00,VWS V12.08,2013-03-16 11:12:00,
2013-03-16 07:13:00,34.5,32.2,30.14,West,262,0.0,10.0,91,0.00,,---,0.00,VWS V12.08,2013-03-16 11:13:00,
2013-03-16 07:14:00,34.5,32.2,30.14,West,262,0.0,10.0,91,0.00,,---,0.00,VWS V12.08,2013-03-16 11:14:00,
2013-03-16 07:15:00,34.7,32.3,30.14,West,262,0.0,10.0,91,0.00,,---,0.00,VWS V12.08,2013-03-16 11:15:00,
2013-03-16 07:16:00,34.5,32.2,30.14,West,262,0.0,10.0,91,0.00,,---,0.00,VWS V12.08,2013-03-16 11:16:00,
2013-03-16 07:17:00,34.5,32.2,30.14,West,262,0.0,10.0,91,0.00,,---,0.00,VWS V12.08,2013-03-16 11:17:00,
2013-03-16 07:18:00,34.5,32.4,30.14,West,262,0.0,10.0,92,0.00,,---,0.00,VWS V12.08,2013-03-16 11:18:00,
2013-03-16 07:19:00,34.6,32.5,30.14,West,262,0.0,10.0,92,0.00,,---,0.00,VWS V12.08,2013-03-16 11:19:00,
2013-03-16 07:20:00,34.6,32.2,30.14,West,262,0.0,10.0,91,0.00,,---,0.00,VWS V12.08,2013-03-16 11:20:00,
2013-03-16 07:21:00,34.7,32.6,30.14,West,262,0.0,10.0,92,0.00,,---,0.00,VWS V12.08,2013-03-16 11:21:00,
2013-03-16 07:22:00,34.8,32.7,30.14,West,262,0.0,10.0,92,0.00,,---,0.00,VWS V12.08,2013-03-16 11:22:00,
2013-03-16 07:23:00,35.0,32.9,30.14,West,262,0.0,10.0,92,0.00,,---,0.00,VWS V12.08,2013-03-16 11:23:00,
2013-03-16 07:24:00,35.1,33.0,30.14,West,262,0.0,10.0,92,0.00,,---,0.00,VWS V12.08,2013-03-16 11:24:00,
2013-03-16 07:25:00,34.5,32.2,30.14,West,262,0.0,10.0,91,0.00,,---,0.00,VWS V12.08,2013-03-16 11:25:00,
2013-03-16 07:26:00,35.2,33.4,30.14,West,262,0.0,10.0,93,0.00,,---,0.00,VWS V12.08,2013-03-16 11:26:00,
2013-03-16 07:27:00,35.3,33.5,30.14,West,262,0.0,10.0,93,0.00,,---,0.00,VWS V12.08,2013-03-16 11:27:00,
2013-03-16 07:28:00,35.4,33.6,30.14,West,262,0.0,10.0,93,0.00,,---,0.00,VWS V12.08,2013-03-16 11:28:00,
2013-03-16 07:29:00,35.4,33.6,30.14,West,262,0.0,10.0,93,0.00,,---,0.00,VWS V12.08,2013-03-16 11:29:00,
2013-03-16 07:30:00,35.5,33.7,30.15,West,262,0.0,10.0,93,0.00,,---,0.00,VWS V12.08,2013-03-16 11:30:00,
2013-03-16 07:31:00,34.6,32.5,30.14,West,262,0.0,10.0,92,0.00,,---,0.00,VWS V12.08,2013-03-16 11:31:00,
2013-03-16 07:32:00,35.6,33.8,30.14,West,262,0.0,10.0,93,0.00,,---,0.00,VWS V12.08,2013-03-16 11:32:00,
2013-03-16 07:33:00,35.7,33.9,30.15,West,262,0.0,10.0,93,0.00,,---,0.00,VWS V12.08,2013-03-16 11:33:00,
2013-03-16 07:34:00,35.7,33.9,30.15,West,262,0.0,10.0,93,0.00,,---,0.00,VWS V12.08,2013-03-16 11:34:00,
2013-03-16 07:35:00,35.8,34.0,30.14,West,262,0.0,10.0,93,0.00,,---,0.00,VWS V12.08,2013-03-16 11:35:00,
2013-03-16 07:36:00,35.1,33.0,30.14,West,262,0.0,10.0,92,0.00,,---,0.00,VWS V12.08,2013-03-16 11:36:00,
2013-03-16 07:37:00,35.8,33.7,30.14,West,262,0.0,10.0,92,0.00,,---,0.00,VWS V12.08,2013-03-16 11:37:00,
2013-03-16 07:39:00,35.9,33.8,30.14,West,262,0.0,10.0,92,0.00,,---,0.00,VWS V12.08,2013-03-16 11:39:00,
2013-03-16 07:40:00,35.9,33.8,30.15,West,262,0.0,10.0,92,0.00,,---,0.00,VWS V12.08,2013-03-16 11:40:00,
2013-03-16 07:41:00,35.5,33.7,30.15,West,262,0.0,10.0,93,0.00,,---,0.00,VWS V12.08,2013-03-16 11:41:00,
2013-03-16 07:42:00,36.0,33.9,30.15,West,262,0.0,10.0,92,0.00,,---,0.00,VWS V12.08,2013-03-16 11:42:00,
2013-03-16 07:43:00,36.0,33.9,30.14,West,262,0.0,10.0,92,0.00,,---,0.00,VWS V12.08,2013-03-16 11:43:00,
2013-03-16 07:44:00,36.0,33.9,30.14,West,262,0.0,10.0,92,0.00,,---,0.00,VWS V12.08,2013-03-16 11:44:00,
2013-03-16 07:45:00,36.0,33.9,30.15,West,262,0.0,10.0,92,0.00,,---,0.00,VWS V12.08,2013-03-16 11:45:00,
2013-03-16 07:46:00,35.7,33.9,30.14,West,262,0.0,10.0,93,0.00,,---,0.00,VWS V12.08,2013-03-16 11:46:00,
2013-03-16 07:47:00,36.0,33.9,30.15,West,262,0.0,10.0,92,0.00,,---,0.00,VWS V12.08,2013-03-16 11:47:00,
2013-03-16 07:48:00,36.0,33.9,30.15,West,262,0.0,10.0,92,0.00,,---,0.00,VWS V12.08,2013-03-16 11:48:00,
2013-03-16 07:49:00,36.0,33.9,30.15,West,262,0.0,10.0,92,0.00,,---,0.00,VWS V12.08,2013-03-16 11:49:00,
2013-03-16 07:50:00,36.0,33.9,30.15,West,262,0.0,10.0,92,0.00,,---,0.00,VWS V12.08,2013-03-16 11:50:00,
2013-03-16 07:51:00,35.9,33.8,30.15,West,262,0.0,10.0,92,0.00,,---,0.00,VWS V12.08,2013-03-16 11:51:00,
2013-03-16 07:52:00,36.1,34.0,30.15,West,262,0.0,10.0,92,0.00,,---,0.00,VWS V12.08,2013-03-16 11:52:00,
2013-03-16 07:53:00,36.1,34.0,30.15,West,262,0.0,10.0,92,0.00,,---,0.00,VWS V12.08,2013-03-16 11:53:00,
2013-03-16 07:54:00,36.1,34.0,30.15,West,262,0.0,10.0,92,0.00,,---,0.00,VWS V12.08,2013-03-16 11:54:00,
2013-03-16 07:55:00,36.1,34.0,30.15,West,262,0.0,10.0,92,0.00,,---,0.00,VWS V12.08,2013-03-16 11:55:00,
2013-03-16 07:56:00,36.2,34.1,30.15,West,262,0.0,10.0,92,0.00,,---,0.00,VWS V12.08,2013-03-16 11:56:00,
2013-03-16 07:57:00,36.2,34.1,30.15,West,262,0.0,10.0,92,0.00,,---,0.00,VWS V12.08,2013-03-16 11:57:00,
2013-03-16 07:58:00,36.0,33.9,30.15,West,262,0.0,10.0,92,0.00,,---,0.00,VWS V12.08,2013-03-16 11:58:00,
2013-03-16 07:59:00,36.3,34.2,30.15,West,262,0.0,10.0,92,0.00,,---,0.00,VWS V12.08,2013-03-16 11:59:00,
2013-03-16 08:00:00,36.5,34.4,30.15,West,262,0.0,10.0,92,0.00,,---,0.00,VWS V12.08,2013-03-16 12:00:00,
2013-03-16 08:01:00,36.5,34.4,30.15,West,262,0.0,10.0,92,0.00,,---,0.00,VWS V12.08,2013-03-16 12:01:00,
2013-03-16 08:02:00,36.7,34.9,30.16,West,262,0.0,10.0,93,0.00,,---,0.00,VWS V12.08,2013-03-16 12:02:00,
2013-03-16 08:03:00,36.1,34.0,30.15,West,262,0.0,10.0,92,0.00,,---,0.00,VWS V12.08,2013-03-16 12:03:00,
2013-03-16 08:04:00,36.8,35.0,30.16,West,262,0.0,10.0,93,0.00,,---,0.00,VWS V12.08,2013-03-16 12:04:00,
2013-03-16 08:05:00,37.0,35.2,30.16,WNW,284,0.0,10.0,93,0.00,,---,0.00,VWS V12.08,2013-03-16 12:05:00,
2013-03-16 08:06:00,37.2,35.4,30.16,WNW,284,0.0,10.0,93,0.00,,---,0.00,VWS V12.08,2013-03-16 12:06:00,
2013-03-16 08:07:00,37.4,35.6,30.16,WNW,284,0.0,10.0,93,0.00,,---,0.00,VWS V12.08,2013-03-16 12:07:00,
2013-03-16 08:08:00,36.2,34.1,30.15,West,262,0.0,10.0,92,0.00,,---,0.00,VWS V12.08,2013-03-16 12:08:00,
2013-03-16 08:09:00,37.8,36.2,30.16,WNW,284,0.0,10.0,94,0.00,,---,0.00,VWS V12.08,2013-03-16 12:09:00,
2013-03-16 08:10:00,38.1,36.5,30.16,WNW,284,0.0,10.0,94,0.00,,---,0.00,VWS V12.08,2013-03-16 12:10:00,
2013-03-16 08:11:00,38.2,36.6,30.16,WNW,284,0.0,10.0,94,0.00,,---,0.00,VWS V12.08,2013-03-16 12:11:00,
2013-03-16 08:12:00,38.4,36.8,30.16,WNW,284,0.0,10.0,94,0.00,,---,0.00,VWS V12.08,2013-03-16 12:12:00,
2013-03-16 08:13:00,36.6,34.5,30.15,West,262,0.0,10.0,92,0.00,,---,0.00,VWS V12.08,2013-03-16 12:13:00,
2013-03-16 08:14:00,38.8,37.2,30.16,WNW,284,0.0,10.0,94,0.00,,---,0.00,VWS V12.08,2013-03-16 12:14:00,
2013-03-16 08:15:00,38.9,37.3,30.15,WNW,284,0.0,10.0,94,0.00,,---,0.00,VWS V12.08,2013-03-16 12:15:00,
2013-03-16 08:16:00,38.9,37.3,30.15,WNW,284,0.0,10.0,94,0.00,,---,0.00,VWS V12.08,2013-03-16 12:16:00,
2013-03-16 08:17:00,39.1,37.5,30.16,WNW,284,0.0,10.0,94,0.00,,---,0.00,VWS V12.08,2013-03-16 12:17:00,
2013-03-16 08:18:00,37.4,35.6,30.16,WNW,284,0.0,10.0,93,0.00,,---,0.00,VWS V12.08,2013-03-16 12:18:00,
2013-03-16 08:19:00,39.4,37.8,30.16,WNW,284,0.0,10.0,94,0.00,,---,0.00,VWS V12.08,2013-03-16 12:19:00,
2013-03-16 08:20:00,39.5,37.9,30.16,WNW,284,0.0,10.0,94,0.00,,---,0.00,VWS V12.08,2013-03-16 12:20:00,
2013-03-16 08:21:00,39.8,38.2,30.16,WNW,284,0.0,10.0,94,0.00,,---,0.00,VWS V12.08,2013-03-16 12:21:00,
2013-03-16 08:22:00,40.0,38.4,30.16,WNW,284,0.0,10.0,94,0.00,,---,0.00,VWS V12.08,2013-03-16 12:22:00,
2013-03-16 08:23:00,38.4,36.8,30.16,WNW,284,0.0,10.0,94,0.00,,---,0.00,VWS V12.08,2013-03-16 12:23:00,
2013-03-16 08:24:00,40.7,39.1,30.15,WNW,284,0.0,10.0,94,0.00,,---,0.00,VWS V12.08,2013-03-16 12:24:00,
2013-03-16 08:25:00,41.1,39.8,30.16,WNW,284,0.0,10.0,95,0.00,,---,0.00,VWS V12.08,2013-03-16 12:25:00,
2013-03-16 08:26:00,41.4,40.1,30.16,WNW,284,0.0,10.0,95,0.00,,---,0.00,VWS V12.08,2013-03-16 12:26:00,
2013-03-16 08:27:00,41.8,40.5,30.16,WNW,284,0.0,10.0,95,0.00,,---,0.00,VWS V12.08,2013-03-16 12:27:00,
2013-03-16 08:28:00,42.0,40.7,30.16,WNW,284,0.0,10.0,95,0.00,,---,0.00,VWS V12.08,2013-03-16 12:28:00,
2013-03-16 08:29:00,39.1,37.5,30.16,WNW,284,0.0,10.0,94,0.00,,---,0.00,VWS V12.08,2013-03-16 12:29:00,
2013-03-16 08:30:00,42.5,41.2,30.16,WNW,284,0.0,10.0,95,0.00,,---,0.00,VWS V12.08,2013-03-16 12:30:00,
2013-03-16 08:31:00,42.8,41.5,30.16,WNW,284,0.0,10.0,95,0.00,,---,0.00,VWS V12.08,2013-03-16 12:31:00,
2013-03-16 08:32:00,42.9,41.6,30.16,WNW,284,0.0,10.0,95,0.00,,---,0.00,VWS V12.08,2013-03-16 12:32:00,
2013-03-16 08:33:00,43.2,41.9,30.16,WNW,284,0.0,10.0,95,0.00,,---,0.00,VWS V12.08,2013-03-16 12:33:00,
2013-03-16 08:34:00,43.5,42.2,30.16,WNW,284,0.0,10.0,95,0.00,,---,0.00,VWS V12.08,2013-03-16 12:34:00,
2013-03-16 08:35:00,43.7,42.4,30.16,WNW,284,0.0,10.0,95,0.00,,---,0.00,VWS V12.08,2013-03-16 12:35:00,
2013-03-16 08:36:00,43.9,42.6,30.16,WNW,284,0.0,10.0,95,0.00,,---,0.00,VWS V12.08,2013-03-16 12:36:00,
2013-03-16 08:37:00,44.2,42.9,30.16,WNW,284,0.0,10.0,95,0.00,,---,0.00,VWS V12.08,2013-03-16 12:37:00,
2013-03-16 08:38:00,44.5,43.2,30.16,WNW,284,0.0,10.0,95,0.00,,---,0.00,VWS V12.08,2013-03-16 12:38:00,
2013-03-16 08:39:00,44.9,43.6,30.16,WNW,284,0.0,10.0,95,0.00,,---,0.00,VWS V12.08,2013-03-16 12:39:00,
2013-03-16 08:40:00,45.4,44.0,30.16,WNW,284,0.0,10.0,95,0.00,,---,0.00,VWS V12.08,2013-03-16 12:40:00,
2013-03-16 08:41:00,46.0,44.9,30.16,WNW,284,0.0,10.0,96,0.00,,---,0.00,VWS V12.08,2013-03-16 12:41:00,
2013-03-16 08:42:00,42.6,41.3,30.16,WNW,284,0.0,10.0,95,0.00,,---,0.00,VWS V12.08,2013-03-16 12:42:00,
2013-03-16 08:43:00,47.4,46.3,30.16,West,272,2.0,10.0,96,0.00,,---,0.00,VWS V12.08,2013-03-16 12:43:00,
2013-03-16 08:44:00,48.1,47.0,30.16,West,267,2.0,10.0,96,0.00,,---,0.00,VWS V12.08,2013-03-16 12:44:00,
2013-03-16 08:45:00,48.7,47.6,30.16,West,261,3.0,10.0,96,0.00,,---,0.00,VWS V12.08,2013-03-16 12:45:00,
2013-03-16 08:46:00,49.2,48.1,30.16,West,261,3.0,10.0,96,0.00,,---,0.00,VWS V12.08,2013-03-16 12:46:00,
2013-03-16 08:47:00,43.8,42.5,30.16,WNW,284,0.0,10.0,95,0.00,,---,0.00,VWS V12.08,2013-03-16 12:47:00,
2013-03-16 08:48:00,50.2,49.1,30.16,West,259,4.0,10.0,96,0.00,,---,0.00,VWS V12.08,2013-03-16 12:48:00,
2013-03-16 08:49:00,50.7,49.6,30.16,WSW,256,3.0,10.0,96,0.00,,---,0.00,VWS V12.08,2013-03-16 12:49:00,
2013-03-16 08:50:00,51.0,49.9,30.16,WSW,245,6.0,10.0,96,0.00,,---,0.00,VWS V12.08,2013-03-16 12:50:00,
2013-03-16 08:51:00,51.3,50.2,30.16,WSW,244,4.0,10.0,96,0.00,,---,0.00,VWS V12.08,2013-03-16 12:51:00,
2013-03-16 08:52:00,51.6,50.5,30.16,WSW,244,1.0,10.0,96,0.00,,---,0.00,VWS V12.08,2013-03-16 12:52:00,
2013-03-16 08:53:00,51.9,50.8,30.16,WSW,243,3.0,10.0,96,0.00,,---,0.00,VWS V12.08,2013-03-16 12:53:00,
2013-03-16 08:54:00,52.2,51.1,30.16,WSW,243,2.0,10.0,96,0.00,,---,0.00,VWS V12.08,2013-03-16 12:54:00,
2013-03-16 08:55:00,52.5,51.1,30.16,SW,236,2.0,10.0,95,0.00,,---,0.00,VWS V12.08,2013-03-16 12:55:00,
2013-03-16 08:56:00,52.7,51.3,30.16,SW,232,2.0,10.0,95,0.00,,---,0.00,VWS V12.08,2013-03-16 12:56:00,
2013-03-16 08:57:00,53.0,51.3,30.16,WSW,244,2.0,10.0,94,0.00,,---,0.00,VWS V12.08,2013-03-16 12:57:00,
2013-03-16 08:58:00,53.3,51.3,30.16,SW,225,3.0,10.0,93,0.00,,---,0.00,VWS V12.08,2013-03-16 12:58:00,
2013-03-16 08:59:00,53.5,51.5,30.16,SW,223,5.0,10.0,93,0.00,,---,0.00,VWS V12.08,2013-03-16 12:59:00,
2013-03-16 09:00:00,53.8,51.5,30.16,SW,219,4.0,10.0,92,0.00,,---,0.00,VWS V12.08,2013-03-16 13:00:00,
2013-03-16 09:01:00,54.0,51.4,30.16,SW,218,4.0,10.0,91,0.00,,---,0.00,VWS V12.08,2013-03-16 13:01:00,
2013-03-16 09:02:00,51.1,50.0,30.16,WSW,244,4.0,10.0,96,0.00,,---,0.00,VWS V12.08,2013-03-16 13:02:00,
2013-03-16 09:03:00,54.6,51.7,30.16,SSW,210,3.0,10.0,90,0.00,,---,0.00,VWS V12.08,2013-03-16 13:03:00,
2013-03-16 09:04:00,54.7,51.5,30.16,SSW,210,3.0,10.0,89,0.00,,---,0.00,VWS V12.08,2013-03-16 13:04:00,
2013-03-16 09:05:00,55.0,51.8,30.16,SSW,210,3.0,10.0,89,0.00,,---,0.00,VWS V12.08,2013-03-16 13:05:00,
2013-03-16 09:06:00,55.3,51.8,30.16,SSW,212,7.0,10.0,88,0.00,,---,0.00,VWS V12.08,2013-03-16 13:06:00,
2013-03-16 09:07:00,52.8,51.4,30.16,SW,232,1.0,10.0,95,0.00,,---,0.00,VWS V12.08,2013-03-16 13:07:00,
2013-03-16 09:09:00,56.0,51.9,30.16,SSW,212,5.0,10.0,86,0.00,,---,0.00,VWS V12.08,2013-03-16 13:09:00,
2013-03-16 09:11:00,56.3,51.9,30.16,SSW,210,6.0,10.0,85,0.00,,---,0.00,VWS V12.08,2013-03-16 13:11:00,
2013-03-16 09:12:00,54.0,51.4,30.16,SW,217,5.0,10.0,91,0.00,,---,0.00,VWS V12.08,2013-03-16 13:12:00,
2013-03-16 09:13:00,56.8,52.0,30.16,SW,217,5.0,10.0,84,0.00,,---,0.00,VWS V12.08,2013-03-16 13:13:00,
2013-03-16 09:14:00,57.0,52.2,30.16,SW,217,5.0,10.0,84,0.00,,---,0.00,VWS V12.08,2013-03-16 13:14:00,
2013-03-16 09:15:00,57.2,52.1,30.16,SSW,207,8.0,10.0,83,0.00,,---,0.00,VWS V12.08,2013-03-16 13:15:00,
2013-03-16 09:16:00,57.3,52.2,30.16,SSW,207,5.0,10.0,83,0.00,,---,0.00,VWS V12.08,2013-03-16 13:16:00,
2013-03-16 09:17:00,57.5,52.1,30.16,SSW,196,6.0,10.0,82,0.00,,---,0.00,VWS V12.08,2013-03-16 13:17:00,
2013-03-16 09:18:00,55.3,51.8,30.16,SW,223,6.0,10.0,88,0.00,,---,0.00,VWS V12.08,2013-03-16 13:18:00,
2013-03-16 09:19:00,57.7,51.9,30.16,SSW,202,8.0,10.0,81,0.00,,---,0.00,VWS V12.08,2013-03-16 13:19:00,
2013-03-16 09:20:00,57.8,52.0,30.16,SSW,200,5.0,10.0,81,0.00,,---,0.00,VWS V12.08,2013-03-16 13:20:00,
2013-03-16 09:21:00,57.9,52.1,30.16,SSW,200,6.0,10.0,81,0.00,,---,0.00,VWS V12.08,2013-03-16 13:21:00,
2013-03-16 09:22:00,58.0,51.9,30.16,SSW,209,5.0,10.0,80,0.00,,---,0.00,VWS V12.08,2013-03-16 13:22:00,
2013-03-16 09:23:00,56.4,52.0,30.16,SW,218,7.0,10.0,85,0.00,,---,0.00,VWS V12.08,2013-03-16 13:23:00,
2013-03-16 09:25:00,58.5,52.0,30.16,SSW,205,6.0,10.0,79,0.00,,---,0.00,VWS V12.08,2013-03-16 13:25:00,
2013-03-16 09:26:00,58.5,52.0,30.16,SSW,205,6.0,10.0,79,0.00,,---,0.00,VWS V12.08,2013-03-16 13:26:00,
2013-03-16 09:27:00,58.7,52.2,30.16,SSW,209,7.0,10.0,79,0.00,,---,0.00,VWS V12.08,2013-03-16 13:27:00,
2013-03-16 09:28:00,57.4,52.0,30.16,SSW,196,6.0,10.0,82,0.00,,---,0.00,VWS V12.08,2013-03-16 13:28:00,
2013-03-16 09:29:00,59.0,52.2,30.16,SSW,202,6.0,10.0,78,0.00,,---,0.00,VWS V12.08,2013-03-16 13:29:00,
2013-03-16 09:30:00,59.1,51.9,30.16,SSW,213,6.0,10.0,77,0.00,,---,0.00,VWS V12.08,2013-03-16 13:30:00,
2013-03-16 09:31:00,59.3,52.1,30.15,SSW,196,7.0,10.0,77,0.00,,---,0.00,VWS V12.08,2013-03-16 13:31:00,
2013-03-16 09:32:00,59.3,52.1,30.15,SSW,194,5.0,10.0,77,0.00,,---,0.00,VWS V12.08,2013-03-16 13:32:00,
2013-03-16 09:33:00,58.0,51.9,30.16,SSW,209,5.0,10.0,80,0.00,,---,0.00,VWS V12.08,2013-03-16 13:33:00,
2013-03-16 09:34:00,59.6,52.0,30.16,SSW,192,5.0,10.0,76,0.00,,---,0.00,VWS V12.08,2013-03-16 13:34:00,
2013-03-16 09:35:00,59.7,52.1,30.16,South,183,8.0,10.0,76,0.00,,---,0.00,VWS V12.08,2013-03-16 13:35:00,
2013-03-16 09:36:00,59.8,52.2,30.16,South,186,5.0,10.0,76,0.00,,---,0.00,VWS V12.08,2013-03-16 13:36:00,
2013-03-16 09:38:00,58.7,52.2,30.16,SSW,211,6.0,10.0,79,0.00,,---,0.00,VWS V12.08,2013-03-16 13:38:00,
2013-03-16 09:39:00,60.2,52.3,30.16,SSW,200,6.0,10.0,75,0.00,,---,0.00,VWS V12.08,2013-03-16 13:39:00,
2013-03-16 09:40:00,60.2,52.3,30.16,SSW,207,8.0,10.0,75,0.00,,---,0.00,VWS V12.08,2013-03-16 13:40:00,
2013-03-16 09:41:00,60.3,52.3,30.16,SSW,200,7.0,11.0,75,0.00,,---,0.00,VWS V12.08,2013-03-16 13:41:00,
2013-03-16 09:42:00,60.5,52.2,30.15,SSW,201,6.0,11.0,74,0.00,,---,0.00,VWS V12.08,2013-03-16 13:42:00,
2013-03-16 09:43:00,59.3,52.1,30.16,SSW,198,7.0,10.0,77,0.00,,---,0.00,VWS V12.08,2013-03-16 13:43:00,
2013-03-16 09:44:00,60.7,52.4,30.15,SSW,207,9.0,11.0,74,0.00,,---,0.00,VWS V12.08,2013-03-16 13:44:00,
2013-03-16 09:45:00,60.8,52.1,30.15,SSW,204,7.0,11.0,73,0.00,,---,0.00,VWS V12.08,2013-03-16 13:45:00,
2013-03-16 09:46:00,60.9,52.2,30.15,SSW,206,5.0,11.0,73,0.00,,---,0.00,VWS V12.08,2013-03-16 13:46:00,
2013-03-16 09:47:00,61.1,52.4,30.15,SSW,211,6.0,11.0,73,0.00,,---,0.00,VWS V12.08,2013-03-16 13:47:00,
2013-03-16 09:48:00,59.9,52.3,30.15,South,181,7.0,10.0,76,0.00,,---,0.00,VWS V12.08,2013-03-16 13:48:00,
2013-03-16 09:49:00,61.4,52.3,30.15,SSW,213,5.0,11.0,72,0.00,,---,0.00,VWS V12.08,2013-03-16 13:49:00,
2013-03-16 09:50:00,61.6,52.1,30.15,SW,217,3.0,11.0,71,0.00,,---,0.00,VWS V12.08,2013-03-16 13:50:00,
2013-03-16 09:51:00,61.7,52.2,30.15,SW,217,5.0,11.0,71,0.00,,---,0.00,VWS V12.08,2013-03-16 13:51:00,
2013-03-16 09:52:00,62.0,52.5,30.15,SSW,195,7.0,11.0,71,0.00,,---,0.00,VWS V12.08,2013-03-16 13:52:00,
2013-03-16 09:53:00,62.2,51.9,30.15,SSW,211,6.0,11.0,69,0.00,,---,0.00,VWS V12.08,2013-03-16 13:53:00,
2013-03-16 09:54:00,60.5,52.2,30.15,SSW,196,6.0,11.0,74,0.00,,---,0.00,VWS V12.08,2013-03-16 13:54:00,
2013-03-16 09:55:00,62.3,51.2,30.15,SW,217,7.0,11.0,67,0.00,,---,0.00,VWS V12.08,2013-03-16 13:55:00,
2013-03-16 09:56:00,62.4,50.9,30.15,SW,217,8.0,11.0,66,0.00,,---,0.00,VWS V12.08,2013-03-16 13:56:00,
2013-03-16 09:57:00,62.5,51.0,30.15,SW,232,6.0,11.0,66,0.00,,---,0.00,VWS V12.08,2013-03-16 13:57:00,
2013-03-16 09:58:00,62.8,51.3,30.16,SW,220,7.0,12.0,66,0.00,,---,0.00,VWS V12.08,2013-03-16 13:58:00,
2013-03-16 09:59:00,61.1,52.4,30.15,SSW,207,8.0,11.0,73,0.00,,---,0.00,VWS V12.08,2013-03-16 13:59:00,
2013-03-16 10:00:00,63.1,50.7,30.15,SW,216,6.0,12.0,64,0.00,,---,0.00,VWS V12.08,2013-03-16 14:00:00,
2013-03-16 10:01:00,63.4,51.4,30.16,SW,221,5.0,12.0,65,0.00,,---,0.00,VWS V12.08,2013-03-16 14:01:00,
2013-03-16 10:02:00,63.4,51.4,30.16,SW,220,5.0,12.0,65,0.00,,---,0.00,VWS V12.08,2013-03-16 14:02:00,
2013-03-16 10:03:00,63.6,51.6,30.16,SW,234,11.0,12.0,65,0.00,,---,0.00,VWS V12.08,2013-03-16 14:03:00,
2013-03-16 10:04:00,62.0,52.1,30.15,SSW,205,7.0,11.0,70,0.00,,---,0.00,VWS V12.08,2013-03-16 14:04:00,
2013-03-16 10:05:00,63.8,50.5,30.16,WSW,257,4.0,12.0,62,0.00,,---,0.00,VWS V12.08,2013-03-16 14:05:00,
2013-03-16 10:06:00,64.0,50.7,30.16,WSW,241,7.0,12.0,62,0.00,,---,0.00,VWS V12.08,2013-03-16 14:06:00,
2013-03-16 10:07:00,64.1,50.4,30.16,West,261,6.0,12.0,61,0.00,,---,0.00,VWS V12.08,2013-03-16 14:07:00,
2013-03-16 10:08:00,64.2,50.5,30.16,WSW,248,5.0,12.0,61,0.00,,---,0.00,VWS V12.08,2013-03-16 14:08:00,
2013-03-16 10:09:00,62.6,50.7,30.15,SW,220,7.0,12.0,65,0.00,,---,0.00,VWS V12.08,2013-03-16 14:09:00,
2013-03-16 10:10:00,64.6,50.4,30.16,WSW,246,6.0,12.0,60,0.00,,---,0.00,VWS V12.08,2013-03-16 14:10:00,
2013-03-16 10:11:00,64.8,50.2,30.16,SW,235,8.0,12.0,59,0.00,,---,0.00,VWS V12.08,2013-03-16 14:11:00,
2013-03-16 10:12:00,64.9,49.8,30.16,WSW,239,7.0,12.0,58,0.00,,---,0.00,VWS V12.08,2013-03-16 14:12:00,
2013-03-16 10:13:00,65.0,49.9,30.16,WSW,238,7.0,12.0,58,0.00,,---,0.00,VWS V12.08,2013-03-16 14:13:00,
2013-03-16 10:14:00,63.5,51.5,30.16,SW,228,7.0,12.0,65,0.00,,---,0.00,VWS V12.08,2013-03-16 14:14:00,
2013-03-16 10:15:00,65.2,50.1,30.16,SW,215,5.0,12.0,58,0.00,,---,0.00,VWS V12.08,2013-03-16 14:15:00,
2013-03-16 10:16:00,65.2,50.1,30.16,SW,227,7.0,12.0,58,0.00,,---,0.00,VWS V12.08,2013-03-16 14:16:00,
2013-03-16 10:17:00,65.4,50.7,30.16,WSW,238,4.0,12.0,59,0.00,,---,0.00,VWS V12.08,2013-03-16 14:17:00,
2013-03-16 10:18:00,65.6,50.0,30.16,SW,225,11.0,12.0,57,0.00,,---,0.00,VWS V12.08,2013-03-16 14:18:00,
2013-03-16 10:19:00,65.6,50.0,30.16,WSW,240,10.0,12.0,57,0.00,,---,0.00,VWS V12.08,2013-03-16 14:19:00,
2013-03-16 10:20:00,65.6,50.0,30.16,SW,225,5.0,12.0,57,0.00,,---,0.00,VWS V12.08,2013-03-16 14:20:00,
2013-03-16 10:21:00,65.6,49.5,30.16,SW,219,10.0,12.0,56,0.00,,---,0.00,VWS V12.08,2013-03-16 14:21:00,
2013-03-16 10:22:00,64.7,50.5,30.16,WSW,242,6.0,12.0,60,0.00,,---,0.00,VWS V12.08,2013-03-16 14:22:00,
2013-03-16 10:23:00,65.6,49.0,30.16,SW,223,9.0,12.0,55,0.00,,---,0.00,VWS V12.08,2013-03-16 14:23:00,
2013-03-16 10:24:00,65.7,49.6,30.16,SW,214,6.0,12.0,56,0.00,,---,0.00,VWS V12.08,2013-03-16 14:24:00,
2013-03-16 10:27:00,65.3,50.2,30.16,SW,225,11.0,12.0,58,0.00,,---,0.00,VWS V12.08,2013-03-16 14:27:00,
2013-03-16 10:28:00,66.1,50.0,30.16,SSW,207,7.0,12.0,56,0.00,,---,0.00,VWS V12.08,2013-03-16 14:28:00,
2013-03-16 10:29:00,66.2,49.1,30.16,SSW,207,6.0,12.0,54,0.00,,---,0.00,VWS V12.08,2013-03-16 14:29:00,
2013-03-16 10:30:00,66.3,49.2,30.16,SSW,196,5.0,12.0,54,0.00,,---,0.00,VWS V12.08,2013-03-16 14:30:00,
2013-03-16 10:31:00,66.3,49.7,30.16,SSW,194,3.0,12.0,55,0.00,,---,0.00,VWS V12.08,2013-03-16 14:31:00,
2013-03-16 10:32:00,65.6,49.5,30.16,SW,221,7.0,12.0,56,0.00,,---,0.00,VWS V12.08,2013-03-16 14:32:00,
2013-03-16 10:33:00,66.5,49.4,30.16,SW,233,5.0,12.0,54,0.00,,---,0.00,VWS V12.08,2013-03-16 14:33:00,
2013-03-16 10:34:00,66.6,50.0,30.16,SW,232,8.0,12.0,55,0.00,,---,0.00,VWS V12.08,2013-03-16 14:34:00,
2013-03-16 10:35:00,66.7,49.5,30.16,SW,229,7.0,12.0,54,0.00,,---,0.00,VWS V12.08,2013-03-16 14:35:00,
2013-03-16 10:36:00,66.7,49.5,30.16,WSW,240,5.0,12.0,54,0.00,,---,0.00,VWS V12.08,2013-03-16 14:36:00,
2013-03-16 10:37:00,66.0,49.9,30.16,SSW,209,5.0,12.0,56,0.00,,---,0.00,VWS V12.08,2013-03-16 14:37:00,
2013-03-16 10:39:00,67.1,48.4,30.16,WSW,240,10.0,12.0,51,0.00,,---,0.00,VWS V12.08,2013-03-16 14:39:00,
2013-03-16 10:40:00,67.2,48.5,30.16,SW,234,6.0,12.0,51,0.00,,---,0.00,VWS V12.08,2013-03-16 14:40:00,
2013-03-16 10:41:00,67.2,48.5,30.16,WSW,237,3.0,12.0,51,0.00,,---,0.00,VWS V12.08,2013-03-16 14:41:00,
2013-03-16 10:42:00,67.2,48.5,30.16,WSW,250,8.0,12.0,51,0.00,,---,0.00,VWS V12.08,2013-03-16 14:42:00,
2013-03-16 10:43:00,66.4,50.2,30.16,SSW,207,2.0,12.0,56,0.00,,---,0.00,VWS V12.08,2013-03-16 14:43:00,
2013-03-16 10:44:00,67.3,48.6,30.16,WSW,240,8.0,12.0,51,0.00,,---,0.00,VWS V12.08,2013-03-16 14:44:00,
2013-03-16 10:45:00,67.3,48.0,30.16,SW,232,4.0,12.0,50,0.00,,---,0.00,VWS V12.08,2013-03-16 14:45:00,
2013-03-16 10:46:00,67.3,48.6,30.16,SW,234,7.0,12.0,51,0.00,,---,0.00,VWS V12.08,2013-03-16 14:46:00,
2013-03-16 10:47:00,67.3,48.6,30.16,WSW,246,0.0,12.0,51,0.00,,---,0.00,VWS V12.08,2013-03-16 14:47:00,
2013-03-16 10:48:00,66.8,49.6,30.16,WSW,242,4.0,12.0,54,0.00,,---,0.00,VWS V12.08,2013-03-16 14:48:00,
2013-03-16 10:49:00,67.4,49.2,30.16,SW,230,6.0,12.0,52,0.00,,---,0.00,VWS V12.08,2013-03-16 14:49:00,
2013-03-16 10:50:00,67.4,48.7,30.16,SW,229,8.0,12.0,51,0.00,,---,0.00,VWS V12.08,2013-03-16 14:50:00,
2013-03-16 10:51:00,67.5,48.2,30.16,SW,229,7.0,12.0,50,0.00,,---,0.00,VWS V12.08,2013-03-16 14:51:00,
2013-03-16 10:52:00,67.5,48.2,30.16,SW,229,3.0,12.0,50,0.00,,---,0.00,VWS V12.08,2013-03-16 14:52:00,
2013-03-16 10:53:00,67.6,48.8,30.16,SW,229,3.0,12.0,51,0.00,,---,0.00,VWS V12.08,2013-03-16 14:53:00,
2013-03-16 10:54:00,67.6,48.8,30.16,SW,229,2.0,12.0,51,0.00,,---,0.00,VWS V12.08,2013-03-16 14:54:00,
2013-03-16 10:55:00,67.6,49.4,30.16,SW,229,3.0,12.0,52,0.00,,---,0.00,VWS V12.08,2013-03-16 14:55:00,
2013-03-16 10:56:00,67.3,48.0,30.16,WSW,240,6.0,12.0,50,0.00,,---,0.00,VWS V12.08,2013-03-16 14:56:00,
2013-03-16 10:58:00,67.7,49.5,30.16,WNW,286,2.0,12.0,52,0.00,,---,0.00,VWS V12.08,2013-03-16 14:58:00,
2013-03-16 10:59:00,67.7,49.5,30.16,WSW,242,8.0,12.0,52,0.00,,---,0.00,VWS V12.08,2013-03-16 14:59:00,
2013-03-16 11:00:00,67.8,48.5,30.16,WSW,241,4.0,13.0,50,0.00,,---,0.00,VWS V12.08,2013-03-16 15:00:00,
2013-03-16 11:01:00,67.4,48.7,30.16,SW,230,7.0,12.0,51,0.00,,---,0.00,VWS V12.08,2013-03-16 15:01:00,
2013-03-16 11:02:00,68.1,48.8,30.16,WSW,239,7.0,13.0,50,0.00,,---,0.00,VWS V12.08,2013-03-16 15:02:00,
2013-03-16 11:03:00,68.3,49.0,30.16,West,263,1.0,13.0,50,0.00,,---,0.00,VWS V12.08,2013-03-16 15:03:00,
2013-03-16 11:04:00,68.4,48.5,30.16,WSW,247,10.0,13.0,49,0.00,,---,0.00,VWS V12.08,2013-03-16 15:04:00,
2013-03-16 11:05:00,68.5,49.2,30.16,WSW,253,5.0,13.0,50,0.00,,---,0.00,VWS V12.08,2013-03-16 15:05:00,
2013-03-16 11:06:00,68.5,49.2,30.16,WSW,252,3.0,13.0,50,0.00,,---,0.00,VWS V12.08,2013-03-16 15:06:00,
2013-03-16 11:07:00,67.7,48.9,30.16,West,279,4.0,12.0,51,0.00,,---,0.00,VWS V12.08,2013-03-16 15:07:00,
2013-03-16 11:08:00,68.7,48.8,30.16,SW,228,6.0,13.0,49,0.00,,---,0.00,VWS V12.08,2013-03-16 15:08:00,
2013-03-16 11:09:00,68.8,48.9,30.16,SW,236,13.0,13.0,49,0.00,,---,0.00,VWS V12.08,2013-03-16 15:09:00,
2013-03-16 11:10:00,68.7,48.8,30.16,SW,236,7.0,13.0,49,0.00,,---,0.00,VWS V12.08,2013-03-16 15:10:00,
2013-03-16 11:11:00,68.7,48.8,30.16,WSW,251,5.0,13.0,49,0.00,,---,0.00,VWS V12.08,2013-03-16 15:11:00,
2013-03-16 11:12:00,68.6,48.7,30.16,WSW,250,3.0,13.0,49,0.00,,---,0.00,VWS V12.08,2013-03-16 15:12:00,
2013-03-16 11:13:00,68.1,48.8,30.16,WSW,246,4.0,13.0,50,0.00,,---,0.00,VWS V12.08,2013-03-16 15:13:00,
2013-03-16 11:14:00,68.6,48.7,30.15,SSW,205,10.0,13.0,49,0.00,,---,0.00,VWS V12.08,2013-03-16 15:14:00,
2013-03-16 11:16:00,68.7,49.3,30.16,SW,224,7.0,13.0,50,0.00,,---,0.00,VWS V12.08,2013-03-16 15:16:00,
2013-03-16 11:17:00,68.7,48.8,30.16,SW,223,4.0,13.0,49,0.00,,---,0.00,VWS V12.08,2013-03-16 15:17:00,
2013-03-16 11:18:00,68.7,48.8,30.16,WSW,237,8.0,13.0,49,0.00,,---,0.00,VWS V12.08,2013-03-16 15:18:00,
2013-03-16 11:19:00,68.6,48.7,30.16,WSW,237,6.0,13.0,49,0.00,,---,0.00,VWS V12.08,2013-03-16 15:19:00,
2013-03-16 11:20:00,68.6,48.7,30.16,West,259,5.0,13.0,49,0.00,,---,0.00,VWS V12.08,2013-03-16 15:20:00,
2013-03-16 11:21:00,68.7,48.8,30.16,WSW,246,7.0,13.0,49,0.00,,---,0.00,VWS V12.08,2013-03-16 15:21:00,
2013-03-16 11:22:00,68.8,48.9,30.15,WSW,237,6.0,13.0,49,0.00,,---,0.00,VWS V12.08,2013-03-16 15:22:00,
2013-03-16 11:23:00,68.6,48.7,30.16,WSW,250,1.0,13.0,49,0.00,,---,0.00,VWS V12.08,2013-03-16 15:23:00,
2013-03-16 11:24:00,69.1,49.2,30.15,SW,234,2.0,13.0,49,0.00,,---,0.00,VWS V12.08,2013-03-16 15:24:00,
2013-03-16 11:25:00,69.3,49.9,30.15,SW,221,5.0,13.0,50,0.00,,---,0.00,VWS V12.08,2013-03-16 15:25:00,
2013-03-16 11:27:00,69.5,48.4,30.15,SSW,194,6.0,13.0,47,0.00,,---,0.00,VWS V12.08,2013-03-16 15:27:00,
2013-03-16 11:28:00,68.7,48.8,30.16,SW,221,5.0,13.0,49,0.00,,---,0.00,VWS V12.08,2013-03-16 15:28:00,
2013-03-16 11:29:00,69.7,48.6,30.15,SW,218,8.0,13.0,47,0.00,,---,0.00,VWS V12.08,2013-03-16 15:29:00,
2013-03-16 11:30:00,69.8,49.2,30.15,SW,234,11.0,13.0,48,0.00,,---,0.00,VWS V12.08,2013-03-16 15:30:00,
2013-03-16 11:31:00,69.9,48.8,30.15,WSW,237,7.0,13.0,47,0.00,,---,0.00,VWS V12.08,2013-03-16 15:31:00,
2013-03-16 11:32:00,70.0,49.4,30.15,WSW,239,7.0,13.0,48,0.00,,---,0.00,VWS V12.08,2013-03-16 15:32:00,
2013-03-16 11:34:00,70.0,48.9,30.15,SW,225,7.0,13.0,47,0.00,,---,0.00,VWS V12.08,2013-03-16 15:34:00,
2013-03-16 11:35:00,69.1,49.2,30.15,SW,235,5.0,13.0,49,0.00,,---,0.00,VWS V12.08,2013-03-16 15:35:00,
2013-03-16 11:36:00,70.0,48.3,30.15,SW,231,4.0,13.0,46,0.00,,---,0.00,VWS V12.08,2013-03-16 15:36:00,
2013-03-16 11:37:00,69.9,48.2,30.15,SW,231,2.0,13.0,46,0.00,,---,0.00,VWS V12.08,2013-03-16 15:37:00,
2013-03-16 11:38:00,69.9,48.8,30.15,WSW,244,6.0,13.0,47,0.00,,---,0.00,VWS V12.08,2013-03-16 15:38:00,
2013-03-16 11:39:00,69.9,48.8,30.15,WSW,257,2.0,13.0,47,0.00,,---,0.00,VWS V12.08,2013-03-16 15:39:00,
2013-03-16 11:40:00,69.7,48.6,30.15,SW,219,8.0,13.0,47,0.00,,---,0.00,VWS V12.08,2013-03-16 15:40:00,
2013-03-16 11:41:00,70.1,49.5,30.15,WSW,246,5.0,13.0,48,0.00,,---,0.00,VWS V12.08,2013-03-16 15:41:00,
2013-03-16 11:42:00,70.1,49.5,30.15,SW,229,6.0,13.0,48,0.00,,---,0.00,VWS V12.08,2013-03-16 15:42:00,
2013-03-16 11:43:00,70.2,49.6,30.15,WSW,256,4.0,13.0,48,0.00,,---,0.00,VWS V12.08,2013-03-16 15:43:00,
2013-03-16 11:44:00,70.4,49.2,30.15,WSW,246,3.0,13.0,47,0.00,,---,0.00,VWS V12.08,2013-03-16 15:44:00,
2013-03-16 11:45:00,70.0,48.9,30.15,SW,234,5.0,13.0,47,0.00,,---,0.00,VWS V12.08,2013-03-16 15:45:00,
2013-03-16 11:46:00,70.6,50.0,30.15,West,260,7.0,13.0,48,0.00,,---,0.00,VWS V12.08,2013-03-16 15:46:00,
2013-03-16 11:47:00,70.7,49.5,30.15,WSW,256,5.0,13.0,47,0.00,,---,0.00,VWS V12.08,2013-03-16 15:47:00,
2013-03-16 11:48:00,71.0,49.8,30.15,West,266,6.0,13.0,47,0.00,,---,0.00,VWS V12.08,2013-03-16 15:48:00,
2013-03-16 11:49:00,71.1,49.3,30.15,SW,233,10.0,13.0,46,0.00,,---,0.00,VWS V12.08,2013-03-16 15:49:00,
2013-03-16 11:50:00,69.9,48.8,30.15,WSW,257,7.0,13.0,47,0.00,,---,0.00,VWS V12.08,2013-03-16 15:50:00,
2013-03-16 11:51:00,71.2,49.4,30.15,SW,227,12.0,13.0,46,0.00,,---,0.00,VWS V12.08,2013-03-16 15:51:00,
2013-03-16 11:52:00,71.4,49.0,30.15,SW,217,13.0,13.0,45,0.00,,---,0.00,VWS V12.08,2013-03-16 15:52:00,
2013-03-16 11:53:00,71.5,48.5,30.15,SW,220,7.0,16.0,44,0.00,,---,0.00,VWS V12.08,2013-03-16 15:53:00,
2013-03-16 11:54:00,71.5,49.1,30.15,SW,227,13.0,16.0,45,0.00,,---,0.00,VWS V12.08,2013-03-16 15:54:00,
2013-03-16 11:55:00,70.4,49.2,30.15,West,259,5.0,13.0,47,0.00,,---,0.00,VWS V12.08,2013-03-16 15:55:00,
2013-03-16 11:56:00,71.6,48.6,30.14,SW,236,7.0,16.0,44,0.00,,---,0.00,VWS V12.08,2013-03-16 15:56:00,
2013-03-16 11:57:00,71.5,48.5,30.14,SW,236,4.0,16.0,44,0.00,,---,0.00,VWS V12.08,2013-03-16 15:57:00,
2013-03-16 11:58:00,71.4,48.4,30.14,SSW,212,7.0,16.0,44,0.00,,---,0.00,VWS V12.08,2013-03-16 15:58:00,
2013-03-16 11:59:00,71.5,49.1,30.14,WSW,254,7.0,16.0,45,0.00,,---,0.00,VWS V12.08,2013-03-16 15:59:00,
2013-03-16 12:00:00,71.5,49.1,30.14,WSW,247,7.0,16.0,45,0.00,,---,0.00,VWS V12.08,2013-03-16 16:00:00,
2013-03-16 12:01:00,71.6,48.6,30.14,WSW,257,12.0,16.0,44,0.00,,---,0.00,VWS V12.08,2013-03-16 16:01:00,
2013-03-16 12:02:00,71.2,49.4,30.15,WSW,246,8.0,13.0,46,0.00,,---,0.00,VWS V12.08,2013-03-16 16:02:00,
2013-03-16 12:03:00,71.7,48.0,30.14,SW,221,7.0,16.0,43,0.00,,---,0.00,VWS V12.08,2013-03-16 16:03:00,
2013-03-16 12:04:00,71.7,47.4,30.14,SW,236,7.0,16.0,42,0.00,,---,0.00,VWS V12.08,2013-03-16 16:04:00,
2013-03-16 12:05:00,71.7,47.4,30.14,SW,233,2.0,16.0,42,0.00,,---,0.00,VWS V12.08,2013-03-16 16:05:00,
2013-03-16 12:06:00,71.7,47.4,30.13,SW,221,4.0,16.0,42,0.00,,---,0.00,VWS V12.08,2013-03-16 16:06:00,
2013-03-16 12:07:00,71.6,48.6,30.14,SW,234,7.0,16.0,44,0.00,,---,0.00,VWS V12.08,2013-03-16 16:07:00,
2013-03-16 12:08:00,71.6,47.3,30.13,SW,232,5.0,16.0,42,0.00,,---,0.00,VWS V12.08,2013-03-16 16:08:00,
2013-03-16 12:09:00,71.6,48.6,30.14,SW,236,1.0,16.0,44,0.00,,---,0.00,VWS V12.08,2013-03-16 16:09:00,
2013-03-16 12:11:00,71.8,48.1,30.13,WSW,254,7.0,16.0,43,0.00,,---,0.00,VWS V12.08,2013-03-16 16:11:00,
2013-03-16 12:12:00,71.5,48.5,30.14,WSW,250,8.0,16.0,44,0.00,,---,0.00,VWS V12.08,2013-03-16 16:12:00,
2013-03-16 12:13:00,72.0,47.0,30.13,WSW,250,4.0,16.0,41,0.00,,---,0.00,VWS V12.08,2013-03-16 16:13:00,
2013-03-16 12:14:00,72.1,47.8,30.14,SW,229,6.0,16.0,42,0.00,,---,0.00,VWS V12.08,2013-03-16 16:14:00,
2013-03-16 12:16:00,72.3,48.6,30.13,West,274,11.0,16.0,43,0.00,,---,0.00,VWS V12.08,2013-03-16 16:16:00,
2013-03-16 12:17:00,71.7,47.4,30.14,SW,232,11.0,16.0,42,0.00,,---,0.00,VWS V12.08,2013-03-16 16:17:00,
2013-03-16 12:19:00,72.7,47.7,30.13,WSW,254,4.0,16.0,41,0.00,,---,0.00,VWS V12.08,2013-03-16 16:19:00,
2013-03-16 12:20:00,72.7,48.3,30.13,WSW,238,7.0,16.0,42,0.00,,---,0.00,VWS V12.08,2013-03-16 16:20:00,
2013-03-16 12:21:00,72.8,47.1,30.13,WSW,241,7.0,16.0,40,0.00,,---,0.00,VWS V12.08,2013-03-16 16:21:00,
2013-03-16 12:22:00,71.8,48.1,30.13,West,269,8.0,16.0,43,0.00,,---,0.00,VWS V12.08,2013-03-16 16:22:00,
2013-03-16 12:23:00,72.8,47.8,30.13,West,267,2.0,16.0,41,0.00,,---,0.00,VWS V12.08,2013-03-16 16:23:00,
2013-03-16 12:24:00,72.8,47.8,30.13,SSW,211,9.0,16.0,41,0.00,,---,0.00,VWS V12.08,2013-03-16 16:24:00,
2013-03-16 12:25:00,72.9,47.2,30.13,SW,229,3.0,16.0,40,0.00,,---,0.00,VWS V12.08,2013-03-16 16:25:00,
2013-03-16 12:26:00,72.9,47.2,30.13,SW,221,6.0,16.0,40,0.00,,---,0.00,VWS V12.08,2013-03-16 16:26:00,
2013-03-16 12:27:00,72.2,47.9,30.13,SW,234,5.0,16.0,42,0.00,,---,0.00,VWS V12.08,2013-03-16 16:27:00,
2013-03-16 12:28:00,73.0,46.6,30.13,SW,217,6.0,16.0,39,0.00,,---,0.00,VWS V12.08,2013-03-16 16:28:00,
2013-03-16 12:29:00,72.9,46.5,30.13,SW,220,3.0,16.0,39,0.00,,---,0.00,VWS V12.08,2013-03-16 16:29:00,
2013-03-16 12:30:00,72.9,46.5,30.13,SW,224,5.0,16.0,39,0.00,,---,0.00,VWS V12.08,2013-03-16 16:30:00,
2013-03-16 12:31:00,72.9,46.5,30.13,WSW,240,11.0,16.0,39,0.00,,---,0.00,VWS V12.08,2013-03-16 16:31:00,
2013-03-16 12:32:00,72.7,48.3,30.13,WSW,248,8.0,16.0,42,0.00,,---,0.00,VWS V12.08,2013-03-16 16:32:00,
2013-03-16 12:33:00,73.0,46.6,30.13,WSW,242,10.0,16.0,39,0.00,,---,0.00,VWS V12.08,2013-03-16 16:33:00,
2013-03-16 12:34:00,73.0,45.9,30.13,WSW,237,5.0,16.0,38,0.00,,---,0.00,VWS V12.08,2013-03-16 16:34:00,
2013-03-16 12:35:00,73.1,46.0,30.13,SW,223,8.0,16.0,38,0.00,,---,0.00,VWS V12.08,2013-03-16 16:35:00,
2013-03-16 12:36:00,73.1,46.7,30.13,SW,222,5.0,16.0,39,0.00,,---,0.00,VWS V12.08,2013-03-16 16:36:00,
2013-03-16 12:37:00,72.9,47.2,30.13,SW,222,5.0,16.0,40,0.00,,---,0.00,VWS V12.08,2013-03-16 16:37:00,
2013-03-16 12:38:00,73.4,46.3,30.13,West,267,4.0,16.0,38,0.00,,---,0.00,VWS V12.08,2013-03-16 16:38:00,
2013-03-16 12:39:00,73.4,48.3,30.13,West,269,0.0,16.0,41,0.00,,---,0.00,VWS V12.08,2013-03-16 16:39:00,
2013-03-16 12:40:00,73.4,47.6,30.13,West,268,3.0,16.0,40,0.00,,---,0.00,VWS V12.08,2013-03-16 16:40:00,
2013-03-16 12:41:00,73.4,48.3,30.13,WSW,249,7.0,16.0,41,0.00,,---,0.00,VWS V12.08,2013-03-16 16:41:00,
2013-03-16 12:42:00,73.4,47.6,30.13,SSW,211,10.0,16.0,40,0.00,,---,0.00,VWS V12.08,2013-03-16 16:42:00,
2013-03-16 12:43:00,73.4,46.3,30.13,WNW,292,4.0,16.0,38,0.00,,---,0.00,VWS V12.08,2013-03-16 16:43:00,
2013-03-16 12:44:00,73.5,47.0,30.13,West,263,7.0,16.0,39,0.00,,---,0.00,VWS V12.08,2013-03-16 16:44:00,
2013-03-16 12:45:00,73.6,47.1,30.13,West,269,2.0,16.0,39,0.00,,---,0.00,VWS V12.08,2013-03-16 16:45:00,
2013-03-16 12:46:00,73.6,47.1,30.13,West,263,7.0,16.0,39,0.00,,---,0.00,VWS V12.08,2013-03-16 16:46:00,
2013-03-16 12:47:00,73.7,46.5,30.13,WSW,247,7.0,16.0,38,0.00,,---,0.00,VWS V12.08,2013-03-16 16:47:00,
2013-03-16 12:48:00,73.8,45.9,30.12,WSW,254,4.0,16.0,37,0.00,,---,0.00,VWS V12.08,2013-03-16 16:48:00,
2013-03-16 12:49:00,73.8,46.6,30.12,SW,229,4.0,16.0,38,0.00,,---,0.00,VWS V12.08,2013-03-16 16:49:00,
2013-03-16 12:50:00,73.9,46.0,30.12,WSW,241,3.0,16.0,37,0.00,,---,0.00,VWS V12.08,2013-03-16 16:50:00,
2013-03-16 12:51:00,73.9,46.0,30.12,WSW,245,0.0,16.0,37,0.00,,---,0.00,VWS V12.08,2013-03-16 16:51:00,
2013-03-16 12:52:00,73.4,47.6,30.13,WSW,238,10.0,16.0,40,0.00,,---,0.00,VWS V12.08,2013-03-16 16:52:00,
2013-03-16 12:53:00,74.0,46.1,30.12,WSW,245,2.0,16.0,37,0.00,,---,0.00,VWS V12.08,2013-03-16 16:53:00,
2013-03-16 12:54:00,74.0,46.1,30.12,WSW,246,8.0,16.0,37,0.00,,---,0.00,VWS V12.08,2013-03-16 16:54:00,
2013-03-16 12:55:00,74.0,45.4,30.12,WSW,246,6.0,16.0,36,0.00,,---,0.00,VWS V12.08,2013-03-16 16:55:00,
2013-03-16 12:56:00,74.2,46.3,30.12,WNW,290,4.0,16.0,37,0.00,,---,0.00,VWS V12.08,2013-03-16 16:56:00,
2013-03-16 12:57:00,73.7,46.5,30.13,WSW,250,4.0,16.0,38,0.00,,---,0.00,VWS V12.08,2013-03-16 16:57:00,
2013-03-16 12:58:00,74.3,47.1,30.12,WSW,248,6.0,16.0,38,0.00,,---,0.00,VWS V12.08,2013-03-16 16:58:00,
2013-03-16 12:59:00,74.3,46.4,30.12,West,259,5.0,16.0,37,0.00,,---,0.00,VWS V12.08,2013-03-16 16:59:00,
2013-03-16 13:00:00,74.3,46.4,30.12,WSW,254,11.0,16.0,37,0.00,,---,0.00,VWS V12.08,2013-03-16 17:00:00,
2013-03-16 13:02:00,73.9,46.7,30.12,WSW,245,0.0,16.0,38,0.00,,---,0.00,VWS V12.08,2013-03-16 17:02:00,
2013-03-16 13:03:00,74.2,44.8,30.12,WSW,251,11.0,16.0,35,0.00,,---,0.00,VWS V12.08,2013-03-16 17:03:00,
2013-03-16 13:04:00,74.3,44.9,30.12,SW,227,7.0,16.0,35,0.00,,---,0.00,VWS V12.08,2013-03-16 17:04:00,
2013-03-16 13:05:00,74.3,45.7,30.12,SW,218,8.0,16.0,36,0.00,,---,0.00,VWS V12.08,2013-03-16 17:05:00,
2013-03-16 13:06:00,74.3,44.9,30.12,SW,221,4.0,16.0,35,0.00,,---,0.00,VWS V12.08,2013-03-16 17:06:00,
2013-03-16 13:07:00,74.2,47.0,30.12,West,266,3.0,16.0,38,0.00,,---,0.00,VWS V12.08,2013-03-16 17:07:00,
2013-03-16 13:08:00,74.2,45.6,30.11,SW,228,10.0,16.0,36,0.00,,---,0.00,VWS V12.08,2013-03-16 17:08:00,
2013-03-16 13:09:00,74.2,46.3,30.12,WSW,239,6.0,16.0,37,0.00,,---,0.00,VWS V12.08,2013-03-16 17:09:00,
2013-03-16 13:11:00,74.3,45.7,30.11,SW,232,8.0,16.0,36,0.00,,---,0.00,VWS V12.08,2013-03-16 17:11:00,
2013-03-16 13:12:00,74.3,44.9,30.12,SW,229,6.0,16.0,35,0.00,,---,0.00,VWS V12.08,2013-03-16 17:12:00,
2013-03-16 13:15:00,74.7,47.4,30.11,West,263,4.0,16.0,38,0.00,,---,0.00,VWS V12.08,2013-03-16 17:15:00,
2013-03-16 13:16:00,74.8,47.5,30.11,West,263,1.0,16.0,38,0.00,,---,0.00,VWS V12.08,2013-03-16 17:16:00,
2013-03-16 13:17:00,74.2,44.8,30.12,SW,234,7.0,16.0,35,0.00,,---,0.00,VWS V12.08,2013-03-16 17:17:00,
2013-03-16 13:18:00,74.9,46.9,30.11,South,182,6.0,16.0,37,0.00,,---,0.00,VWS V12.08,2013-03-16 17:18:00,
2013-03-16 13:19:00,75.0,45.5,30.11,South,176,4.0,16.0,35,0.00,,---,0.00,VWS V12.08,2013-03-16 17:19:00,
2013-03-16 13:20:00,75.0,45.5,30.11,SSW,213,4.0,16.0,35,0.00,,---,0.00,VWS V12.08,2013-03-16 17:20:00,
2013-03-16 13:21:00,74.9,45.4,30.11,SW,226,5.0,16.0,35,0.00,,---,0.00,VWS V12.08,2013-03-16 17:21:00,
2013-03-16 13:22:00,74.3,45.7,30.11,WSW,251,11.0,16.0,36,0.00,,---,0.00,VWS V12.08,2013-03-16 17:22:00,
2013-03-16 13:23:00,75.1,45.6,30.11,SW,234,6.0,16.0,35,0.00,,---,0.00,VWS V12.08,2013-03-16 17:23:00,
2013-03-16 13:24:00,75.2,46.4,30.11,SW,234,6.0,16.0,36,0.00,,---,0.00,VWS V12.08,2013-03-16 17:24:00,
2013-03-16 13:25:00,75.4,46.6,30.10,SW,221,11.0,16.0,36,0.00,,---,0.00,VWS V12.08,2013-03-16 17:25:00,
2013-03-16 13:26:00,75.7,46.1,30.10,SW,234,12.0,16.0,35,0.00,,---,0.00,VWS V12.08,2013-03-16 17:26:00,
2013-03-16 13:27:00,74.9,47.6,30.11,SW,227,6.0,16.0,38,0.00,,---,0.00,VWS V12.08,2013-03-16 17:27:00,
2013-03-16 13:28:00,75.7,46.1,30.11,WSW,246,4.0,16.0,35,0.00,,---,0.00,VWS V12.08,2013-03-16 17:28:00,
2013-03-16 13:29:00,75.8,46.2,30.10,WSW,254,3.0,16.0,35,0.00,,---,0.00,VWS V12.08,2013-03-16 17:29:00,
2013-03-16 13:30:00,75.8,45.5,30.10,WSW,244,7.0,16.0,34,0.00,,---,0.00,VWS V12.08,2013-03-16 17:30:00,
2013-03-16 13:31:00,75.8,45.5,30.10,WSW,240,2.0,16.0,34,0.00,,---,0.00,VWS V12.08,2013-03-16 17:31:00,
2013-03-16 13:32:00,75.9,45.5,30.10,WSW,240,8.0,16.0,34,0.00,,---,0.00,VWS V12.08,2013-03-16 17:32:00,
2013-03-16 13:33:00,75.9,44.8,30.10,West,271,8.0,16.0,33,0.00,,---,0.00,VWS V12.08,2013-03-16 17:33:00,
2013-03-16 13:34:00,75.1,46.3,30.11,SW,231,4.0,16.0,36,0.00,,---,0.00,VWS V12.08,2013-03-16 17:34:00,
2013-03-16 13:35:00,75.9,44.8,30.10,WSW,251,4.0,16.0,33,0.00,,---,0.00,VWS V12.08,2013-03-16 17:35:00,
2013-03-16 13:36:00,75.9,45.5,30.10,WSW,252,1.0,16.0,34,0.00,,---,0.00,VWS V12.08,2013-03-16 17:36:00,
2013-03-16 13:37:00,75.9,45.5,30.10,WSW,251,4.0,16.0,34,0.00,,---,0.00,VWS V12.08,2013-03-16 17:37:00,
2013-03-16 13:38:00,76.0,45.6,30.10,WSW,242,8.0,16.0,34,0.00,,---,0.00,VWS V12.08,2013-03-16 17:38:00,
2013-03-16 13:39:00,75.8,46.2,30.10,WSW,248,4.0,16.0,35,0.00,,---,0.00,VWS V12.08,2013-03-16 17:39:00,
2013-03-16 13:40:00,76.1,45.7,30.10,WSW,249,0.0,16.0,34,0.00,,---,0.00,VWS V12.08,2013-03-16 17:40:00,
2013-03-16 13:41:00,76.2,45.0,30.10,WSW,257,3.0,16.0,33,0.00,,---,0.00,VWS V12.08,2013-03-16 17:41:00,
2013-03-16 13:42:00,76.2,44.2,30.10,WSW,247,12.0,16.0,32,0.00,,---,0.00,VWS V12.08,2013-03-16 17:42:00,
2013-03-16 13:43:00,76.2,44.2,30.10,WSW,246,0.0,16.0,32,0.00,,---,0.00,VWS V12.08,2013-03-16 17:43:00,
2013-03-16 13:44:00,76.1,44.9,30.10,WSW,245,3.0,16.0,33,0.00,,---,0.00,VWS V12.08,2013-03-16 17:44:00,
2013-03-16 13:45:00,75.9,44.8,30.10,WSW,252,6.0,16.0,33,0.00,,---,0.00,VWS V12.08,2013-03-16 17:45:00,
2013-03-16 13:46:00,76.2,44.2,30.10,WSW,250,12.0,16.0,32,0.00,,---,0.00,VWS V12.08,2013-03-16 17:46:00,
2013-03-16 13:47:00,76.2,45.0,30.10,WSW,254,7.0,16.0,33,0.00,,---,0.00,VWS V12.08,2013-03-16 17:47:00,
2013-03-16 13:48:00,76.2,45.0,30.10,WSW,248,8.0,16.0,33,0.00,,---,0.00,VWS V12.08,2013-03-16 17:48:00,
2013-03-16 13:49:00,76.2,45.0,30.10,WSW,248,2.0,16.0,33,0.00,,---,0.00,VWS V12.08,2013-03-16 17:49:00,
2013-03-16 13:50:00,76.1,44.9,30.10,WSW,253,7.0,16.0,33,0.00,,---,0.00,VWS V12.08,2013-03-16 17:50:00,
2013-03-16 13:51:00,76.2,45.0,30.10,SW,233,8.0,16.0,33,0.00,,---,0.00,VWS V12.08,2013-03-16 17:51:00,
2013-03-16 13:52:00,76.3,44.3,30.10,WSW,238,5.0,16.0,32,0.00,,---,0.00,VWS V12.08,2013-03-16 17:52:00,
2013-03-16 13:53:00,76.2,45.0,30.09,SW,229,8.0,16.0,33,0.00,,---,0.00,VWS V12.08,2013-03-16 17:53:00,
2013-03-16 13:54:00,76.2,45.0,30.09,WSW,250,4.0,16.0,33,0.00,,---,0.00,VWS V12.08,2013-03-16 17:54:00,
2013-03-16 13:55:00,76.1,44.9,30.10,WSW,245,12.0,16.0,33,0.00,,---,0.00,VWS V12.08,2013-03-16 17:55:00,
2013-03-16 13:56:00,76.3,45.1,30.09,WSW,249,5.0,16.0,33,0.00,,---,0.00,VWS V12.08,2013-03-16 17:56:00,
2013-03-16 13:57:00,76.3,45.1,30.09,WSW,237,7.0,16.0,33,0.00,,---,0.00,VWS V12.08,2013-03-16 17:57:00,
2013-03-16 13:58:00,76.4,45.2,30.09,SW,232,15.0,16.0,33,0.00,,---,0.00,VWS V12.08,2013-03-16 17:58:00,
2013-03-16 14:00:00,76.2,45.0,30.10,WSW,248,0.0,16.0,33,0.00,,---,0.00,VWS V12.08,2013-03-16 18:00:00,
2013-03-16 14:01:00,76.9,44.0,30.09,SW,236,11.0,17.0,31,0.00,,---,0.00,VWS V12.08,2013-03-16 18:01:00,
2013-03-16 14:02:00,76.9,43.1,30.09,SW,229,7.0,17.0,30,0.00,,---,0.00,VWS V12.08,2013-03-16 18:02:00,
2013-03-16 14:03:00,76.8,43.0,30.09,SW,230,0.0,17.0,30,0.00,,---,0.00,VWS V12.08,2013-03-16 18:03:00,
2013-03-16 14:04:00,76.7,44.7,30.09,West,273,11.0,17.0,32,0.00,,---,0.00,VWS V12.08,2013-03-16 18:04:00,
2013-03-16 14:05:00,76.3,45.1,30.09,WSW,240,6.0,16.0,33,0.00,,---,0.00,VWS V12.08,2013-03-16 18:05:00,
2013-03-16 14:06:00,76.8,43.9,30.09,West,268,4.0,17.0,31,0.00,,---,0.00,VWS V12.08,2013-03-16 18:06:00,
2013-03-16 14:07:00,76.9,44.8,30.09,WNW,282,6.0,17.0,32,0.00,,---,0.00,VWS V12.08,2013-03-16 18:07:00,
2013-03-16 14:08:00,76.9,46.4,30.08,West,281,1.0,17.0,34,0.00,,---,0.00,VWS V12.08,2013-03-16 18:08:00,
2013-03-16 14:09:00,76.9,46.4,30.08,WSW,253,7.0,17.0,34,0.00,,---,0.00,VWS V12.08,2013-03-16 18:09:00,
2013-03-16 14:10:00,76.7,44.7,30.09,WSW,240,6.0,17.0,32,0.00,,---,0.00,VWS V12.08,2013-03-16 18:10:00,
2013-03-16 14:11:00,76.9,46.4,30.08,SW,236,10.0,17.0,34,0.00,,---,0.00,VWS V12.08,2013-03-16 18:11:00,
2013-03-16 14:12:00,76.8,44.7,30.08,SW,235,6.0,17.0,32,0.00,,---,0.00,VWS V12.08,2013-03-16 18:12:00,
2013-03-16 14:13:00,76.8,44.7,30.08,SW,214,7.0,17.0,32,0.00,,---,0.00,VWS V12.08,2013-03-16 18:13:00,
2013-03-16 14:14:00,76.8,44.7,30.08,West,259,6.0,17.0,32,0.00,,---,0.00,VWS V12.08,2013-03-16 18:14:00,
2013-03-16 14:15:00,76.7,43.8,30.09,WSW,258,7.0,17.0,31,0.00,,---,0.00,VWS V12.08,2013-03-16 18:15:00,
2013-03-16 14:16:00,76.8,47.1,30.08,West,273,4.0,17.0,35,0.00,,---,0.00,VWS V12.08,2013-03-16 18:16:00,
2013-03-16 14:17:00,76.9,47.9,30.08,NW,317,5.0,17.0,36,0.00,,---,0.00,VWS V12.08,2013-03-16 18:17:00,
2013-03-16 14:20:00,76.9,45.6,30.08,WSW,244,6.0,17.0,33,0.00,,---,0.00,VWS V12.08,2013-03-16 18:20:00,
2013-03-16 14:25:00,76.8,45.5,30.08,West,260,3.0,17.0,33,0.00,,---,0.00,VWS V12.08,2013-03-16 18:25:00,
2013-03-16 14:30:00,76.6,47.7,30.08,WSW,254,4.0,17.0,36,0.00,,---,0.00,VWS V12.08,2013-03-16 18:30:00,
2013-03-16 14:31:00,77.1,45.0,30.08,SW,234,7.0,17.0,32,0.00,,---,0.00,VWS V12.08,2013-03-16 18:31:00,
2013-03-16 14:32:00,77.2,45.1,30.08,WSW,247,4.0,17.0,32,0.00,,---,0.00,VWS V12.08,2013-03-16 18:32:00,
2013-03-16 14:33:00,77.3,46.0,30.08,WSW,240,6.0,17.0,33,0.00,,---,0.00,VWS V12.08,2013-03-16 18:33:00,
2013-03-16 14:34:00,77.2,45.1,30.07,SW,234,7.0,17.0,32,0.00,,---,0.00,VWS V12.08,2013-03-16 18:34:00,
2013-03-16 14:35:00,77.3,45.2,30.07,SW,219,8.0,17.0,32,0.00,,---,0.00,VWS V12.08,2013-03-16 18:35:00,
2013-03-16 14:36:00,76.5,44.5,30.08,WSW,240,8.0,17.0,32,0.00,,---,0.00,VWS V12.08,2013-03-16 18:36:00,
2013-03-16 14:37:00,77.5,47.0,30.07,WSW,242,2.0,17.0,34,0.00,,---,0.00,VWS V12.08,2013-03-16 18:37:00,
2013-03-16 14:38:00,77.6,47.0,30.08,West,260,5.0,17.0,34,0.00,,---,0.00,VWS V12.08,2013-03-16 18:38:00,
2013-03-16 14:39:00,77.6,46.2,30.08,WSW,248,5.0,17.0,33,0.00,,---,0.00,VWS V12.08,2013-03-16 18:39:00,
2013-03-16 14:41:00,77.1,45.0,30.08,SW,234,10.0,17.0,32,0.00,,---,0.00,VWS V12.08,2013-03-16 18:41:00,
2013-03-16 14:46:00,77.4,46.1,30.07,SW,234,6.0,17.0,33,0.00,,---,0.00,VWS V12.08,2013-03-16 18:46:00,
2013-03-16 14:51:00,77.5,47.7,30.07,West,262,5.0,17.0,35,0.00,,---,0.00,VWS V12.08,2013-03-16 18:51:00,
2013-03-16 14:55:00,77.3,44.3,30.06,SW,223,6.0,17.0,31,0.00,,---,0.00,VWS V12.08,2013-03-16 18:55:00,
2013-03-16 14:56:00,77.5,47.7,30.07,West,262,1.0,17.0,35,0.00,,---,0.00,VWS V12.08,2013-03-16 18:56:00,
2013-03-16 14:57:00,77.3,45.2,30.06,SW,217,5.0,17.0,32,0.00,,---,0.00,VWS V12.08,2013-03-16 18:57:00,
2013-03-16 14:58:00,77.4,45.3,30.06,WSW,238,8.0,17.0,32,0.00,,---,0.00,VWS V12.08,2013-03-16 18:58:00,
2013-03-16 14:59:00,77.5,46.2,30.06,WSW,257,11.0,17.0,33,0.00,,---,0.00,VWS V12.08,2013-03-16 18:59:00,
2013-03-16 15:00:00,77.6,45.4,30.06,West,259,5.0,17.0,32,0.00,,---,0.00,VWS V12.08,2013-03-16 19:00:00,
2013-03-16 15:01:00,77.4,46.9,30.06,WSW,246,8.0,17.0,34,0.00,,---,0.00,VWS V12.08,2013-03-16 19:01:00,
2013-03-16 15:02:00,77.7,45.5,30.06,WSW,246,0.0,17.0,32,0.00,,---,0.00,VWS V12.08,2013-03-16 19:02:00,
2013-03-16 15:03:00,77.8,45.6,30.06,WSW,256,2.0,17.0,32,0.00,,---,0.00,VWS V12.08,2013-03-16 19:03:00,
2013-03-16 15:04:00,77.8,46.4,30.06,NW,323,4.0,17.0,33,0.00,,---,0.00,VWS V12.08,2013-03-16 19:04:00,
2013-03-16 15:05:00,77.6,46.2,30.06,NW,314,0.0,17.0,33,0.00,,---,0.00,VWS V12.08,2013-03-16 19:05:00,
2013-03-16 15:06:00,77.6,47.0,30.06,WSW,252,4.0,17.0,34,0.00,,---,0.00,VWS V12.08,2013-03-16 19:06:00,
2013-03-16 15:07:00,77.3,44.3,30.06,South,189,8.0,17.0,31,0.00,,---,0.00,VWS V12.08,2013-03-16 19:07:00,
2013-03-16 15:09:00,77.5,46.2,30.06,West,267,0.0,17.0,33,0.00,,---,0.00,VWS V12.08,2013-03-16 19:09:00,
2013-03-16 15:10:00,77.5,45.3,30.06,WSW,251,0.0,17.0,32,0.00,,---,0.00,VWS V12.08,2013-03-16 19:10:00,
2013-03-16 15:12:00,77.7,45.5,30.06,WSW,246,5.0,17.0,32,0.00,,---,0.00,VWS V12.08,2013-03-16 19:12:00,
2013-03-16 15:15:00,78.0,45.0,30.05,SSW,211,7.0,17.0,31,0.00,,---,0.00,VWS V12.08,2013-03-16 19:15:00,
2013-03-16 15:16:00,78.1,45.0,30.05,SW,224,8.0,17.0,31,0.00,,---,0.00,VWS V12.08,2013-03-16 19:16:00,
2013-03-16 15:17:00,77.6,46.2,30.06,West,272,2.0,17.0,33,0.00,,---,0.00,VWS V12.08,2013-03-16 19:17:00,
2013-03-16 15:18:00,78.2,46.0,30.05,WSW,238,2.0,17.0,32,0.00,,---,0.00,VWS V12.08,2013-03-16 19:18:00,
2013-03-16 15:19:00,78.2,45.1,30.05,West,264,4.0,17.0,31,0.00,,---,0.00,VWS V12.08,2013-03-16 19:19:00,
2013-03-16 15:20:00,78.2,46.0,30.05,West,264,2.0,17.0,32,0.00,,---,0.00,VWS V12.08,2013-03-16 19:20:00,
2013-03-16 15:21:00,78.3,46.9,30.05,West,263,7.0,17.0,33,0.00,,---,0.00,VWS V12.08,2013-03-16 19:21:00,
2013-03-16 15:22:00,77.6,47.0,30.06,SW,219,11.0,17.0,34,0.00,,---,0.00,VWS V12.08,2013-03-16 19:22:00,
2013-03-16 15:23:00,78.3,46.0,30.05,WSW,254,7.0,17.0,32,0.00,,---,0.00,VWS V12.08,2013-03-16 19:23:00,
2013-03-16 15:24:00,78.2,45.1,30.05,WSW,250,5.0,17.0,31,0.00,,---,0.00,VWS V12.08,2013-03-16 19:24:00,
2013-03-16 15:25:00,78.3,45.2,30.05,WSW,253,1.0,17.0,31,0.00,,---,0.00,VWS V12.08,2013-03-16 19:25:00,
2013-03-16 15:26:00,78.3,46.9,30.05,NW,315,4.0,17.0,33,0.00,,---,0.00,VWS V12.08,2013-03-16 19:26:00,
2013-03-16 15:27:00,78.1,45.0,30.05,SW,220,5.0,17.0,31,0.00,,---,0.00,VWS V12.08,2013-03-16 19:27:00,
2013-03-16 15:28:00,78.3,46.0,30.04,WSW,250,8.0,17.0,32,0.00,,---,0.00,VWS V12.08,2013-03-16 19:28:00,
2013-03-16 15:29:00,78.2,46.0,30.04,SW,232,3.0,17.0,32,0.00,,---,0.00,VWS V12.08,2013-03-16 19:29:00,
2013-03-16 15:30:00,78.3,45.2,30.04,SW,232,2.0,17.0,31,0.00,,---,0.00,VWS V12.08,2013-03-16 19:30:00,
2013-03-16 15:31:00,78.3,45.2,30.04,SW,227,3.0,17.0,31,0.00,,---,0.00,VWS V12.08,2013-03-16 19:31:00,
2013-03-16 15:32:00,78.3,45.2,30.05,SW,223,6.0,17.0,31,0.00,,---,0.00,VWS V12.08,2013-03-16 19:32:00,
2013-03-16 15:33:00,78.4,46.1,30.04,West,272,6.0,17.0,32,0.00,,---,0.00,VWS V12.08,2013-03-16 19:33:00,
2013-03-16 15:34:00,78.4,46.1,30.04,WNW,282,5.0,17.0,32,0.00,,---,0.00,VWS V12.08,2013-03-16 19:34:00,
2013-03-16 15:35:00,78.4,47.7,30.04,West,280,5.0,17.0,34,0.00,,---,0.00,VWS V12.08,2013-03-16 19:35:00,
2013-03-16 15:36:00,78.4,46.1,30.04,West,276,0.0,17.0,32,0.00,,---,0.00,VWS V12.08,2013-03-16 19:36:00,
2013-03-16 15:37:00,78.3,46.0,30.04,NW,306,8.0,17.0,32,0.00,,---,0.00,VWS V12.08,2013-03-16 19:37:00,
2013-03-16 15:38:00,78.5,47.8,30.04,West,275,4.0,17.0,34,0.00,,---,0.00,VWS V12.08,2013-03-16 19:38:00,
2013-03-16 15:39:00,78.5,47.8,30.04,WNW,302,4.0,17.0,34,0.00,,---,0.00,VWS V12.08,2013-03-16 19:39:00,
2013-03-16 15:40:00,78.5,47.8,30.04,WSW,250,10.0,17.0,34,0.00,,---,0.00,VWS V12.08,2013-03-16 19:40:00,
2013-03-16 15:41:00,78.4,45.3,30.04,SW,227,5.0,17.0,31,0.00,,---,0.00,VWS V12.08,2013-03-16 19:41:00,
2013-03-16 15:42:00,78.5,46.2,30.03,West,261,12.0,17.0,32,0.00,,---,0.00,VWS V12.08,2013-03-16 19:42:00,
2013-03-16 15:43:00,78.3,46.0,30.04,WSW,242,4.0,17.0,32,0.00,,---,0.00,VWS V12.08,2013-03-16 19:43:00,
2013-03-16 15:45:00,78.9,44.9,30.04,SW,233,7.0,17.0,30,0.00,,---,0.00,VWS V12.08,2013-03-16 19:45:00,
2013-03-16 15:46:00,78.9,45.7,30.04,WSW,246,8.0,17.0,31,0.00,,---,0.00,VWS V12.08,2013-03-16 19:46:00,
2013-03-16 15:47:00,78.8,44.8,30.04,WSW,244,4.0,17.0,30,0.00,,---,0.00,VWS V12.08,2013-03-16 19:47:00,
2013-03-16 15:48:00,78.5,47.8,30.04,West,279,1.0,17.0,34,0.00,,---,0.00,VWS V12.08,2013-03-16 19:48:00,
2013-03-16 15:49:00,78.7,46.4,30.04,SW,229,8.0,17.0,32,0.00,,---,0.00,VWS V12.08,2013-03-16 19:49:00,
2013-03-16 15:50:00,78.9,45.7,30.04,SW,231,8.0,17.0,31,0.00,,---,0.00,VWS V12.08,2013-03-16 19:50:00,
2013-03-16 15:51:00,79.1,45.9,30.04,SW,221,11.0,17.0,31,0.00,,---,0.00,VWS V12.08,2013-03-16 19:51:00,
2013-03-16 15:52:00,79.2,45.1,30.04,SSW,203,9.0,17.0,30,0.00,,---,0.00,VWS V12.08,2013-03-16 19:52:00,
2013-03-16 15:53:00,79.3,45.2,30.04,SSW,202,8.0,17.0,30,0.00,,---,0.00,VWS V12.08,2013-03-16 19:53:00,
2013-03-16 15:54:00,78.8,46.5,30.04,WSW,250,7.0,17.0,32,0.00,,---,0.00,VWS V12.08,2013-03-16 19:54:00,
2013-03-16 15:55:00,79.3,45.2,30.04,SW,220,9.0,17.0,30,0.00,,---,0.00,VWS V12.08,2013-03-16 19:55:00,
2013-03-16 15:56:00,79.3,46.1,30.04,SW,221,8.0,17.0,31,0.00,,---,0.00,VWS V12.08,2013-03-16 19:56:00,
2013-03-16 15:57:00,79.4,45.3,30.04,SW,222,3.0,17.0,30,0.00,,---,0.00,VWS V12.08,2013-03-16 19:57:00,
2013-03-16 15:58:00,79.3,45.2,30.04,SW,223,7.0,17.0,30,0.00,,---,0.00,VWS V12.08,2013-03-16 19:58:00,
2013-03-16 15:59:00,78.7,46.4,30.04,West,261,0.0,17.0,32,0.00,,---,0.00,VWS V12.08,2013-03-16 19:59:00,
2013-03-16 16:00:00,79.3,45.2,30.04,WSW,244,10.0,17.0,30,0.00,,---,0.00,VWS V12.08,2013-03-16 20:00:00,
2013-03-16 16:01:00,79.3,46.1,30.04,SW,232,8.0,17.0,31,0.00,,---,0.00,VWS V12.08,2013-03-16 20:01:00,
2013-03-16 16:02:00,79.3,46.1,30.04,WSW,239,0.0,17.0,31,0.00,,---,0.00,VWS V12.08,2013-03-16 20:02:00,
2013-03-16 16:03:00,79.3,46.1,30.04,WSW,248,3.0,17.0,31,0.00,,---,0.00,VWS V12.08,2013-03-16 20:03:00,
2013-03-16 16:04:00,79.3,45.2,30.04,SSW,202,10.0,17.0,30,0.00,,---,0.00,VWS V12.08,2013-03-16 20:04:00,
2013-03-16 16:05:00,79.3,46.1,30.03,WSW,252,6.0,17.0,31,0.00,,---,0.00,VWS V12.08,2013-03-16 20:05:00,
2013-03-16 16:06:00,79.3,46.1,30.03,WSW,238,6.0,17.0,31,0.00,,---,0.00,VWS V12.08,2013-03-16 20:06:00,
2013-03-16 16:07:00,79.3,45.2,30.03,WSW,246,4.0,17.0,30,0.00,,---,0.00,VWS V12.08,2013-03-16 20:07:00,
2013-03-16 16:08:00,79.3,46.1,30.03,WSW,250,0.0,17.0,31,0.00,,---,0.00,VWS V12.08,2013-03-16 20:08:00,
2013-03-16 16:09:00,79.3,45.2,30.04,SW,219,9.0,17.0,30,0.00,,---,0.00,VWS V12.08,2013-03-16 20:09:00,
2013-03-16 16:10:00,79.4,47.0,30.03,SW,228,4.0,17.0,32,0.00,,---,0.00,VWS V12.08,2013-03-16 20:10:00,
2013-03-16 16:11:00,79.4,46.2,30.03,SW,227,5.0,17.0,31,0.00,,---,0.00,VWS V12.08,2013-03-16 20:11:00,
2013-03-16 16:12:00,79.4,45.3,30.03,WSW,242,0.0,17.0,30,0.00,,---,0.00,VWS V12.08,2013-03-16 20:12:00,
2013-03-16 16:13:00,79.4,47.0,30.03,WSW,244,1.0,17.0,32,0.00,,---,0.00,VWS V12.08,2013-03-16 20:13:00,
2013-03-16 16:14:00,79.3,46.1,30.03,West,270,0.0,17.0,31,0.00,,---,0.00,VWS V12.08,2013-03-16 20:14:00,
2013-03-16 16:15:00,79.6,45.5,30.03,SW,229,12.0,17.0,30,0.00,,---,0.00,VWS V12.08,2013-03-16 20:15:00,
2013-03-16 16:16:00,79.7,45.6,30.03,SW,229,10.0,17.0,30,0.00,,---,0.00,VWS V12.08,2013-03-16 20:16:00,
2013-03-16 16:17:00,79.7,44.7,30.03,SW,232,8.0,17.0,29,0.00,,---,0.00,VWS V12.08,2013-03-16 20:17:00,
2013-03-16 16:18:00,79.7,44.7,30.03,SW,230,6.0,17.0,29,0.00,,---,0.00,VWS V12.08,2013-03-16 20:18:00,
2013-03-16 16:19:00,79.3,46.1,30.03,WSW,250,0.0,17.0,31,0.00,,---,0.00,VWS V12.08,2013-03-16 20:19:00,
2013-03-16 16:20:00,79.5,44.5,30.03,SW,225,6.0,17.0,29,0.00,,---,0.00,VWS V12.08,2013-03-16 20:20:00,
2013-03-16 16:21:00,79.4,44.4,30.03,SW,223,8.0,17.0,29,0.00,,---,0.00,VWS V12.08,2013-03-16 20:21:00,
2013-03-16 16:22:00,79.3,45.2,30.03,SW,215,13.0,17.0,30,0.00,,---,0.00,VWS V12.08,2013-03-16 20:22:00,
2013-03-16 16:23:00,79.3,44.3,30.03,SW,221,12.0,17.0,29,0.00,,---,0.00,VWS V12.08,2013-03-16 20:23:00,
2013-03-16 16:24:00,79.2,44.2,30.03,SSW,211,7.0,17.0,29,0.00,,---,0.00,VWS V12.08,2013-03-16 20:24:00,
2013-03-16 16:25:00,79.6,45.5,30.03,SW,232,8.0,17.0,30,0.00,,---,0.00,VWS V12.08,2013-03-16 20:25:00,
2013-03-16 16:26:00,79.2,44.2,30.03,WSW,239,6.0,17.0,29,0.00,,---,0.00,VWS V12.08,2013-03-16 20:26:00,
2013-03-16 16:27:00,79.2,44.2,30.03,SSW,213,7.0,17.0,29,0.00,,---,0.00,VWS V12.08,2013-03-16 20:27:00,
2013-03-16 16:28:00,79.2,44.2,30.03,SW,232,12.0,17.0,29,0.00,,---,0.00,VWS V12.08,2013-03-16 20:28:00,
2013-03-16 16:29:00,79.1,44.2,30.03,SW,217,8.0,17.0,29,0.00,,---,0.00,VWS V12.08,2013-03-16 20:29:00,
2013-03-16 16:30:00,79.5,44.5,30.03,SW,225,6.0,17.0,29,0.00,,---,0.00,VWS V12.08,2013-03-16 20:30:00,
2013-03-16 16:31:00,79.2,44.2,30.03,SW,219,7.0,17.0,29,0.00,,---,0.00,VWS V12.08,2013-03-16 20:31:00,
2013-03-16 16:32:00,79.2,45.1,30.03,West,281,4.0,17.0,30,0.00,,---,0.00,VWS V12.08,2013-03-16 20:32:00,
2013-03-16 16:33:00,79.2,46.8,30.03,West,262,2.0,17.0,32,0.00,,---,0.00,VWS V12.08,2013-03-16 20:33:00,
2013-03-16 16:34:00,79.3,45.2,30.03,WSW,250,2.0,17.0,30,0.00,,---,0.00,VWS V12.08,2013-03-16 20:34:00,
2013-03-16 16:35:00,79.2,45.1,30.03,WSW,242,8.0,17.0,30,0.00,,---,0.00,VWS V12.08,2013-03-16 20:35:00,
2013-03-16 16:36:00,79.3,45.2,30.03,WSW,244,5.0,17.0,30,0.00,,---,0.00,VWS V12.08,2013-03-16 20:36:00,
2013-03-16 16:37:00,79.4,46.2,30.03,SW,233,10.0,17.0,31,0.00,,---,0.00,VWS V12.08,2013-03-16 20:37:00,
2013-03-16 16:38:00,79.5,45.4,30.03,WSW,247,8.0,17.0,30,0.00,,---,0.00,VWS V12.08,2013-03-16 20:38:00,
2013-03-16 16:39:00,79.5,45.4,30.03,West,274,6.0,17.0,30,0.00,,---,0.00,VWS V12.08,2013-03-16 20:39:00,
2013-03-16 16:40:00,79.2,45.1,30.03,SSW,207,8.0,17.0,30,0.00,,---,0.00,VWS V12.08,2013-03-16 20:40:00,
2013-03-16 16:41:00,79.5,44.5,30.03,SW,226,0.0,17.0,29,0.00,,---,0.00,VWS V12.08,2013-03-16 20:41:00,
2013-03-16 16:43:00,79.6,45.5,30.03,SW,215,16.0,17.0,30,0.00,,---,0.00,VWS V12.08,2013-03-16 20:43:00,
2013-03-16 16:44:00,79.6,44.6,30.02,SW,227,8.0,17.0,29,0.00,,---,0.00,VWS V12.08,2013-03-16 20:44:00,
2013-03-16 16:45:00,79.6,44.6,30.03,SW,235,12.0,17.0,29,0.00,,---,0.00,VWS V12.08,2013-03-16 20:45:00,
2013-03-16 16:46:00,79.3,45.2,30.03,WSW,248,5.0,17.0,30,0.00,,---,0.00,VWS V12.08,2013-03-16 20:46:00,
2013-03-16 16:47:00,79.5,44.5,30.02,SW,223,9.0,17.0,29,0.00,,---,0.00,VWS V12.08,2013-03-16 20:47:00,
2013-03-16 16:48:00,79.5,44.5,30.02,SW,224,8.0,17.0,29,0.00,,---,0.00,VWS V12.08,2013-03-16 20:48:00,
2013-03-16 16:51:00,79.5,44.5,30.03,SW,226,1.0,17.0,29,0.00,,---,0.00,VWS V12.08,2013-03-16 20:51:00,
2013-03-16 16:56:00,79.6,45.5,30.02,SW,234,8.0,17.0,30,0.00,,---,0.00,VWS V12.08,2013-03-16 20:56:00,
2013-03-16 16:57:00,79.6,44.6,30.02,WSW,249,5.0,17.0,29,0.00,,---,0.00,VWS V12.08,2013-03-16 20:57:00,
2013-03-16 16:58:00,79.6,44.6,30.02,WSW,249,6.0,17.0,29,0.00,,---,0.00,VWS V12.08,2013-03-16 20:58:00,
2013-03-16 16:59:00,79.6,45.5,30.02,West,261,2.0,17.0,30,0.00,,---,0.00,VWS V12.08,2013-03-16 20:59:00,
2013-03-16 17:00:00,79.6,44.6,30.02,WSW,250,8.0,17.0,29,0.00,,---,0.00,VWS V12.08,2013-03-16 21:00:00,
2013-03-16 17:02:00,79.4,44.4,30.02,SSW,192,4.0,17.0,29,0.00,,---,0.00,VWS V12.08,2013-03-16 21:02:00,
2013-03-16 17:05:00,79.5,44.5,30.02,WSW,254,6.0,17.0,29,0.00,,---,0.00,VWS V12.08,2013-03-16 21:05:00,
2013-03-16 17:06:00,79.5,44.5,30.02,West,259,5.0,17.0,29,0.00,,---,0.00,VWS V12.08,2013-03-16 21:06:00,
2013-03-16 17:07:00,79.6,44.6,30.02,WSW,246,7.0,17.0,29,0.00,,---,0.00,VWS V12.08,2013-03-16 21:07:00,
2013-03-16 17:08:00,79.4,45.3,30.02,West,259,0.0,17.0,30,0.00,,---,0.00,VWS V12.08,2013-03-16 21:08:00,
2013-03-16 17:09:00,79.4,45.3,30.02,West,259,2.0,17.0,30,0.00,,---,0.00,VWS V12.08,2013-03-16 21:09:00,
2013-03-16 17:10:00,79.4,45.3,30.02,WNW,288,7.0,17.0,30,0.00,,---,0.00,VWS V12.08,2013-03-16 21:10:00,
2013-03-16 17:11:00,79.4,44.4,30.02,West,263,7.0,17.0,29,0.00,,---,0.00,VWS V12.08,2013-03-16 21:11:00,
2013-03-16 17:12:00,79.6,44.6,30.02,WSW,248,3.0,17.0,29,0.00,,---,0.00,VWS V12.08,2013-03-16 21:12:00,
2013-03-16 17:13:00,79.4,45.3,30.02,WSW,240,10.0,17.0,30,0.00,,---,0.00,VWS V12.08,2013-03-16 21:13:00,
2013-03-16 17:14:00,79.4,44.4,30.02,WSW,248,5.0,17.0,29,0.00,,---,0.00,VWS V12.08,2013-03-16 21:14:00,
2013-03-16 17:17:00,79.5,44.5,30.02,West,259,4.0,17.0,29,0.00,,---,0.00,VWS V12.08,2013-03-16 21:17:00,
2013-03-16 17:19:00,79.4,44.4,30.02,WSW,244,12.0,17.0,29,0.00,,---,0.00,VWS V12.08,2013-03-16 21:19:00,
2013-03-16 17:20:00,79.4,44.4,30.02,SW,235,6.0,17.0,29,0.00,,---,0.00,VWS V12.08,2013-03-16 21:20:00,
2013-03-16 17:21:00,79.4,44.4,30.02,SW,219,9.0,17.0,29,0.00,,---,0.00,VWS V12.08,2013-03-16 21:21:00,
2013-03-16 17:22:00,79.4,44.4,30.02,West,263,4.0,17.0,29,0.00,,---,0.00,VWS V12.08,2013-03-16 21:22:00,
2013-03-16 17:23:00,79.3,44.3,30.02,WSW,240,11.0,17.0,29,0.00,,---,0.00,VWS V12.08,2013-03-16 21:23:00,
2013-03-16 17:24:00,79.2,44.2,30.02,WSW,240,6.0,17.0,29,0.00,,---,0.00,VWS V12.08,2013-03-16 21:24:00,
2013-03-16 17:25:00,79.1,44.2,30.02,WSW,254,2.0,17.0,29,0.00,,---,0.00,VWS V12.08,2013-03-16 21:25:00,
2013-03-16 17:26:00,79.1,44.2,30.02,West,265,3.0,17.0,29,0.00,,---,0.00,VWS V12.08,2013-03-16 21:26:00,
2013-03-16 17:27:00,79.4,45.3,30.02,WSW,240,7.0,17.0,30,0.00,,---,0.00,VWS V12.08,2013-03-16 21:27:00,
2013-03-16 17:28:00,79.1,45.0,30.02,WSW,257,5.0,17.0,30,0.00,,---,0.00,VWS V12.08,2013-03-16 21:28:00,
2013-03-16 17:29:00,79.1,45.0,30.02,WSW,237,0.0,17.0,30,0.00,,---,0.00,VWS V12.08,2013-03-16 21:29:00,
2013-03-16 17:30:00,79.2,45.1,30.02,WSW,246,4.0,17.0,30,0.00,,---,0.00,VWS V12.08,2013-03-16 21:30:00,
2013-03-16 17:31:00,79.2,44.2,30.02,WSW,242,8.0,17.0,29,0.00,,---,0.00,VWS V12.08,2013-03-16 21:31:00,
2013-03-16 17:32:00,79.4,44.4,30.02,SW,236,13.0,17.0,29,0.00,,---,0.00,VWS V12.08,2013-03-16 21:32:00,
2013-03-16 17:33:00,79.2,44.2,30.02,WSW,245,4.0,17.0,29,0.00,,---,0.00,VWS V12.08,2013-03-16 21:33:00,
2013-03-16 17:34:00,79.2,44.2,30.02,WSW,250,6.0,17.0,29,0.00,,---,0.00,VWS V12.08,2013-03-16 21:34:00,
2013-03-16 17:35:00,79.2,44.2,30.02,WSW,249,4.0,17.0,29,0.00,,---,0.00,VWS V12.08,2013-03-16 21:35:00,
2013-03-16 17:36:00,79.2,44.2,30.02,WSW,248,7.0,17.0,29,0.00,,---,0.00,VWS V12.08,2013-03-16 21:36:00,
2013-03-16 17:37:00,79.1,44.2,30.02,West,265,2.0,17.0,29,0.00,,---,0.00,VWS V12.08,2013-03-16 21:37:00,
2013-03-16 17:38:00,79.2,44.2,30.02,WSW,252,8.0,17.0,29,0.00,,---,0.00,VWS V12.08,2013-03-16 21:38:00,
2013-03-16 17:39:00,79.2,44.2,30.02,WSW,250,8.0,17.0,29,0.00,,---,0.00,VWS V12.08,2013-03-16 21:39:00,
2013-03-16 17:40:00,79.1,44.2,30.02,WSW,248,4.0,17.0,29,0.00,,---,0.00,VWS V12.08,2013-03-16 21:40:00,
2013-03-16 17:42:00,79.2,44.2,30.02,WSW,241,5.0,17.0,29,0.00,,---,0.00,VWS V12.08,2013-03-16 21:42:00,
2013-03-16 17:43:00,79.1,44.2,30.02,WSW,244,3.0,17.0,29,0.00,,---,0.00,VWS V12.08,2013-03-16 21:43:00,
2013-03-16 17:44:00,79.2,44.2,30.02,SW,232,6.0,17.0,29,0.00,,---,0.00,VWS V12.08,2013-03-16 21:44:00,
2013-03-16 17:45:00,79.2,44.2,30.02,SW,221,5.0,17.0,29,0.00,,---,0.00,VWS V12.08,2013-03-16 21:45:00,
2013-03-16 17:46:00,79.2,43.3,30.02,SW,229,4.0,17.0,28,0.00,,---,0.00,VWS V12.08,2013-03-16 21:46:00,
2013-03-16 17:47:00,79.2,44.2,30.02,West,259,4.0,17.0,29,0.00,,---,0.00,VWS V12.08,2013-03-16 21:47:00,
2013-03-16 17:48:00,79.2,44.2,30.02,SW,229,5.0,17.0,29,0.00,,---,0.00,VWS V12.08,2013-03-16 21:48:00,
2013-03-16 17:49:00,79.2,43.3,30.02,SW,227,4.0,17.0,28,0.00,,---,0.00,VWS V12.08,2013-03-16 21:49:00,
2013-03-16 17:51:00,79.2,44.2,30.02,SW,234,4.0,17.0,29,0.00,,---,0.00,VWS V12.08,2013-03-16 21:51:00,
2013-03-16 17:52:00,79.1,44.2,30.02,WSW,244,1.0,17.0,29,0.00,,---,0.00,VWS V12.08,2013-03-16 21:52:00,
2013-03-16 17:55:00,79.2,44.2,30.02,SW,227,3.0,17.0,29,0.00,,---,0.00,VWS V12.08,2013-03-16 21:55:00,
2013-03-16 17:56:00,79.1,44.2,30.02,SW,226,7.0,17.0,29,0.00,,---,0.00,VWS V12.08,2013-03-16 21:56:00,
2013-03-16 17:57:00,79.1,43.2,30.02,SW,217,8.0,17.0,28,0.00,,---,0.00,VWS V12.08,2013-03-16 21:57:00,
2013-03-16 17:58:00,79.2,43.3,30.02,SW,229,0.0,17.0,28,0.00,,---,0.00,VWS V12.08,2013-03-16 21:58:00,
2013-03-16 17:59:00,78.8,43.9,30.02,SW,232,7.0,17.0,29,0.00,,---,0.00,VWS V12.08,2013-03-16 21:59:00,
2013-03-16 18:01:00,78.7,44.7,30.02,West,269,4.0,17.0,30,0.00,,---,0.00,VWS V12.08,2013-03-16 22:01:00,
2013-03-16 18:03:00,79.2,44.2,30.02,SW,223,7.0,17.0,29,0.00,,---,0.00,VWS V12.08,2013-03-16 22:03:00,
2013-03-16 18:05:00,78.6,45.5,30.02,WSW,257,5.0,17.0,31,0.00,,---,0.00,VWS V12.08,2013-03-16 22:05:00,
2013-03-16 18:06:00,78.5,45.4,30.02,West,281,6.0,17.0,31,0.00,,---,0.00,VWS V12.08,2013-03-16 22:06:00,
2013-03-16 18:07:00,78.4,45.3,30.02,West,277,2.0,17.0,31,0.00,,---,0.00,VWS V12.08,2013-03-16 22:07:00,
2013-03-16 18:08:00,79.0,44.1,30.02,SW,215,7.0,17.0,29,0.00,,---,0.00,VWS V12.08,2013-03-16 22:08:00,
2013-03-16 18:09:00,78.3,46.0,30.02,West,277,2.0,17.0,32,0.00,,---,0.00,VWS V12.08,2013-03-16 22:09:00,
2013-03-16 18:10:00,78.3,46.0,30.02,West,277,0.0,17.0,32,0.00,,---,0.00,VWS V12.08,2013-03-16 22:10:00,
2013-03-16 18:11:00,78.2,46.0,30.02,West,276,0.0,17.0,32,0.00,,---,0.00,VWS V12.08,2013-03-16 22:11:00,
2013-03-16 18:13:00,78.8,44.8,30.02,WSW,254,5.0,17.0,30,0.00,,---,0.00,VWS V12.08,2013-03-16 22:13:00,
2013-03-16 18:15:00,78.1,45.9,30.02,WSW,257,3.0,17.0,32,0.00,,---,0.00,VWS V12.08,2013-03-16 22:15:00,
2013-03-16 18:16:00,78.1,45.9,30.02,West,260,0.0,17.0,32,0.00,,---,0.00,VWS V12.08,2013-03-16 22:16:00,
2013-03-16 18:17:00,78.0,45.8,30.02,West,260,0.0,17.0,32,0.00,,---,0.00,VWS V12.08,2013-03-16 22:17:00,
2013-03-16 18:18:00,77.9,45.7,30.02,West,273,1.0,17.0,32,0.00,,---,0.00,VWS V12.08,2013-03-16 22:18:00,
2013-03-16 18:19:00,78.3,46.0,30.02,West,276,1.0,17.0,32,0.00,,---,0.00,VWS V12.08,2013-03-16 22:19:00,
2013-03-16 18:20:00,77.8,45.6,30.02,West,269,4.0,17.0,32,0.00,,---,0.00,VWS V12.08,2013-03-16 22:20:00,
2013-03-16 18:21:00,77.7,45.5,30.02,West,269,0.0,17.0,32,0.00,,---,0.00,VWS V12.08,2013-03-16 22:21:00,
2013-03-16 18:22:00,77.7,45.5,30.02,West,266,6.0,17.0,32,0.00,,---,0.00,VWS V12.08,2013-03-16 22:22:00,
2013-03-16 18:23:00,77.6,45.4,30.02,West,273,0.0,17.0,32,0.00,,---,0.00,VWS V12.08,2013-03-16 22:23:00,
2013-03-16 18:24:00,78.1,45.0,30.02,WSW,248,2.0,17.0,31,0.00,,---,0.00,VWS V12.08,2013-03-16 22:24:00,
2013-03-16 18:26:00,77.5,45.3,30.02,West,265,3.0,17.0,32,0.00,,---,0.00,VWS V12.08,2013-03-16 22:26:00,
2013-03-16 18:27:00,77.5,45.3,30.02,WNW,292,7.0,17.0,32,0.00,,---,0.00,VWS V12.08,2013-03-16 22:27:00,
2013-03-16 18:29:00,77.8,45.6,30.02,West,269,2.0,17.0,32,0.00,,---,0.00,VWS V12.08,2013-03-16 22:29:00,
2013-03-16 18:30:00,77.2,45.1,30.02,West,263,3.0,17.0,32,0.00,,---,0.00,VWS V12.08,2013-03-16 22:30:00,
2013-03-16 18:32:00,76.9,44.8,30.02,West,280,5.0,17.0,32,0.00,,---,0.00,VWS V12.08,2013-03-16 22:32:00,
2013-03-16 18:33:00,76.9,44.8,30.02,West,281,5.0,17.0,32,0.00,,---,0.00,VWS V12.08,2013-03-16 22:33:00,
2013-03-16 18:34:00,76.8,44.7,30.02,WNW,285,4.0,17.0,32,0.00,,---,0.00,VWS V12.08,2013-03-16 22:34:00,
2013-03-16 18:35:00,77.6,46.2,30.02,West,273,0.0,17.0,33,0.00,,---,0.00,VWS V12.08,2013-03-16 22:35:00,
2013-03-16 18:36:00,76.6,45.4,30.02,WNW,285,0.0,17.0,33,0.00,,---,0.00,VWS V12.08,2013-03-16 22:36:00,
2013-03-16 18:37:00,76.6,45.4,30.02,WNW,282,4.0,17.0,33,0.00,,---,0.00,VWS V12.08,2013-03-16 22:37:00,
2013-03-16 18:38:00,76.5,45.3,30.02,WNW,282,0.0,17.0,33,0.00,,---,0.00,VWS V12.08,2013-03-16 22:38:00,
2013-03-16 18:39:00,76.5,45.3,30.02,WNW,290,1.0,17.0,33,0.00,,---,0.00,VWS V12.08,2013-03-16 22:39:00,
2013-03-16 18:40:00,77.3,45.2,30.02,West,267,4.0,17.0,32,0.00,,---,0.00,VWS V12.08,2013-03-16 22:40:00,
2013-03-16 18:42:00,76.2,45.0,30.02,WNW,292,0.0,17.0,33,0.00,,---,0.00,VWS V12.08,2013-03-16 22:42:00,
2013-03-16 18:43:00,76.2,45.0,30.02,WNW,296,4.0,17.0,33,0.00,,---,0.00,VWS V12.08,2013-03-16 22:43:00,
2013-03-16 18:44:00,76.0,44.8,30.02,West,277,5.0,17.0,33,0.00,,---,0.00,VWS V12.08,2013-03-16 22:44:00,
2013-03-16 18:45:00,76.7,44.7,30.02,WNW,286,0.0,17.0,32,0.00,,---,0.00,VWS V12.08,2013-03-16 22:45:00,
2013-03-16 18:46:00,75.9,44.8,30.03,WNW,282,4.0,17.0,33,0.00,,---,0.00,VWS V12.08,2013-03-16 22:46:00,
2013-03-16 18:50:00,76.4,45.2,30.02,WNW,290,0.0,17.0,33,0.00,,---,0.00,VWS V12.08,2013-03-16 22:50:00,
2013-03-16 18:51:00,75.4,45.1,30.03,WNW,290,4.0,17.0,34,0.00,,---,0.00,VWS V12.08,2013-03-16 22:51:00,
2013-03-16 18:52:00,75.3,45.0,30.03,WNW,302,5.0,17.0,34,0.00,,---,0.00,VWS V12.08,2013-03-16 22:52:00,
2013-03-16 18:53:00,75.1,44.8,30.03,WNW,284,4.0,17.0,34,0.00,,---,0.00,VWS V12.08,2013-03-16 22:53:00,
2013-03-16 18:54:00,75.0,44.8,30.03,WNW,294,5.0,17.0,34,0.00,,---,0.00,VWS V12.08,2013-03-16 22:54:00,
2013-03-16 18:55:00,76.0,44.8,30.02,WNW,289,6.0,17.0,33,0.00,,---,0.00,VWS V12.08,2013-03-16 22:55:00,
2013-03-16 18:56:00,74.9,44.7,30.03,WNW,294,0.0,17.0,34,0.00,,---,0.00,VWS V12.08,2013-03-16 22:56:00,
2013-03-16 18:57:00,74.8,44.6,30.03,WNW,294,0.0,17.0,34,0.00,,---,0.00,VWS V12.08,2013-03-16 22:57:00,
2013-03-16 18:58:00,74.7,44.5,30.03,WNW,291,2.0,17.0,34,0.00,,---,0.00,VWS V12.08,2013-03-16 22:58:00,
2013-03-16 18:59:00,74.6,44.4,30.03,NW,319,9.0,17.0,34,0.00,,---,0.00,VWS V12.08,2013-03-16 22:59:00,
2013-03-16 19:00:00,75.5,45.2,30.03,WNW,289,1.0,17.0,34,0.00,,---,0.00,VWS V12.08,2013-03-16 23:00:00,
2013-03-16 19:01:00,74.4,44.2,30.03,WNW,282,0.0,17.0,34,0.00,,---,0.00,VWS V12.08,2013-03-16 23:01:00,
2013-03-16 19:03:00,74.1,44.7,30.03,WNW,288,2.0,17.0,35,0.00,,---,0.00,VWS V12.08,2013-03-16 23:03:00,
2013-03-16 19:04:00,74.1,44.7,30.03,WNW,288,2.0,17.0,35,0.00,,---,0.00,VWS V12.08,2013-03-16 23:04:00,
2013-03-16 19:05:00,74.9,44.7,30.03,WNW,294,0.0,17.0,34,0.00,,---,0.00,VWS V12.08,2013-03-16 23:05:00,
2013-03-16 19:06:00,73.8,44.5,30.03,WNW,293,0.0,17.0,35,0.00,,---,0.00,VWS V12.08,2013-03-16 23:06:00,
2013-03-16 19:07:00,73.7,44.4,30.03,WNW,293,0.0,17.0,35,0.00,,---,0.00,VWS V12.08,2013-03-16 23:07:00,
2013-03-16 19:08:00,73.7,44.4,30.03,WNW,293,0.0,17.0,35,0.00,,---,0.00,VWS V12.08,2013-03-16 23:08:00,
2013-03-16 19:09:00,73.5,44.2,30.03,WNW,302,2.0,17.0,35,0.00,,---,0.00,VWS V12.08,2013-03-16 23:09:00,
2013-03-16 19:10:00,74.6,44.4,30.03,WNW,291,6.0,17.0,34,0.00,,---,0.00,VWS V12.08,2013-03-16 23:10:00,
2013-03-16 19:11:00,73.3,44.8,30.03,WNW,302,0.0,17.0,36,0.00,,---,0.00,VWS V12.08,2013-03-16 23:11:00,
2013-03-16 19:15:00,74.0,44.6,30.03,WNW,289,5.0,17.0,35,0.00,,---,0.00,VWS V12.08,2013-03-16 23:15:00,
2013-03-16 19:16:00,72.7,44.2,30.03,WNW,292,0.0,17.0,36,0.00,,---,0.00,VWS V12.08,2013-03-16 23:16:00,
2013-03-16 19:17:00,72.6,44.9,30.03,WNW,292,1.0,17.0,37,0.00,,---,0.00,VWS V12.08,2013-03-16 23:17:00,
2013-03-16 19:18:00,72.5,44.1,30.03,WNW,292,4.0,17.0,36,0.00,,---,0.00,VWS V12.08,2013-03-16 23:18:00,
2013-03-16 19:19:00,72.4,44.0,30.03,WNW,292,2.0,17.0,36,0.00,,---,0.00,VWS V12.08,2013-03-16 23:19:00,
2013-03-16 19:20:00,73.4,44.8,30.03,WNW,302,1.0,17.0,36,0.00,,---,0.00,VWS V12.08,2013-03-16 23:20:00,
2013-03-16 19:21:00,72.2,44.5,30.03,WNW,290,2.0,17.0,37,0.00,,---,0.00,VWS V12.08,2013-03-16 23:21:00,
2013-03-16 19:22:00,72.1,44.4,30.03,WNW,291,2.0,17.0,37,0.00,,---,0.00,VWS V12.08,2013-03-16 23:22:00,
2013-03-16 19:23:00,72.0,44.3,30.03,WNW,291,0.0,17.0,37,0.00,,---,0.00,VWS V12.08,2013-03-16 23:23:00,
2013-03-16 19:24:00,71.9,44.2,30.03,WNW,291,1.0,17.0,37,0.00,,---,0.00,VWS V12.08,2013-03-16 23:24:00,
2013-03-16 19:25:00,72.9,44.4,30.03,WNW,292,0.0,17.0,36,0.00,,---,0.00,VWS V12.08,2013-03-16 23:25:00,
2013-03-16 19:26:00,71.6,44.0,30.03,WNW,289,1.0,17.0,37,0.00,,---,0.00,VWS V12.08,2013-03-16 23:26:00,
2013-03-16 19:27:00,71.6,44.0,30.03,WNW,289,0.0,17.0,37,0.00,,---,0.00,VWS V12.08,2013-03-16 23:27:00,
2013-03-16 19:28:00,71.5,43.9,30.03,WNW,289,0.0,17.0,37,0.00,,---,0.00,VWS V12.08,2013-03-16 23:28:00,
2013-03-16 19:29:00,71.4,43.8,30.03,WNW,289,0.0,17.0,37,0.00,,---,0.00,VWS V12.08,2013-03-16 23:29:00,
2013-03-16 19:30:00,72.3,44.6,30.03,WNW,292,1.0,17.0,37,0.00,,---,0.00,VWS V12.08,2013-03-16 23:30:00,
2013-03-16 19:31:00,71.2,44.3,30.03,West,280,7.0,17.0,38,0.00,,---,0.00,VWS V12.08,2013-03-16 23:31:00,
2013-03-16 19:32:00,71.2,44.3,30.03,West,280,2.0,17.0,38,0.00,,---,0.00,VWS V12.08,2013-03-16 23:32:00,
2013-03-16 19:33:00,71.1,44.2,30.03,West,280,4.0,17.0,38,0.00,,---,0.00,VWS V12.08,2013-03-16 23:33:00,
2013-03-16 19:34:00,71.0,44.8,30.03,West,280,0.0,17.0,39,0.00,,---,0.00,VWS V12.08,2013-03-16 23:34:00,
2013-03-16 19:35:00,70.9,44.7,30.03,West,280,0.0,17.0,39,0.00,,---,0.00,VWS V12.08,2013-03-16 23:35:00,
2013-03-16 19:36:00,70.8,44.0,30.03,West,280,0.0,17.0,38,0.00,,---,0.00,VWS V12.08,2013-03-16 23:36:00,
2013-03-16 19:37:00,71.6,44.0,30.03,WNW,289,1.0,17.0,37,0.00,,---,0.00,VWS V12.08,2013-03-16 23:37:00,
2013-03-16 19:38:00,70.6,44.5,30.03,West,279,0.0,17.0,39,0.00,,---,0.00,VWS V12.08,2013-03-16 23:38:00,
2013-03-16 19:39:00,70.6,44.5,30.03,West,279,2.0,17.0,39,0.00,,---,0.00,VWS V12.08,2013-03-16 23:39:00,
2013-03-16 19:40:00,70.5,45.0,30.04,West,279,1.0,17.0,40,0.00,,---,0.00,VWS V12.08,2013-03-16 23:40:00,
2013-03-16 19:41:00,70.5,45.0,30.04,West,279,2.0,17.0,40,0.00,,---,0.00,VWS V12.08,2013-03-16 23:41:00,
2013-03-16 19:42:00,71.2,44.3,30.03,West,280,1.0,17.0,38,0.00,,---,0.00,VWS V12.08,2013-03-16 23:42:00,
2013-03-16 19:43:00,70.2,44.8,30.04,West,267,2.0,17.0,40,0.00,,---,0.00,VWS V12.08,2013-03-16 23:43:00,
2013-03-16 19:44:00,70.2,44.8,30.04,West,267,1.0,17.0,40,0.00,,---,0.00,VWS V12.08,2013-03-16 23:44:00,
2013-03-16 19:45:00,70.1,44.7,30.04,West,270,4.0,17.0,40,0.00,,---,0.00,VWS V12.08,2013-03-16 23:45:00,
2013-03-16 19:46:00,70.0,44.6,30.04,WNW,293,0.0,17.0,40,0.00,,---,0.00,VWS V12.08,2013-03-16 23:46:00,
2013-03-16 19:47:00,70.8,44.6,30.03,West,280,4.0,17.0,39,0.00,,---,0.00,VWS V12.08,2013-03-16 23:47:00,
2013-03-16 19:48:00,69.9,44.5,30.04,WNW,293,4.0,17.0,40,0.00,,---,0.00,VWS V12.08,2013-03-16 23:48:00,
2013-03-16 19:49:00,69.8,44.4,30.04,WNW,293,0.0,17.0,40,0.00,,---,0.00,VWS V12.08,2013-03-16 23:49:00,
2013-03-16 19:50:00,69.8,44.4,30.04,WNW,290,2.0,17.0,40,0.00,,---,0.00,VWS V12.08,2013-03-16 23:50:00,
2013-03-16 19:52:00,70.4,45.0,30.04,West,281,5.0,17.0,40,0.00,,---,0.00,VWS V12.08,2013-03-16 23:52:00,
2013-03-16 19:53:00,69.5,44.2,30.04,West,279,1.0,17.0,40,0.00,,---,0.00,VWS V12.08,2013-03-16 23:53:00,
2013-03-16 19:54:00,69.5,44.2,30.04,West,281,0.0,17.0,40,0.00,,---,0.00,VWS V12.08,2013-03-16 23:54:00,
2013-03-16 19:55:00,69.5,44.2,30.04,WNW,285,1.0,17.0,40,0.00,,---,0.00,VWS V12.08,2013-03-16 23:55:00,
2013-03-16 19:56:00,69.4,44.1,30.04,WNW,285,0.0,17.0,40,0.00,,---,0.00,VWS V12.08,2013-03-16 23:56:00,
2013-03-16 19:57:00,70.0,44.6,30.04,WNW,293,1.0,17.0,40,0.00,,---,0.00,VWS V12.08,2013-03-16 23:57:00,
2013-03-16 19:58:00,69.3,44.0,30.04,WNW,283,5.0,17.0,40,0.00,,---,0.00,VWS V12.08,2013-03-16 23:58:00,
2013-03-16 20:00:00,69.1,44.4,30.04,WNW,284,2.0,17.0,41,0.00,,---,0.00,VWS V12.08,2013-03-17 00:00:00,
2013-03-16 20:01:00,69.1,44.4,30.04,WNW,284,4.0,17.0,41,0.00,,---,0.00,VWS V12.08,2013-03-17 00:01:00,
2013-03-16 20:02:00,69.7,44.3,30.04,WNW,290,0.0,17.0,40,0.00,,---,0.00,VWS V12.08,2013-03-17 00:02:00,
2013-03-16 20:03:00,69.0,44.3,30.04,WNW,286,0.0,17.0,41,0.00,,---,0.00,VWS V12.08,2013-03-17 00:03:00,
2013-03-16 20:04:00,68.9,44.2,30.05,WNW,286,0.0,17.0,41,0.00,,---,0.00,VWS V12.08,2013-03-17 00:04:00,
2013-03-16 20:05:00,68.9,44.2,30.05,WNW,286,0.0,17.0,41,0.00,,---,0.00,VWS V12.08,2013-03-17 00:05:00,
2013-03-16 20:06:00,68.8,44.2,30.04,WNW,289,2.0,17.0,41,0.00,,---,0.00,VWS V12.08,2013-03-17 00:06:00,
2013-03-16 20:07:00,69.4,44.7,30.04,West,281,0.0,17.0,41,0.00,,---,0.00,VWS V12.08,2013-03-17 00:07:00,
2013-03-16 20:09:00,68.5,43.9,30.05,WNW,289,0.0,17.0,41,0.00,,---,0.00,VWS V12.08,2013-03-17 00:09:00,
2013-03-16 20:10:00,68.5,43.9,30.05,WNW,289,0.0,17.0,41,0.00,,---,0.00,VWS V12.08,2013-03-17 00:10:00,
2013-03-16 20:11:00,68.4,43.8,30.04,WNW,289,0.0,17.0,41,0.00,,---,0.00,VWS V12.08,2013-03-17 00:11:00,
2013-03-16 20:12:00,69.0,44.3,30.04,WNW,284,0.0,17.0,41,0.00,,---,0.00,VWS V12.08,2013-03-17 00:12:00,
2013-03-16 20:13:00,68.3,44.3,30.05,WNW,289,0.0,17.0,42,0.00,,---,0.00,VWS V12.08,2013-03-17 00:13:00,
2013-03-16 20:14:00,68.2,44.3,30.05,WNW,289,0.0,17.0,42,0.00,,---,0.00,VWS V12.08,2013-03-17 00:14:00,
2013-03-16 20:15:00,68.2,44.3,30.05,WNW,289,1.0,17.0,42,0.00,,---,0.00,VWS V12.08,2013-03-17 00:15:00,
2013-03-16 20:16:00,68.1,44.2,30.05,WNW,289,0.0,17.0,42,0.00,,---,0.00,VWS V12.08,2013-03-17 00:16:00,
2013-03-16 20:17:00,68.7,44.7,30.05,WNW,289,0.0,17.0,42,0.00,,---,0.00,VWS V12.08,2013-03-17 00:17:00,
2013-03-16 20:18:00,68.0,44.1,30.05,WNW,289,0.0,17.0,42,0.00,,---,0.00,VWS V12.08,2013-03-17 00:18:00,
2013-03-16 20:19:00,67.9,44.0,30.05,WNW,289,0.0,17.0,42,0.00,,---,0.00,VWS V12.08,2013-03-17 00:19:00,
2013-03-16 20:20:00,67.9,44.6,30.05,WNW,289,1.0,17.0,43,0.00,,---,0.00,VWS V12.08,2013-03-17 00:20:00,
2013-03-16 20:21:00,67.7,43.8,30.05,WNW,289,0.0,17.0,42,0.00,,---,0.00,VWS V12.08,2013-03-17 00:21:00,
2013-03-16 20:22:00,67.6,44.3,30.05,WNW,289,0.0,17.0,43,0.00,,---,0.00,VWS V12.08,2013-03-17 00:22:00,
2013-03-16 20:23:00,68.3,43.7,30.05,WNW,289,1.0,17.0,41,0.00,,---,0.00,VWS V12.08,2013-03-17 00:23:00,
2013-03-16 20:25:00,67.4,44.2,30.05,WNW,289,0.0,17.0,43,0.00,,---,0.00,VWS V12.08,2013-03-17 00:25:00,
2013-03-16 20:26:00,67.4,44.2,30.05,WNW,289,0.0,17.0,43,0.00,,---,0.00,VWS V12.08,2013-03-17 00:26:00,
2013-03-16 20:27:00,67.3,44.1,30.05,WNW,290,4.0,17.0,43,0.00,,---,0.00,VWS V12.08,2013-03-17 00:27:00,
2013-03-16 20:28:00,68.0,44.1,30.05,WNW,289,0.0,17.0,42,0.00,,---,0.00,VWS V12.08,2013-03-17 00:28:00,
2013-03-16 20:29:00,67.1,43.9,30.05,WNW,288,0.0,17.0,43,0.00,,---,0.00,VWS V12.08,2013-03-17 00:29:00,
2013-03-16 20:30:00,67.1,43.9,30.05,WNW,288,0.0,17.0,43,0.00,,---,0.00,VWS V12.08,2013-03-17 00:30:00,
2013-03-16 20:31:00,67.0,43.8,30.05,WNW,288,0.0,17.0,43,0.00,,---,0.00,VWS V12.08,2013-03-17 00:31:00,
2013-03-16 20:32:00,67.0,43.8,30.05,WNW,288,0.0,17.0,43,0.00,,---,0.00,VWS V12.08,2013-03-17 00:32:00,
2013-03-16 20:33:00,67.6,44.3,30.05,WNW,289,0.0,17.0,43,0.00,,---,0.00,VWS V12.08,2013-03-17 00:33:00,
2013-03-16 20:34:00,66.8,43.6,30.05,WNW,290,0.0,17.0,43,0.00,,---,0.00,VWS V12.08,2013-03-17 00:34:00,
2013-03-16 20:35:00,66.8,43.6,30.05,WNW,290,2.0,17.0,43,0.00,,---,0.00,VWS V12.08,2013-03-17 00:35:00,
2013-03-16 20:36:00,66.7,43.5,30.05,WNW,290,0.0,17.0,43,0.00,,---,0.00,VWS V12.08,2013-03-17 00:36:00,
2013-03-16 20:37:00,66.7,44.1,30.05,WNW,290,0.0,17.0,44,0.00,,---,0.00,VWS V12.08,2013-03-17 00:37:00,
2013-03-16 20:38:00,67.2,44.0,30.05,WNW,290,0.0,17.0,43,0.00,,---,0.00,VWS V12.08,2013-03-17 00:38:00,
2013-03-16 20:39:00,66.6,44.0,30.05,WNW,290,0.0,17.0,44,0.00,,---,0.00,VWS V12.08,2013-03-17 00:39:00,
2013-03-16 20:40:00,66.5,43.9,30.05,WNW,290,0.0,17.0,44,0.00,,---,0.00,VWS V12.08,2013-03-17 00:40:00,
2013-03-16 20:41:00,66.5,43.9,30.05,WNW,290,1.0,17.0,44,0.00,,---,0.00,VWS V12.08,2013-03-17 00:41:00,
2013-03-16 20:42:00,66.4,43.2,30.05,WNW,290,1.0,17.0,43,0.00,,---,0.00,VWS V12.08,2013-03-17 00:42:00,
2013-03-16 20:43:00,66.9,43.7,30.05,WNW,288,0.0,17.0,43,0.00,,---,0.00,VWS V12.08,2013-03-17 00:43:00,
2013-03-16 20:44:00,66.3,43.8,30.05,WNW,290,1.0,17.0,44,0.00,,---,0.00,VWS V12.08,2013-03-17 00:44:00,
2013-03-16 20:45:00,66.3,43.8,30.05,WNW,290,0.0,17.0,44,0.00,,---,0.00,VWS V12.08,2013-03-17 00:45:00,
2013-03-16 20:46:00,66.2,43.7,30.05,WNW,290,0.0,17.0,44,0.00,,---,0.00,VWS V12.08,2013-03-17 00:46:00,
2013-03-16 20:47:00,66.2,43.7,30.05,WNW,290,0.0,17.0,44,0.00,,---,0.00,VWS V12.08,2013-03-17 00:47:00,
2013-03-16 20:48:00,66.1,43.6,30.05,WNW,290,0.0,17.0,44,0.00,,---,0.00,VWS V12.08,2013-03-17 00:48:00,
2013-03-16 20:49:00,66.6,44.0,30.05,WNW,290,0.0,17.0,44,0.00,,---,0.00,VWS V12.08,2013-03-17 00:49:00,
2013-03-16 20:50:00,66.0,43.5,30.05,WNW,290,2.0,17.0,44,0.00,,---,0.00,VWS V12.08,2013-03-17 00:50:00,
2013-03-16 20:51:00,65.9,43.4,30.06,WNW,290,0.0,17.0,44,0.00,,---,0.00,VWS V12.08,2013-03-17 00:51:00,
2013-03-16 20:52:00,65.8,43.3,30.05,WNW,290,0.0,17.0,44,0.00,,---,0.00,VWS V12.08,2013-03-17 00:52:00,
2013-03-16 20:53:00,65.8,43.3,30.06,WNW,290,0.0,17.0,44,0.00,,---,0.00,VWS V12.08,2013-03-17 00:53:00,
2013-03-16 20:54:00,65.8,43.3,30.06,WNW,290,0.0,17.0,44,0.00,,---,0.00,VWS V12.08,2013-03-17 00:54:00,
2013-03-16 20:55:00,66.3,43.8,30.05,WNW,290,0.0,17.0,44,0.00,,---,0.00,VWS V12.08,2013-03-17 00:55:00,
2013-03-16 20:56:00,65.6,43.1,30.05,WNW,290,1.0,17.0,44,0.00,,---,0.00,VWS V12.08,2013-03-17 00:56:00,
2013-03-16 20:57:00,65.6,43.1,30.05,WNW,290,1.0,17.0,44,0.00,,---,0.00,VWS V12.08,2013-03-17 00:57:00,
2013-03-16 20:58:00,65.5,43.0,30.06,WNW,290,0.0,17.0,44,0.00,,---,0.00,VWS V12.08,2013-03-17 00:58:00,
2013-03-16 20:59:00,65.5,43.6,30.06,WNW,290,0.0,17.0,45,0.00,,---,0.00,VWS V12.08,2013-03-17 00:59:00,
2013-03-16 21:00:00,66.0,43.5,30.05,WNW,290,0.0,17.0,44,0.00,,---,0.00,VWS V12.08,2013-03-17 01:00:00,
2013-03-16 21:01:00,65.4,42.9,30.06,WNW,290,0.0,17.0,44,0.00,,---,0.00,VWS V12.08,2013-03-17 01:01:00,
2013-03-16 21:02:00,65.4,42.9,30.06,WNW,290,0.0,17.0,44,0.00,,---,0.00,VWS V12.08,2013-03-17 01:02:00,
2013-03-16 21:03:00,65.3,43.4,30.06,WNW,290,0.0,17.0,45,0.00,,---,0.00,VWS V12.08,2013-03-17 01:03:00,
2013-03-16 21:04:00,65.2,43.3,30.06,WNW,290,0.0,17.0,45,0.00,,---,0.00,VWS V12.08,2013-03-17 01:04:00,
2013-03-16 21:05:00,65.2,43.3,30.06,WNW,290,0.0,17.0,45,0.00,,---,0.00,VWS V12.08,2013-03-17 01:05:00,
2013-03-16 21:06:00,65.7,43.2,30.06,WNW,290,0.0,17.0,44,0.00,,---,0.00,VWS V12.08,2013-03-17 01:06:00,
2013-03-16 21:07:00,65.1,43.3,30.06,WNW,290,0.0,17.0,45,0.00,,---,0.00,VWS V12.08,2013-03-17 01:07:00,
2013-03-16 21:08:00,65.0,43.2,30.06,WNW,290,0.0,17.0,45,0.00,,---,0.00,VWS V12.08,2013-03-17 01:08:00,
2013-03-16 21:09:00,65.0,43.2,30.06,WNW,290,0.0,17.0,45,0.00,,---,0.00,VWS V12.08,2013-03-17 01:09:00,
2013-03-16 21:10:00,65.0,43.2,30.06,WNW,290,0.0,17.0,45,0.00,,---,0.00,VWS V12.08,2013-03-17 01:10:00,
2013-03-16 21:11:00,65.4,42.9,30.06,WNW,290,0.0,17.0,44,0.00,,---,0.00,VWS V12.08,2013-03-17 01:11:00,
2013-03-16 21:12:00,64.9,43.1,30.06,WNW,290,0.0,17.0,45,0.00,,---,0.00,VWS V12.08,2013-03-17 01:12:00,
2013-03-16 21:13:00,64.8,43.0,30.06,WNW,290,0.0,17.0,45,0.00,,---,0.00,VWS V12.08,2013-03-17 01:13:00,
2013-03-16 21:14:00,64.8,43.0,30.06,WNW,290,0.0,17.0,45,0.00,,---,0.00,VWS V12.08,2013-03-17 01:14:00,
2013-03-16 21:15:00,64.7,42.9,30.06,WNW,290,0.0,17.0,45,0.00,,---,0.00,VWS V12.08,2013-03-17 01:15:00,
2013-03-16 21:16:00,65.2,43.3,30.06,WNW,290,0.0,17.0,45,0.00,,---,0.00,VWS V12.08,2013-03-17 01:16:00,
2013-03-16 21:17:00,64.6,42.8,30.06,WNW,290,0.0,17.0,45,0.00,,---,0.00,VWS V12.08,2013-03-17 01:17:00,
2013-03-16 21:18:00,64.5,42.7,30.06,WNW,290,0.0,17.0,45,0.00,,---,0.00,VWS V12.08,2013-03-17 01:18:00,
2013-03-16 21:19:00,64.5,42.7,30.06,WNW,290,0.0,17.0,45,0.00,,---,0.00,VWS V12.08,2013-03-17 01:19:00,
2013-03-16 21:21:00,64.9,43.1,30.06,WNW,290,0.0,17.0,45,0.00,,---,0.00,VWS V12.08,2013-03-17 01:21:00,
2013-03-16 21:22:00,64.3,41.9,30.07,WNW,290,0.0,17.0,44,0.00,,---,0.00,VWS V12.08,2013-03-17 01:22:00,
2013-03-16 21:23:00,64.2,42.4,30.07,WNW,290,0.0,17.0,45,0.00,,---,0.00,VWS V12.08,2013-03-17 01:23:00,
2013-03-16 21:24:00,64.1,41.8,30.07,WNW,290,0.0,17.0,44,0.00,,---,0.00,VWS V12.08,2013-03-17 01:24:00,
2013-03-16 21:28:00,64.6,42.8,30.06,WNW,290,0.0,17.0,45,0.00,,---,0.00,VWS V12.08,2013-03-17 01:28:00,
2013-03-16 21:33:00,64.3,41.9,30.07,WNW,290,1.0,17.0,44,0.00,,---,0.00,VWS V12.08,2013-03-17 01:33:00,
2013-03-16 21:35:00,62.8,42.3,30.08,WNW,290,1.0,17.0,47,0.00,,---,0.00,VWS V12.08,2013-03-17 01:35:00,
2013-03-16 21:36:00,62.7,42.2,30.08,WNW,290,0.0,17.0,47,0.00,,---,0.00,VWS V12.08,2013-03-17 01:36:00,
2013-03-16 21:37:00,62.6,42.1,30.08,WNW,290,0.0,17.0,47,0.00,,---,0.00,VWS V12.08,2013-03-17 01:37:00,
2013-03-16 21:38:00,63.7,42.0,30.07,WNW,290,1.0,17.0,45,0.00,,---,0.00,VWS V12.08,2013-03-17 01:38:00,
2013-03-16 21:39:00,62.6,42.1,30.08,WNW,290,0.0,17.0,47,0.00,,---,0.00,VWS V12.08,2013-03-17 01:39:00,
2013-03-16 21:40:00,62.6,42.7,30.08,WNW,290,0.0,17.0,48,0.00,,---,0.00,VWS V12.08,2013-03-17 01:40:00,
2013-03-16 21:41:00,62.6,42.1,30.08,WNW,290,0.0,17.0,47,0.00,,---,0.00,VWS V12.08,2013-03-17 01:41:00,
2013-03-16 21:42:00,62.5,42.0,30.08,WNW,290,0.0,17.0,47,0.00,,---,0.00,VWS V12.08,2013-03-17 01:42:00,
2013-03-16 21:43:00,63.0,41.9,30.07,WNW,290,0.0,17.0,46,0.00,,---,0.00,VWS V12.08,2013-03-17 01:43:00,
2013-03-16 21:44:00,62.5,42.0,30.08,WNW,290,0.0,17.0,47,0.00,,---,0.00,VWS V12.08,2013-03-17 01:44:00,
2013-03-16 21:45:00,62.5,42.0,30.08,WNW,290,0.0,17.0,47,0.00,,---,0.00,VWS V12.08,2013-03-17 01:45:00,
2013-03-16 21:46:00,62.4,41.9,30.08,WNW,290,0.0,17.0,47,0.00,,---,0.00,VWS V12.08,2013-03-17 01:46:00,
2013-03-16 21:47:00,62.4,41.9,30.08,WNW,290,0.0,17.0,47,0.00,,---,0.00,VWS V12.08,2013-03-17 01:47:00,
2013-03-16 21:48:00,62.6,42.1,30.08,WNW,290,0.0,17.0,47,0.00,,---,0.00,VWS V12.08,2013-03-17 01:48:00,
2013-03-16 21:49:00,62.3,41.8,30.08,WNW,290,1.0,17.0,47,0.00,,---,0.00,VWS V12.08,2013-03-17 01:49:00,
2013-03-16 21:54:00,62.5,42.0,30.08,WNW,290,0.0,17.0,47,0.00,,---,0.00,VWS V12.08,2013-03-17 01:54:00,
2013-03-16 21:57:00,61.8,42.5,30.08,WNW,290,1.0,17.0,49,0.00,,---,0.00,VWS V12.08,2013-03-17 01:57:00,
2013-03-16 21:58:00,61.7,42.4,30.08,WNW,290,2.0,17.0,49,0.00,,---,0.00,VWS V12.08,2013-03-17 01:58:00,
2013-03-16 21:59:00,62.3,41.8,30.08,WNW,290,0.0,17.0,47,0.00,,---,0.00,VWS V12.08,2013-03-17 01:59:00,
2013-03-16 22:00:00,61.5,42.2,30.08,WNW,290,2.0,17.0,49,0.00,,---,0.00,VWS V12.08,2013-03-17 02:00:00,
2013-03-16 22:01:00,61.5,42.2,30.08,WNW,290,2.0,17.0,49,0.00,,---,0.00,VWS V12.08,2013-03-17 02:01:00,
2013-03-16 22:03:00,61.2,42.4,30.08,WNW,289,0.0,17.0,50,0.00,,---,0.00,VWS V12.08,2013-03-17 02:03:00,
2013-03-16 22:04:00,62.0,42.1,30.08,WNW,290,0.0,17.0,48,0.00,,---,0.00,VWS V12.08,2013-03-17 02:04:00,
2013-03-16 22:05:00,60.9,42.2,30.08,WNW,289,0.0,17.0,50,0.00,,---,0.00,VWS V12.08,2013-03-17 02:05:00,
2013-03-16 22:06:00,60.9,42.2,30.09,WNW,289,1.0,17.0,50,0.00,,---,0.00,VWS V12.08,2013-03-17 02:06:00,
2013-03-16 22:07:00,60.8,42.1,30.09,WNW,289,0.0,17.0,50,0.00,,---,0.00,VWS V12.08,2013-03-17 02:07:00,
2013-03-16 22:08:00,60.7,42.0,30.08,WNW,289,1.0,17.0,50,0.00,,---,0.00,VWS V12.08,2013-03-17 02:08:00,
2013-03-16 22:09:00,61.7,42.4,30.08,WNW,290,1.0,17.0,49,0.00,,---,0.00,VWS V12.08,2013-03-17 02:09:00,
2013-03-16 22:10:00,60.5,42.3,30.09,WNW,289,0.0,17.0,51,0.00,,---,0.00,VWS V12.08,2013-03-17 02:10:00,
2013-03-16 22:11:00,60.4,42.2,30.08,WNW,289,0.0,17.0,51,0.00,,---,0.00,VWS V12.08,2013-03-17 02:11:00,
2013-03-16 22:12:00,60.3,42.6,30.09,WNW,289,2.0,17.0,52,0.00,,---,0.00,VWS V12.08,2013-03-17 02:12:00,
2013-03-16 22:13:00,60.3,42.6,30.09,WNW,289,0.0,17.0,52,0.00,,---,0.00,VWS V12.08,2013-03-17 02:13:00,
2013-03-16 22:14:00,61.1,42.3,30.08,WNW,289,2.0,17.0,50,0.00,,---,0.00,VWS V12.08,2013-03-17 02:14:00,
2013-03-16 22:15:00,60.2,43.0,30.09,WNW,288,2.0,17.0,53,0.00,,---,0.00,VWS V12.08,2013-03-17 02:15:00,
2013-03-16 22:16:00,60.2,43.0,30.09,WNW,288,0.0,17.0,53,0.00,,---,0.00,VWS V12.08,2013-03-17 02:16:00,
2013-03-16 22:17:00,60.2,43.0,30.09,WNW,288,2.0,17.0,53,0.00,,---,0.00,VWS V12.08,2013-03-17 02:17:00,
2013-03-16 22:18:00,60.3,43.1,30.09,WNW,288,4.0,17.0,53,0.00,,---,0.00,VWS V12.08,2013-03-17 02:18:00,
2013-03-16 22:19:00,60.3,43.1,30.09,WNW,288,1.0,17.0,53,0.00,,---,0.00,VWS V12.08,2013-03-17 02:19:00,
2013-03-16 22:20:00,60.5,42.3,30.08,WNW,289,2.0,17.0,51,0.00,,---,0.00,VWS V12.08,2013-03-17 02:20:00,
2013-03-16 22:21:00,60.4,43.2,30.09,WNW,288,0.0,17.0,53,0.00,,---,0.00,VWS V12.08,2013-03-17 02:21:00,
2013-03-16 22:22:00,60.4,43.2,30.09,WNW,288,2.0,17.0,53,0.00,,---,0.00,VWS V12.08,2013-03-17 02:22:00,
2013-03-16 22:23:00,60.4,43.2,30.09,WNW,288,4.0,17.0,53,0.00,,---,0.00,VWS V12.08,2013-03-17 02:23:00,
2013-03-16 22:24:00,60.3,43.6,30.09,WNW,288,0.0,17.0,54,0.00,,---,0.00,VWS V12.08,2013-03-17 02:24:00,
2013-03-16 22:25:00,60.2,43.0,30.09,WNW,288,0.0,17.0,53,0.00,,---,0.00,VWS V12.08,2013-03-17 02:25:00,
2013-03-16 22:27:00,60.2,43.5,30.09,West,281,4.0,17.0,54,0.00,,---,0.00,VWS V12.08,2013-03-17 02:27:00,
2013-03-16 22:29:00,60.2,43.5,30.09,West,281,2.0,17.0,54,0.00,,---,0.00,VWS V12.08,2013-03-17 02:29:00,
2013-03-16 22:30:00,60.3,43.1,30.09,WNW,288,0.0,17.0,53,0.00,,---,0.00,VWS V12.08,2013-03-17 02:30:00,
2013-03-16 22:32:00,60.1,43.4,30.09,West,281,2.0,17.0,54,0.00,,---,0.00,VWS V12.08,2013-03-17 02:32:00,
2013-03-16 22:33:00,60.0,43.3,30.09,West,281,0.0,17.0,54,0.00,,---,0.00,VWS V12.08,2013-03-17 02:33:00,
2013-03-16 22:34:00,60.0,43.3,30.09,West,281,0.0,17.0,54,0.00,,---,0.00,VWS V12.08,2013-03-17 02:34:00,
2013-03-16 22:35:00,60.3,43.6,30.09,WNW,285,4.0,17.0,54,0.00,,---,0.00,VWS V12.08,2013-03-17 02:35:00,
2013-03-16 22:36:00,60.0,43.8,30.09,West,281,0.0,17.0,55,0.00,,---,0.00,VWS V12.08,2013-03-17 02:36:00,
2013-03-16 22:37:00,60.0,43.8,30.09,West,281,0.0,17.0,55,0.00,,---,0.00,VWS V12.08,2013-03-17 02:37:00,
2013-03-16 22:38:00,60.1,43.9,30.09,West,281,1.0,17.0,55,0.00,,---,0.00,VWS V12.08,2013-03-17 02:38:00,
2013-03-16 22:39:00,60.1,43.9,30.09,West,281,0.0,17.0,55,0.00,,---,0.00,VWS V12.08,2013-03-17 02:39:00,
2013-03-16 22:40:00,60.2,43.5,30.09,West,281,1.0,17.0,54,0.00,,---,0.00,VWS V12.08,2013-03-17 02:40:00,
2013-03-16 22:41:00,60.1,43.4,30.09,West,281,0.0,17.0,54,0.00,,---,0.00,VWS V12.08,2013-03-17 02:41:00,
2013-03-16 22:42:00,60.0,43.3,30.09,West,281,0.0,17.0,54,0.00,,---,0.00,VWS V12.08,2013-03-17 02:42:00,
2013-03-16 22:43:00,60.0,43.3,30.09,West,281,0.0,17.0,54,0.00,,---,0.00,VWS V12.08,2013-03-17 02:43:00,
2013-03-16 22:44:00,60.0,43.8,30.09,West,281,2.0,17.0,55,0.00,,---,0.00,VWS V12.08,2013-03-17 02:44:00,
2013-03-16 22:45:00,60.0,43.8,30.09,West,281,0.0,17.0,55,0.00,,---,0.00,VWS V12.08,2013-03-17 02:45:00,
2013-03-16 22:46:00,60.0,43.8,30.09,West,281,0.0,17.0,55,0.00,,---,0.00,VWS V12.08,2013-03-17 02:46:00,
2013-03-16 22:47:00,59.9,43.7,30.08,West,281,0.0,17.0,55,0.00,,---,0.00,VWS V12.08,2013-03-17 02:47:00,
2013-03-16 22:49:00,60.0,43.8,30.08,West,281,0.0,17.0,55,0.00,,---,0.00,VWS V12.08,2013-03-17 02:49:00,
2013-03-16 22:50:00,60.1,43.4,30.09,West,281,0.0,17.0,54,0.00,,---,0.00,VWS V12.08,2013-03-17 02:50:00,
2013-03-16 22:51:00,59.9,43.7,30.09,West,281,0.0,17.0,55,0.00,,---,0.00,VWS V12.08,2013-03-17 02:51:00,
2013-03-16 22:52:00,59.9,43.7,30.09,West,281,0.0,17.0,55,0.00,,---,0.00,VWS V12.08,2013-03-17 02:52:00,
2013-03-16 22:53:00,59.9,43.7,30.09,West,281,0.0,17.0,55,0.00,,---,0.00,VWS V12.08,2013-03-17 02:53:00,
2013-03-16 22:54:00,59.9,44.2,30.09,West,281,0.0,17.0,56,0.00,,---,0.00,VWS V12.08,2013-03-17 02:54:00,
2013-03-16 22:55:00,59.9,43.7,30.09,West,281,0.0,17.0,55,0.00,,---,0.00,VWS V12.08,2013-03-17 02:55:00,
2013-03-16 22:56:00,59.9,43.7,30.09,West,281,0.0,17.0,55,0.00,,---,0.00,VWS V12.08,2013-03-17 02:56:00,
2013-03-16 22:57:00,60.0,43.8,30.09,West,281,0.0,17.0,55,0.00,,---,0.00,VWS V12.08,2013-03-17 02:57:00,
2013-03-16 22:58:00,59.8,44.1,30.09,West,281,0.0,17.0,56,0.00,,---,0.00,VWS V12.08,2013-03-17 02:58:00,
2013-03-16 22:59:00,59.8,44.1,30.09,West,281,0.0,17.0,56,0.00,,---,0.00,VWS V12.08,2013-03-17 02:59:00,
2013-03-16 23:00:00,59.8,44.1,30.09,West,281,0.0,17.0,56,0.00,,---,0.00,VWS V12.08,2013-03-17 03:00:00,
2013-03-16 23:01:00,59.8,44.1,30.09,West,276,1.0,17.0,56,0.00,,---,0.00,VWS V12.08,2013-03-17 03:01:00,
2013-03-16 23:02:00,59.8,44.5,30.09,West,276,1.0,17.0,57,0.00,,---,0.00,VWS V12.08,2013-03-17 03:02:00,
2013-03-16 23:03:00,59.8,44.5,30.09,West,276,1.0,17.0,57,0.00,,---,0.00,VWS V12.08,2013-03-17 03:03:00,
2013-03-16 23:04:00,59.8,44.5,30.09,West,276,2.0,17.0,57,0.00,,---,0.00,VWS V12.08,2013-03-17 03:04:00,
2013-03-16 23:05:00,59.9,43.7,30.09,West,281,0.0,17.0,55,0.00,,---,0.00,VWS V12.08,2013-03-17 03:05:00,
2013-03-16 23:06:00,59.8,44.5,30.09,West,276,0.0,17.0,57,0.00,,---,0.00,VWS V12.08,2013-03-17 03:06:00,
2013-03-16 23:07:00,59.8,44.5,30.09,West,276,0.0,17.0,57,0.00,,---,0.00,VWS V12.08,2013-03-17 03:07:00,
2013-03-16 23:08:00,59.8,44.5,30.09,West,275,4.0,17.0,57,0.00,,---,0.00,VWS V12.08,2013-03-17 03:08:00,
2013-03-16 23:09:00,59.8,44.5,30.09,West,275,0.0,17.0,57,0.00,,---,0.00,VWS V12.08,2013-03-17 03:09:00,
2013-03-16 23:10:00,59.8,44.5,30.09,West,275,1.0,17.0,57,0.00,,---,0.00,VWS V12.08,2013-03-17 03:10:00,
2013-03-16 23:11:00,59.8,44.1,30.09,West,281,0.0,17.0,56,0.00,,---,0.00,VWS V12.08,2013-03-17 03:11:00,
2013-03-16 23:12:00,59.8,44.5,30.09,West,275,6.0,17.0,57,0.00,,---,0.00,VWS V12.08,2013-03-17 03:12:00,
2013-03-16 23:13:00,59.9,44.7,30.09,West,275,0.0,17.0,57,0.00,,---,0.00,VWS V12.08,2013-03-17 03:13:00,
2013-03-16 23:14:00,59.8,44.5,30.09,West,275,4.0,17.0,57,0.00,,---,0.00,VWS V12.08,2013-03-17 03:14:00,
2013-03-16 23:15:00,59.8,44.5,30.09,West,275,0.0,17.0,57,0.00,,---,0.00,VWS V12.08,2013-03-17 03:15:00,
2013-03-16 23:16:00,59.8,44.5,30.09,West,276,0.0,17.0,57,0.00,,---,0.00,VWS V12.08,2013-03-17 03:16:00,
2013-03-16 23:17:00,59.7,44.9,30.09,West,274,2.0,17.0,58,0.00,,---,0.00,VWS V12.08,2013-03-17 03:17:00,
2013-03-16 23:18:00,59.7,44.9,30.09,West,269,3.0,17.0,58,0.00,,---,0.00,VWS V12.08,2013-03-17 03:18:00,
2013-03-16 23:19:00,59.8,45.0,30.09,West,269,1.0,17.0,58,0.00,,---,0.00,VWS V12.08,2013-03-17 03:19:00,
2013-03-16 23:20:00,59.8,45.0,30.09,West,269,1.0,17.0,58,0.00,,---,0.00,VWS V12.08,2013-03-17 03:20:00,
2013-03-16 23:21:00,59.8,45.5,30.09,West,269,0.0,17.0,59,0.00,,---,0.00,VWS V12.08,2013-03-17 03:21:00,
2013-03-16 23:22:00,59.8,44.5,30.09,West,275,0.0,17.0,57,0.00,,---,0.00,VWS V12.08,2013-03-17 03:22:00,
2013-03-16 23:23:00,59.8,45.0,30.09,West,269,0.0,17.0,58,0.00,,---,0.00,VWS V12.08,2013-03-17 03:23:00,
2013-03-16 23:24:00,59.8,45.0,30.09,West,268,2.0,17.0,58,0.00,,---,0.00,VWS V12.08,2013-03-17 03:24:00,
2013-03-16 23:25:00,59.8,45.5,30.09,West,268,0.0,17.0,59,0.00,,---,0.00,VWS V12.08,2013-03-17 03:25:00,
2013-03-16 23:26:00,59.8,45.5,30.09,West,268,0.0,17.0,59,0.00,,---,0.00,VWS V12.08,2013-03-17 03:26:00,
2013-03-16 23:27:00,59.8,45.0,30.09,West,274,0.0,17.0,58,0.00,,---,0.00,VWS V12.08,2013-03-17 03:27:00,
2013-03-16 23:28:00,59.8,45.5,30.09,West,268,0.0,17.0,59,0.00,,---,0.00,VWS V12.08,2013-03-17 03:28:00,
2013-03-16 23:29:00,59.8,45.5,30.09,West,267,0.0,17.0,59,0.00,,---,0.00,VWS V12.08,2013-03-17 03:29:00,
2013-03-16 23:30:00,59.8,45.5,30.09,West,267,0.0,17.0,59,0.00,,---,0.00,VWS V12.08,2013-03-17 03:30:00,
2013-03-16 23:31:00,59.8,45.5,30.09,West,267,0.0,17.0,59,0.00,,---,0.00,VWS V12.08,2013-03-17 03:31:00,
2013-03-16 23:32:00,59.8,45.0,30.09,West,269,0.0,17.0,58,0.00,,---,0.00,VWS V12.08,2013-03-17 03:32:00,
2013-03-16 23:35:00,59.6,45.7,30.09,West,267,0.0,17.0,60,0.00,,---,0.00,VWS V12.08,2013-03-17 03:35:00,
2013-03-16 23:36:00,59.6,45.7,30.09,West,267,0.0,17.0,60,0.00,,---,0.00,VWS V12.08,2013-03-17 03:36:00,
2013-03-16 23:38:00,59.7,45.4,30.09,West,268,2.0,17.0,59,0.00,,---,0.00,VWS V12.08,2013-03-17 03:38:00,
2013-03-16 23:40:00,59.5,46.1,30.09,West,267,0.0,17.0,61,0.00,,---,0.00,VWS V12.08,2013-03-17 03:40:00,
2013-03-16 23:41:00,59.4,46.0,30.09,West,266,0.0,17.0,61,0.00,,---,0.00,VWS V12.08,2013-03-17 03:41:00,
2013-03-16 23:42:00,59.4,46.0,30.09,West,266,0.0,17.0,61,0.00,,---,0.00,VWS V12.08,2013-03-17 03:42:00,
2013-03-16 23:43:00,59.7,46.2,30.09,West,267,0.0,17.0,61,0.00,,---,0.00,VWS V12.08,2013-03-17 03:43:00,
2013-03-16 23:44:00,59.3,46.3,30.09,West,267,0.0,17.0,62,0.00,,---,0.00,VWS V12.08,2013-03-17 03:44:00,
2013-03-16 23:45:00,59.3,46.3,30.09,West,267,0.0,17.0,62,0.00,,---,0.00,VWS V12.08,2013-03-17 03:45:00,
2013-03-16 23:46:00,59.3,46.3,30.09,West,267,0.0,17.0,62,0.00,,---,0.00,VWS V12.08,2013-03-17 03:46:00,
2013-03-16 23:47:00,59.2,46.2,30.09,West,266,0.0,17.0,62,0.00,,---,0.00,VWS V12.08,2013-03-17 03:47:00,
2013-03-16 23:48:00,59.5,45.6,30.09,West,266,0.0,17.0,60,0.00,,---,0.00,VWS V12.08,2013-03-17 03:48:00,
2013-03-16 23:49:00,59.2,46.2,30.09,West,267,0.0,17.0,62,0.00,,---,0.00,VWS V12.08,2013-03-17 03:49:00,
2013-03-16 23:50:00,59.1,46.5,30.09,West,267,0.0,17.0,63,0.00,,---,0.00,VWS V12.08,2013-03-17 03:50:00,
2013-03-16 23:51:00,59.1,46.5,30.09,West,267,0.0,17.0,63,0.00,,---,0.00,VWS V12.08,2013-03-17 03:51:00,
2013-03-16 23:52:00,59.1,46.5,30.09,West,267,0.0,17.0,63,0.00,,---,0.00,VWS V12.08,2013-03-17 03:52:00,
2013-03-16 23:53:00,59.4,46.0,30.09,West,267,0.0,17.0,61,0.00,,---,0.00,VWS V12.08,2013-03-17 03:53:00,
2013-03-16 23:54:00,59.0,46.8,30.09,West,267,0.0,17.0,64,0.00,,---,0.00,VWS V12.08,2013-03-17 03:54:00,
2013-03-16 23:55:00,59.0,46.8,30.09,West,266,0.0,17.0,64,0.00,,---,0.00,VWS V12.08,2013-03-17 03:55:00,
2013-03-16 23:56:00,59.0,46.8,30.09,West,266,0.0,17.0,64,0.00,,---,0.00,VWS V12.08,2013-03-17 03:56:00,
2013-03-16 23:57:00,58.9,46.8,30.09,West,267,0.0,17.0,64,0.00,,---,0.00,VWS V12.08,2013-03-17 03:57:00,
2013-03-16 23:58:00,59.2,46.2,30.09,West,267,0.0,17.0,62,0.00,,---,0.00,VWS V12.08,2013-03-17 03:58:00,
2013-03-16 23:59:00,58.9,46.8,30.09,West,267,0.0,17.0,64,0.00,,---,0.00,VWS V12.08,2013-03-17 03:59:00,